<?xml version="1.0" encoding="UTF-8" standalone="no" ?>
<gpx xmlns="http://www.topografix.com/GPX/1/1" xmlns:xsi="http://www.w3.org/2001/XMLSchema-instance" xsi:schemaLocation="http://www.topografix.com/GPX/1/1 http://www.topografix.com/GPX/1/1/gpx.xsd" version="1.1" creator="VisuGPX - https://www.visugpx.com">
  <metadata>
    <name>Pincho Lac V2</name>
    <desc><![CDATA[Sortie en VTTAE sur les pistes au nord de Lagos, vers les Eolienes et le lac du barrage de Bravura]]></desc>
  </metadata>
  <trk>
    <name><![CDATA[Pincho Lac V2]]></name>
    <trkseg>
      <trkpt lat="37.13739" lon="-8.69097">
        <ele>57.34</ele>
        <time>2020-04-22T07:45:12Z</time>
      </trkpt>
      <trkpt lat="37.1374" lon="-8.69097">
        <ele>57.34</ele>
        <time>2020-04-22T07:45:13Z</time>
      </trkpt>
      <trkpt lat="37.1374" lon="-8.69097">
        <ele>49.16</ele>
        <time>2020-04-22T07:45:17Z</time>
      </trkpt>
      <trkpt lat="37.1374" lon="-8.69097">
        <ele>49.65</ele>
        <time>2020-04-22T07:45:18Z</time>
      </trkpt>
      <trkpt lat="37.13737" lon="-8.69092">
        <ele>48.2</ele>
        <time>2020-04-22T07:45:26Z</time>
      </trkpt>
      <trkpt lat="37.13737" lon="-8.69091">
        <ele>49.65</ele>
        <time>2020-04-22T07:45:30Z</time>
      </trkpt>
      <trkpt lat="37.13736" lon="-8.69091">
        <ele>49.65</ele>
        <time>2020-04-22T07:45:32Z</time>
      </trkpt>
      <trkpt lat="37.13736" lon="-8.6909">
        <ele>48.2</ele>
        <time>2020-04-22T07:45:35Z</time>
      </trkpt>
      <trkpt lat="37.13737" lon="-8.69089">
        <ele>48.68</ele>
        <time>2020-04-22T07:45:53Z</time>
      </trkpt>
      <trkpt lat="37.13739" lon="-8.69087">
        <ele>48.2</ele>
        <time>2020-04-22T07:46:06Z</time>
      </trkpt>
      <trkpt lat="37.1374" lon="-8.69087">
        <ele>48.2</ele>
        <time>2020-04-22T07:46:18Z</time>
      </trkpt>
      <trkpt lat="37.1374" lon="-8.69088">
        <ele>48.2</ele>
        <time>2020-04-22T07:46:19Z</time>
      </trkpt>
      <trkpt lat="37.13754" lon="-8.69101">
        <ele>48.2</ele>
        <time>2020-04-22T07:46:27Z</time>
      </trkpt>
      <trkpt lat="37.13778" lon="-8.69118">
        <ele>49.65</ele>
        <time>2020-04-22T07:46:36Z</time>
      </trkpt>
      <trkpt lat="37.13783" lon="-8.69145">
        <ele>50.13</ele>
        <time>2020-04-22T07:46:42Z</time>
      </trkpt>
      <trkpt lat="37.13784" lon="-8.69181">
        <ele>50.13</ele>
        <time>2020-04-22T07:46:49Z</time>
      </trkpt>
      <trkpt lat="37.13786" lon="-8.69192">
        <ele>50.13</ele>
        <time>2020-04-22T07:46:51Z</time>
      </trkpt>
      <trkpt lat="37.13787" lon="-8.69197">
        <ele>50.13</ele>
        <time>2020-04-22T07:46:52Z</time>
      </trkpt>
      <trkpt lat="37.13788" lon="-8.69203">
        <ele>50.13</ele>
        <time>2020-04-22T07:46:53Z</time>
      </trkpt>
      <trkpt lat="37.13791" lon="-8.69207">
        <ele>50.13</ele>
        <time>2020-04-22T07:46:54Z</time>
      </trkpt>
      <trkpt lat="37.13793" lon="-8.69211">
        <ele>50.13</ele>
        <time>2020-04-22T07:46:55Z</time>
      </trkpt>
      <trkpt lat="37.13797" lon="-8.69215">
        <ele>50.13</ele>
        <time>2020-04-22T07:46:56Z</time>
      </trkpt>
      <trkpt lat="37.138" lon="-8.69218">
        <ele>50.13</ele>
        <time>2020-04-22T07:46:57Z</time>
      </trkpt>
      <trkpt lat="37.13804" lon="-8.6922">
        <ele>50.13</ele>
        <time>2020-04-22T07:46:58Z</time>
      </trkpt>
      <trkpt lat="37.13808" lon="-8.69223">
        <ele>50.13</ele>
        <time>2020-04-22T07:46:59Z</time>
      </trkpt>
      <trkpt lat="37.13813" lon="-8.69224">
        <ele>50.13</ele>
        <time>2020-04-22T07:47:00Z</time>
      </trkpt>
      <trkpt lat="37.13818" lon="-8.69225">
        <ele>50.13</ele>
        <time>2020-04-22T07:47:01Z</time>
      </trkpt>
      <trkpt lat="37.13823" lon="-8.69226">
        <ele>48.68</ele>
        <time>2020-04-22T07:47:02Z</time>
      </trkpt>
      <trkpt lat="37.13866" lon="-8.69229">
        <ele>48.68</ele>
        <time>2020-04-22T07:47:11Z</time>
      </trkpt>
      <trkpt lat="37.13888" lon="-8.69233">
        <ele>50.13</ele>
        <time>2020-04-22T07:47:16Z</time>
      </trkpt>
      <trkpt lat="37.13927" lon="-8.69244">
        <ele>51.57</ele>
        <time>2020-04-22T07:47:25Z</time>
      </trkpt>
      <trkpt lat="37.13963" lon="-8.6925">
        <ele>53.49</ele>
        <time>2020-04-22T07:47:35Z</time>
      </trkpt>
      <trkpt lat="37.14007" lon="-8.69259">
        <ele>53.49</ele>
        <time>2020-04-22T07:47:46Z</time>
      </trkpt>
      <trkpt lat="37.14047" lon="-8.69268">
        <ele>54.45</ele>
        <time>2020-04-22T07:47:56Z</time>
      </trkpt>
      <trkpt lat="37.14075" lon="-8.69275">
        <ele>57.34</ele>
        <time>2020-04-22T07:48:05Z</time>
      </trkpt>
      <trkpt lat="37.141" lon="-8.6928">
        <ele>59.74</ele>
        <time>2020-04-22T07:48:14Z</time>
      </trkpt>
      <trkpt lat="37.14128" lon="-8.69282">
        <ele>62.62</ele>
        <time>2020-04-22T07:48:24Z</time>
      </trkpt>
      <trkpt lat="37.14153" lon="-8.69274">
        <ele>63.58</ele>
        <time>2020-04-22T07:48:33Z</time>
      </trkpt>
      <trkpt lat="37.14178" lon="-8.69258">
        <ele>65.03</ele>
        <time>2020-04-22T07:48:42Z</time>
      </trkpt>
      <trkpt lat="37.14207" lon="-8.69252">
        <ele>65.99</ele>
        <time>2020-04-22T07:48:51Z</time>
      </trkpt>
      <trkpt lat="37.14237" lon="-8.69255">
        <ele>66.95</ele>
        <time>2020-04-22T07:49:00Z</time>
      </trkpt>
      <trkpt lat="37.14263" lon="-8.69247">
        <ele>67.91</ele>
        <time>2020-04-22T07:49:08Z</time>
      </trkpt>
      <trkpt lat="37.14294" lon="-8.69225">
        <ele>68.87</ele>
        <time>2020-04-22T07:49:18Z</time>
      </trkpt>
      <trkpt lat="37.14328" lon="-8.69201">
        <ele>68.87</ele>
        <time>2020-04-22T07:49:28Z</time>
      </trkpt>
      <trkpt lat="37.1434" lon="-8.69194">
        <ele>68.87</ele>
        <time>2020-04-22T07:49:31Z</time>
      </trkpt>
      <trkpt lat="37.14369" lon="-8.6918">
        <ele>67.43</ele>
        <time>2020-04-22T07:49:38Z</time>
      </trkpt>
      <trkpt lat="37.14408" lon="-8.69161">
        <ele>65.03</ele>
        <time>2020-04-22T07:49:45Z</time>
      </trkpt>
      <trkpt lat="37.14455" lon="-8.69141">
        <ele>61.18</ele>
        <time>2020-04-22T07:49:52Z</time>
      </trkpt>
      <trkpt lat="37.14514" lon="-8.69128">
        <ele>58.78</ele>
        <time>2020-04-22T07:50:00Z</time>
      </trkpt>
      <trkpt lat="37.14521" lon="-8.69125">
        <ele>58.78</ele>
        <time>2020-04-22T07:50:01Z</time>
      </trkpt>
      <trkpt lat="37.14527" lon="-8.69121">
        <ele>58.78</ele>
        <time>2020-04-22T07:50:02Z</time>
      </trkpt>
      <trkpt lat="37.14538" lon="-8.69113">
        <ele>58.78</ele>
        <time>2020-04-22T07:50:04Z</time>
      </trkpt>
      <trkpt lat="37.14543" lon="-8.69108">
        <ele>58.78</ele>
        <time>2020-04-22T07:50:05Z</time>
      </trkpt>
      <trkpt lat="37.14566" lon="-8.69081">
        <ele>58.78</ele>
        <time>2020-04-22T07:50:11Z</time>
      </trkpt>
      <trkpt lat="37.14583" lon="-8.6906">
        <ele>60.22</ele>
        <time>2020-04-22T07:50:17Z</time>
      </trkpt>
      <trkpt lat="37.14606" lon="-8.69033">
        <ele>63.58</ele>
        <time>2020-04-22T07:50:26Z</time>
      </trkpt>
      <trkpt lat="37.14628" lon="-8.6901">
        <ele>65.99</ele>
        <time>2020-04-22T07:50:35Z</time>
      </trkpt>
      <trkpt lat="37.14656" lon="-8.68979">
        <ele>68.39</ele>
        <time>2020-04-22T07:50:46Z</time>
      </trkpt>
      <trkpt lat="37.14678" lon="-8.68951">
        <ele>67.91</ele>
        <time>2020-04-22T07:50:54Z</time>
      </trkpt>
      <trkpt lat="37.14706" lon="-8.68917">
        <ele>66.95</ele>
        <time>2020-04-22T07:51:03Z</time>
      </trkpt>
      <trkpt lat="37.14709" lon="-8.68914">
        <ele>66.95</ele>
        <time>2020-04-22T07:51:04Z</time>
      </trkpt>
      <trkpt lat="37.14713" lon="-8.68911">
        <ele>66.95</ele>
        <time>2020-04-22T07:51:05Z</time>
      </trkpt>
      <trkpt lat="37.14717" lon="-8.68909">
        <ele>66.95</ele>
        <time>2020-04-22T07:51:06Z</time>
      </trkpt>
      <trkpt lat="37.14722" lon="-8.68908">
        <ele>66.47</ele>
        <time>2020-04-22T07:51:07Z</time>
      </trkpt>
      <trkpt lat="37.14733" lon="-8.68908">
        <ele>66.47</ele>
        <time>2020-04-22T07:51:10Z</time>
      </trkpt>
      <trkpt lat="37.14737" lon="-8.6891">
        <ele>66.47</ele>
        <time>2020-04-22T07:51:11Z</time>
      </trkpt>
      <trkpt lat="37.14761" lon="-8.68923">
        <ele>65.51</ele>
        <time>2020-04-22T07:51:17Z</time>
      </trkpt>
      <trkpt lat="37.14785" lon="-8.68932">
        <ele>66.95</ele>
        <time>2020-04-22T07:51:23Z</time>
      </trkpt>
      <trkpt lat="37.14789" lon="-8.68934">
        <ele>66.95</ele>
        <time>2020-04-22T07:51:24Z</time>
      </trkpt>
      <trkpt lat="37.14793" lon="-8.68937">
        <ele>66.95</ele>
        <time>2020-04-22T07:51:25Z</time>
      </trkpt>
      <trkpt lat="37.14823" lon="-8.68966">
        <ele>66.95</ele>
        <time>2020-04-22T07:51:33Z</time>
      </trkpt>
      <trkpt lat="37.14854" lon="-8.69002">
        <ele>66.47</ele>
        <time>2020-04-22T07:51:43Z</time>
      </trkpt>
      <trkpt lat="37.14889" lon="-8.69038">
        <ele>66.95</ele>
        <time>2020-04-22T07:51:54Z</time>
      </trkpt>
      <trkpt lat="37.14908" lon="-8.69052">
        <ele>68.87</ele>
        <time>2020-04-22T07:52:00Z</time>
      </trkpt>
      <trkpt lat="37.14932" lon="-8.69061">
        <ele>70.31</ele>
        <time>2020-04-22T07:52:08Z</time>
      </trkpt>
      <trkpt lat="37.14936" lon="-8.69058">
        <ele>70.31</ele>
        <time>2020-04-22T07:52:09Z</time>
      </trkpt>
      <trkpt lat="37.14939" lon="-8.69055">
        <ele>70.31</ele>
        <time>2020-04-22T07:52:10Z</time>
      </trkpt>
      <trkpt lat="37.14941" lon="-8.69051">
        <ele>70.31</ele>
        <time>2020-04-22T07:52:11Z</time>
      </trkpt>
      <trkpt lat="37.14942" lon="-8.69047">
        <ele>70.31</ele>
        <time>2020-04-22T07:52:12Z</time>
      </trkpt>
      <trkpt lat="37.14944" lon="-8.69042">
        <ele>71.27</ele>
        <time>2020-04-22T07:52:13Z</time>
      </trkpt>
      <trkpt lat="37.14944" lon="-8.69039">
        <ele>71.27</ele>
        <time>2020-04-22T07:52:14Z</time>
      </trkpt>
      <trkpt lat="37.14944" lon="-8.69034">
        <ele>71.27</ele>
        <time>2020-04-22T07:52:15Z</time>
      </trkpt>
      <trkpt lat="37.14944" lon="-8.6903">
        <ele>71.76</ele>
        <time>2020-04-22T07:52:16Z</time>
      </trkpt>
      <trkpt lat="37.14944" lon="-8.69026">
        <ele>72.24</ele>
        <time>2020-04-22T07:52:17Z</time>
      </trkpt>
      <trkpt lat="37.14948" lon="-8.68992">
        <ele>72.72</ele>
        <time>2020-04-22T07:52:24Z</time>
      </trkpt>
      <trkpt lat="37.1495" lon="-8.6898">
        <ele>71.27</ele>
        <time>2020-04-22T07:52:26Z</time>
      </trkpt>
      <trkpt lat="37.14954" lon="-8.6896">
        <ele>69.35</ele>
        <time>2020-04-22T07:52:29Z</time>
      </trkpt>
      <trkpt lat="37.14957" lon="-8.68932">
        <ele>67.43</ele>
        <time>2020-04-22T07:52:33Z</time>
      </trkpt>
      <trkpt lat="37.14958" lon="-8.68926">
        <ele>66.95</ele>
        <time>2020-04-22T07:52:34Z</time>
      </trkpt>
      <trkpt lat="37.1496" lon="-8.68917">
        <ele>66.95</ele>
        <time>2020-04-22T07:52:36Z</time>
      </trkpt>
      <trkpt lat="37.14964" lon="-8.68916">
        <ele>65.99</ele>
        <time>2020-04-22T07:52:37Z</time>
      </trkpt>
      <trkpt lat="37.14967" lon="-8.68918">
        <ele>65.51</ele>
        <time>2020-04-22T07:52:38Z</time>
      </trkpt>
      <trkpt lat="37.1497" lon="-8.68921">
        <ele>64.55</ele>
        <time>2020-04-22T07:52:39Z</time>
      </trkpt>
      <trkpt lat="37.14973" lon="-8.68925">
        <ele>64.07</ele>
        <time>2020-04-22T07:52:40Z</time>
      </trkpt>
      <trkpt lat="37.14976" lon="-8.68929">
        <ele>63.58</ele>
        <time>2020-04-22T07:52:41Z</time>
      </trkpt>
      <trkpt lat="37.14981" lon="-8.68933">
        <ele>62.62</ele>
        <time>2020-04-22T07:52:42Z</time>
      </trkpt>
      <trkpt lat="37.14985" lon="-8.68937">
        <ele>62.14</ele>
        <time>2020-04-22T07:52:43Z</time>
      </trkpt>
      <trkpt lat="37.14989" lon="-8.68942">
        <ele>61.18</ele>
        <time>2020-04-22T07:52:44Z</time>
      </trkpt>
      <trkpt lat="37.14994" lon="-8.68947">
        <ele>60.22</ele>
        <time>2020-04-22T07:52:45Z</time>
      </trkpt>
      <trkpt lat="37.15012" lon="-8.68968">
        <ele>56.86</ele>
        <time>2020-04-22T07:52:49Z</time>
      </trkpt>
      <trkpt lat="37.15026" lon="-8.68984">
        <ele>53.49</ele>
        <time>2020-04-22T07:52:52Z</time>
      </trkpt>
      <trkpt lat="37.15036" lon="-8.68995">
        <ele>52.53</ele>
        <time>2020-04-22T07:52:54Z</time>
      </trkpt>
      <trkpt lat="37.15041" lon="-8.69002">
        <ele>52.05</ele>
        <time>2020-04-22T07:52:55Z</time>
      </trkpt>
      <trkpt lat="37.15046" lon="-8.69009">
        <ele>51.57</ele>
        <time>2020-04-22T07:52:56Z</time>
      </trkpt>
      <trkpt lat="37.15051" lon="-8.69015">
        <ele>51.57</ele>
        <time>2020-04-22T07:52:57Z</time>
      </trkpt>
      <trkpt lat="37.15056" lon="-8.69021">
        <ele>51.57</ele>
        <time>2020-04-22T07:52:58Z</time>
      </trkpt>
      <trkpt lat="37.15061" lon="-8.69027">
        <ele>52.05</ele>
        <time>2020-04-22T07:52:59Z</time>
      </trkpt>
      <trkpt lat="37.1508" lon="-8.69049">
        <ele>51.57</ele>
        <time>2020-04-22T07:53:04Z</time>
      </trkpt>
      <trkpt lat="37.15084" lon="-8.69052">
        <ele>51.57</ele>
        <time>2020-04-22T07:53:05Z</time>
      </trkpt>
      <trkpt lat="37.15108" lon="-8.69073">
        <ele>51.57</ele>
        <time>2020-04-22T07:53:12Z</time>
      </trkpt>
      <trkpt lat="37.15117" lon="-8.69081">
        <ele>51.09</ele>
        <time>2020-04-22T07:53:14Z</time>
      </trkpt>
      <trkpt lat="37.15146" lon="-8.69109">
        <ele>50.61</ele>
        <time>2020-04-22T07:53:22Z</time>
      </trkpt>
      <trkpt lat="37.15149" lon="-8.69112">
        <ele>50.61</ele>
        <time>2020-04-22T07:53:23Z</time>
      </trkpt>
      <trkpt lat="37.15152" lon="-8.69116">
        <ele>50.61</ele>
        <time>2020-04-22T07:53:24Z</time>
      </trkpt>
      <trkpt lat="37.15174" lon="-8.6915">
        <ele>50.61</ele>
        <time>2020-04-22T07:53:32Z</time>
      </trkpt>
      <trkpt lat="37.15177" lon="-8.69151">
        <ele>50.61</ele>
        <time>2020-04-22T07:53:33Z</time>
      </trkpt>
      <trkpt lat="37.15181" lon="-8.69152">
        <ele>50.61</ele>
        <time>2020-04-22T07:53:34Z</time>
      </trkpt>
      <trkpt lat="37.15184" lon="-8.69154">
        <ele>50.61</ele>
        <time>2020-04-22T07:53:35Z</time>
      </trkpt>
      <trkpt lat="37.15188" lon="-8.69157">
        <ele>50.61</ele>
        <time>2020-04-22T07:53:36Z</time>
      </trkpt>
      <trkpt lat="37.15191" lon="-8.6916">
        <ele>50.61</ele>
        <time>2020-04-22T07:53:37Z</time>
      </trkpt>
      <trkpt lat="37.15198" lon="-8.69166">
        <ele>50.61</ele>
        <time>2020-04-22T07:53:39Z</time>
      </trkpt>
      <trkpt lat="37.15202" lon="-8.69168">
        <ele>50.61</ele>
        <time>2020-04-22T07:53:40Z</time>
      </trkpt>
      <trkpt lat="37.15206" lon="-8.6917">
        <ele>50.61</ele>
        <time>2020-04-22T07:53:41Z</time>
      </trkpt>
      <trkpt lat="37.1521" lon="-8.69171">
        <ele>50.61</ele>
        <time>2020-04-22T07:53:42Z</time>
      </trkpt>
      <trkpt lat="37.15214" lon="-8.69173">
        <ele>50.61</ele>
        <time>2020-04-22T07:53:43Z</time>
      </trkpt>
      <trkpt lat="37.15219" lon="-8.69174">
        <ele>50.61</ele>
        <time>2020-04-22T07:53:44Z</time>
      </trkpt>
      <trkpt lat="37.15231" lon="-8.6918">
        <ele>51.57</ele>
        <time>2020-04-22T07:53:47Z</time>
      </trkpt>
      <trkpt lat="37.15234" lon="-8.69182">
        <ele>51.57</ele>
        <time>2020-04-22T07:53:48Z</time>
      </trkpt>
      <trkpt lat="37.1526" lon="-8.69202">
        <ele>52.05</ele>
        <time>2020-04-22T07:53:55Z</time>
      </trkpt>
      <trkpt lat="37.15295" lon="-8.69234">
        <ele>52.53</ele>
        <time>2020-04-22T07:54:05Z</time>
      </trkpt>
      <trkpt lat="37.15335" lon="-8.69267">
        <ele>53.49</ele>
        <time>2020-04-22T07:54:16Z</time>
      </trkpt>
      <trkpt lat="37.15374" lon="-8.693">
        <ele>53.49</ele>
        <time>2020-04-22T07:54:27Z</time>
      </trkpt>
      <trkpt lat="37.15384" lon="-8.6931">
        <ele>53.97</ele>
        <time>2020-04-22T07:54:30Z</time>
      </trkpt>
      <trkpt lat="37.15422" lon="-8.69333">
        <ele>54.93</ele>
        <time>2020-04-22T07:54:40Z</time>
      </trkpt>
      <trkpt lat="37.15442" lon="-8.69337">
        <ele>55.89</ele>
        <time>2020-04-22T07:54:45Z</time>
      </trkpt>
      <trkpt lat="37.15462" lon="-8.69342">
        <ele>57.82</ele>
        <time>2020-04-22T07:54:50Z</time>
      </trkpt>
      <trkpt lat="37.15466" lon="-8.69344">
        <ele>57.82</ele>
        <time>2020-04-22T07:54:51Z</time>
      </trkpt>
      <trkpt lat="37.15469" lon="-8.69347">
        <ele>57.82</ele>
        <time>2020-04-22T07:54:52Z</time>
      </trkpt>
      <trkpt lat="37.15494" lon="-8.69375">
        <ele>57.82</ele>
        <time>2020-04-22T07:55:00Z</time>
      </trkpt>
      <trkpt lat="37.15499" lon="-8.69377">
        <ele>57.82</ele>
        <time>2020-04-22T07:55:01Z</time>
      </trkpt>
      <trkpt lat="37.15503" lon="-8.69378">
        <ele>57.82</ele>
        <time>2020-04-22T07:55:02Z</time>
      </trkpt>
      <trkpt lat="37.15508" lon="-8.69378">
        <ele>57.82</ele>
        <time>2020-04-22T07:55:03Z</time>
      </trkpt>
      <trkpt lat="37.15513" lon="-8.69377">
        <ele>57.82</ele>
        <time>2020-04-22T07:55:04Z</time>
      </trkpt>
      <trkpt lat="37.15518" lon="-8.69376">
        <ele>57.82</ele>
        <time>2020-04-22T07:55:05Z</time>
      </trkpt>
      <trkpt lat="37.15552" lon="-8.69374">
        <ele>57.82</ele>
        <time>2020-04-22T07:55:12Z</time>
      </trkpt>
      <trkpt lat="37.15582" lon="-8.6938">
        <ele>57.82</ele>
        <time>2020-04-22T07:55:19Z</time>
      </trkpt>
      <trkpt lat="37.15586" lon="-8.69382">
        <ele>57.82</ele>
        <time>2020-04-22T07:55:20Z</time>
      </trkpt>
      <trkpt lat="37.15628" lon="-8.69396">
        <ele>58.3</ele>
        <time>2020-04-22T07:55:30Z</time>
      </trkpt>
      <trkpt lat="37.1564" lon="-8.69398">
        <ele>58.3</ele>
        <time>2020-04-22T07:55:33Z</time>
      </trkpt>
      <trkpt lat="37.15681" lon="-8.69408">
        <ele>58.3</ele>
        <time>2020-04-22T07:55:43Z</time>
      </trkpt>
      <trkpt lat="37.15695" lon="-8.69416">
        <ele>58.78</ele>
        <time>2020-04-22T07:55:50Z</time>
      </trkpt>
      <trkpt lat="37.15697" lon="-8.69416">
        <ele>58.78</ele>
        <time>2020-04-22T07:55:51Z</time>
      </trkpt>
      <trkpt lat="37.15711" lon="-8.69417">
        <ele>58.78</ele>
        <time>2020-04-22T07:55:57Z</time>
      </trkpt>
      <trkpt lat="37.15734" lon="-8.69416">
        <ele>59.74</ele>
        <time>2020-04-22T07:56:04Z</time>
      </trkpt>
      <trkpt lat="37.15763" lon="-8.69428">
        <ele>59.74</ele>
        <time>2020-04-22T07:56:09Z</time>
      </trkpt>
      <trkpt lat="37.15777" lon="-8.69443">
        <ele>60.7</ele>
        <time>2020-04-22T07:56:14Z</time>
      </trkpt>
      <trkpt lat="37.1578" lon="-8.69447">
        <ele>60.7</ele>
        <time>2020-04-22T07:56:15Z</time>
      </trkpt>
      <trkpt lat="37.15784" lon="-8.6945">
        <ele>60.7</ele>
        <time>2020-04-22T07:56:16Z</time>
      </trkpt>
      <trkpt lat="37.15787" lon="-8.69453">
        <ele>60.7</ele>
        <time>2020-04-22T07:56:17Z</time>
      </trkpt>
      <trkpt lat="37.1579" lon="-8.69456">
        <ele>60.7</ele>
        <time>2020-04-22T07:56:18Z</time>
      </trkpt>
      <trkpt lat="37.15793" lon="-8.6946">
        <ele>60.7</ele>
        <time>2020-04-22T07:56:19Z</time>
      </trkpt>
      <trkpt lat="37.15818" lon="-8.69481">
        <ele>61.66</ele>
        <time>2020-04-22T07:56:27Z</time>
      </trkpt>
      <trkpt lat="37.15822" lon="-8.69485">
        <ele>61.66</ele>
        <time>2020-04-22T07:56:28Z</time>
      </trkpt>
      <trkpt lat="37.15855" lon="-8.69521">
        <ele>63.1</ele>
        <time>2020-04-22T07:56:39Z</time>
      </trkpt>
      <trkpt lat="37.15867" lon="-8.69533">
        <ele>63.1</ele>
        <time>2020-04-22T07:56:43Z</time>
      </trkpt>
      <trkpt lat="37.1587" lon="-8.69537">
        <ele>63.1</ele>
        <time>2020-04-22T07:56:44Z</time>
      </trkpt>
      <trkpt lat="37.15873" lon="-8.6954">
        <ele>63.1</ele>
        <time>2020-04-22T07:56:45Z</time>
      </trkpt>
      <trkpt lat="37.15912" lon="-8.69577">
        <ele>64.07</ele>
        <time>2020-04-22T07:56:57Z</time>
      </trkpt>
      <trkpt lat="37.15922" lon="-8.69586">
        <ele>64.55</ele>
        <time>2020-04-22T07:57:00Z</time>
      </trkpt>
      <trkpt lat="37.15925" lon="-8.69589">
        <ele>64.55</ele>
        <time>2020-04-22T07:57:01Z</time>
      </trkpt>
      <trkpt lat="37.15954" lon="-8.69624">
        <ele>65.03</ele>
        <time>2020-04-22T07:57:11Z</time>
      </trkpt>
      <trkpt lat="37.1597" lon="-8.69652">
        <ele>65.99</ele>
        <time>2020-04-22T07:57:18Z</time>
      </trkpt>
      <trkpt lat="37.15972" lon="-8.69656">
        <ele>65.99</ele>
        <time>2020-04-22T07:57:19Z</time>
      </trkpt>
      <trkpt lat="37.15973" lon="-8.69662">
        <ele>65.99</ele>
        <time>2020-04-22T07:57:20Z</time>
      </trkpt>
      <trkpt lat="37.15981" lon="-8.6971">
        <ele>66.47</ele>
        <time>2020-04-22T07:57:30Z</time>
      </trkpt>
      <trkpt lat="37.15981" lon="-8.6972">
        <ele>67.43</ele>
        <time>2020-04-22T07:57:32Z</time>
      </trkpt>
      <trkpt lat="37.15977" lon="-8.6976">
        <ele>68.87</ele>
        <time>2020-04-22T07:57:40Z</time>
      </trkpt>
      <trkpt lat="37.15967" lon="-8.69797">
        <ele>69.83</ele>
        <time>2020-04-22T07:57:48Z</time>
      </trkpt>
      <trkpt lat="37.15955" lon="-8.69832">
        <ele>70.79</ele>
        <time>2020-04-22T07:57:56Z</time>
      </trkpt>
      <trkpt lat="37.15951" lon="-8.69856">
        <ele>70.79</ele>
        <time>2020-04-22T07:58:01Z</time>
      </trkpt>
      <trkpt lat="37.1595" lon="-8.69862">
        <ele>70.79</ele>
        <time>2020-04-22T07:58:02Z</time>
      </trkpt>
      <trkpt lat="37.15951" lon="-8.69911">
        <ele>70.79</ele>
        <time>2020-04-22T07:58:11Z</time>
      </trkpt>
      <trkpt lat="37.15951" lon="-8.69916">
        <ele>71.27</ele>
        <time>2020-04-22T07:58:12Z</time>
      </trkpt>
      <trkpt lat="37.15952" lon="-8.69921">
        <ele>71.27</ele>
        <time>2020-04-22T07:58:13Z</time>
      </trkpt>
      <trkpt lat="37.15953" lon="-8.69927">
        <ele>71.27</ele>
        <time>2020-04-22T07:58:14Z</time>
      </trkpt>
      <trkpt lat="37.15955" lon="-8.69932">
        <ele>71.27</ele>
        <time>2020-04-22T07:58:15Z</time>
      </trkpt>
      <trkpt lat="37.15956" lon="-8.69937">
        <ele>71.27</ele>
        <time>2020-04-22T07:58:16Z</time>
      </trkpt>
      <trkpt lat="37.15975" lon="-8.6997">
        <ele>71.76</ele>
        <time>2020-04-22T07:58:24Z</time>
      </trkpt>
      <trkpt lat="37.15997" lon="-8.70003">
        <ele>73.2</ele>
        <time>2020-04-22T07:58:33Z</time>
      </trkpt>
      <trkpt lat="37.16016" lon="-8.70032">
        <ele>74.64</ele>
        <time>2020-04-22T07:58:42Z</time>
      </trkpt>
      <trkpt lat="37.16023" lon="-8.70054">
        <ele>76.56</ele>
        <time>2020-04-22T07:58:48Z</time>
      </trkpt>
      <trkpt lat="37.16027" lon="-8.70068">
        <ele>78.48</ele>
        <time>2020-04-22T07:58:52Z</time>
      </trkpt>
      <trkpt lat="37.16026" lon="-8.70071">
        <ele>78.97</ele>
        <time>2020-04-22T07:58:53Z</time>
      </trkpt>
      <trkpt lat="37.16024" lon="-8.70074">
        <ele>78.97</ele>
        <time>2020-04-22T07:58:54Z</time>
      </trkpt>
      <trkpt lat="37.16017" lon="-8.70093">
        <ele>82.33</ele>
        <time>2020-04-22T07:59:00Z</time>
      </trkpt>
      <trkpt lat="37.16017" lon="-8.70096">
        <ele>82.33</ele>
        <time>2020-04-22T07:59:01Z</time>
      </trkpt>
      <trkpt lat="37.16022" lon="-8.70127">
        <ele>84.25</ele>
        <time>2020-04-22T07:59:10Z</time>
      </trkpt>
      <trkpt lat="37.16032" lon="-8.70148">
        <ele>84.25</ele>
        <time>2020-04-22T07:59:16Z</time>
      </trkpt>
      <trkpt lat="37.16063" lon="-8.70182">
        <ele>84.73</ele>
        <time>2020-04-22T07:59:27Z</time>
      </trkpt>
      <trkpt lat="37.16095" lon="-8.7022">
        <ele>85.69</ele>
        <time>2020-04-22T07:59:39Z</time>
      </trkpt>
      <trkpt lat="37.16129" lon="-8.70259">
        <ele>86.18</ele>
        <time>2020-04-22T07:59:51Z</time>
      </trkpt>
      <trkpt lat="37.16156" lon="-8.70299">
        <ele>86.18</ele>
        <time>2020-04-22T08:00:01Z</time>
      </trkpt>
      <trkpt lat="37.16177" lon="-8.7035">
        <ele>84.73</ele>
        <time>2020-04-22T08:00:11Z</time>
      </trkpt>
      <trkpt lat="37.16192" lon="-8.70411">
        <ele>83.29</ele>
        <time>2020-04-22T08:00:21Z</time>
      </trkpt>
      <trkpt lat="37.16204" lon="-8.70444">
        <ele>82.33</ele>
        <time>2020-04-22T08:00:26Z</time>
      </trkpt>
      <trkpt lat="37.16209" lon="-8.7045">
        <ele>82.33</ele>
        <time>2020-04-22T08:00:27Z</time>
      </trkpt>
      <trkpt lat="37.16212" lon="-8.70453">
        <ele>82.33</ele>
        <time>2020-04-22T08:00:28Z</time>
      </trkpt>
      <trkpt lat="37.16216" lon="-8.70457">
        <ele>82.33</ele>
        <time>2020-04-22T08:00:29Z</time>
      </trkpt>
      <trkpt lat="37.1622" lon="-8.7046">
        <ele>82.33</ele>
        <time>2020-04-22T08:00:30Z</time>
      </trkpt>
      <trkpt lat="37.16237" lon="-8.70476">
        <ele>83.29</ele>
        <time>2020-04-22T08:00:35Z</time>
      </trkpt>
      <trkpt lat="37.1627" lon="-8.70505">
        <ele>87.14</ele>
        <time>2020-04-22T08:00:45Z</time>
      </trkpt>
      <trkpt lat="37.16299" lon="-8.70535">
        <ele>89.06</ele>
        <time>2020-04-22T08:00:55Z</time>
      </trkpt>
      <trkpt lat="37.16306" lon="-8.70541">
        <ele>89.06</ele>
        <time>2020-04-22T08:00:57Z</time>
      </trkpt>
      <trkpt lat="37.16337" lon="-8.70569">
        <ele>89.54</ele>
        <time>2020-04-22T08:01:06Z</time>
      </trkpt>
      <trkpt lat="37.16368" lon="-8.70598">
        <ele>86.66</ele>
        <time>2020-04-22T08:01:14Z</time>
      </trkpt>
      <trkpt lat="37.16391" lon="-8.7062">
        <ele>82.81</ele>
        <time>2020-04-22T08:01:18Z</time>
      </trkpt>
      <trkpt lat="37.16398" lon="-8.70624">
        <ele>81.85</ele>
        <time>2020-04-22T08:01:19Z</time>
      </trkpt>
      <trkpt lat="37.16406" lon="-8.70628">
        <ele>81.85</ele>
        <time>2020-04-22T08:01:20Z</time>
      </trkpt>
      <trkpt lat="37.16415" lon="-8.70631">
        <ele>80.41</ele>
        <time>2020-04-22T08:01:21Z</time>
      </trkpt>
      <trkpt lat="37.16424" lon="-8.70632">
        <ele>79.45</ele>
        <time>2020-04-22T08:01:22Z</time>
      </trkpt>
      <trkpt lat="37.16433" lon="-8.70632">
        <ele>78</ele>
        <time>2020-04-22T08:01:23Z</time>
      </trkpt>
      <trkpt lat="37.16462" lon="-8.70631">
        <ele>74.64</ele>
        <time>2020-04-22T08:01:26Z</time>
      </trkpt>
      <trkpt lat="37.1649" lon="-8.7063">
        <ele>70.79</ele>
        <time>2020-04-22T08:01:29Z</time>
      </trkpt>
      <trkpt lat="37.16514" lon="-8.70633">
        <ele>67.43</ele>
        <time>2020-04-22T08:01:32Z</time>
      </trkpt>
      <trkpt lat="37.16522" lon="-8.70636">
        <ele>66.47</ele>
        <time>2020-04-22T08:01:33Z</time>
      </trkpt>
      <trkpt lat="37.16542" lon="-8.70644">
        <ele>64.55</ele>
        <time>2020-04-22T08:01:37Z</time>
      </trkpt>
      <trkpt lat="37.16547" lon="-8.70647">
        <ele>64.55</ele>
        <time>2020-04-22T08:01:39Z</time>
      </trkpt>
      <trkpt lat="37.16549" lon="-8.70652">
        <ele>64.55</ele>
        <time>2020-04-22T08:01:40Z</time>
      </trkpt>
      <trkpt lat="37.16549" lon="-8.70656">
        <ele>63.58</ele>
        <time>2020-04-22T08:01:41Z</time>
      </trkpt>
      <trkpt lat="37.16549" lon="-8.70661">
        <ele>63.58</ele>
        <time>2020-04-22T08:01:42Z</time>
      </trkpt>
      <trkpt lat="37.16547" lon="-8.70667">
        <ele>63.58</ele>
        <time>2020-04-22T08:01:43Z</time>
      </trkpt>
      <trkpt lat="37.16544" lon="-8.70672">
        <ele>63.1</ele>
        <time>2020-04-22T08:01:44Z</time>
      </trkpt>
      <trkpt lat="37.16541" lon="-8.70676">
        <ele>63.1</ele>
        <time>2020-04-22T08:01:45Z</time>
      </trkpt>
      <trkpt lat="37.16536" lon="-8.7068">
        <ele>63.1</ele>
        <time>2020-04-22T08:01:46Z</time>
      </trkpt>
      <trkpt lat="37.16532" lon="-8.70684">
        <ele>62.62</ele>
        <time>2020-04-22T08:01:47Z</time>
      </trkpt>
      <trkpt lat="37.16516" lon="-8.70699">
        <ele>62.62</ele>
        <time>2020-04-22T08:01:51Z</time>
      </trkpt>
      <trkpt lat="37.16512" lon="-8.70703">
        <ele>62.14</ele>
        <time>2020-04-22T08:01:52Z</time>
      </trkpt>
      <trkpt lat="37.16497" lon="-8.70725">
        <ele>60.7</ele>
        <time>2020-04-22T08:01:56Z</time>
      </trkpt>
      <trkpt lat="37.16494" lon="-8.70732">
        <ele>60.22</ele>
        <time>2020-04-22T08:01:57Z</time>
      </trkpt>
      <trkpt lat="37.16491" lon="-8.7074">
        <ele>59.74</ele>
        <time>2020-04-22T08:01:58Z</time>
      </trkpt>
      <trkpt lat="37.16485" lon="-8.70757">
        <ele>58.3</ele>
        <time>2020-04-22T08:02:00Z</time>
      </trkpt>
      <trkpt lat="37.1648" lon="-8.70765">
        <ele>57.34</ele>
        <time>2020-04-22T08:02:01Z</time>
      </trkpt>
      <trkpt lat="37.16469" lon="-8.7078">
        <ele>56.37</ele>
        <time>2020-04-22T08:02:03Z</time>
      </trkpt>
      <trkpt lat="37.16462" lon="-8.70787">
        <ele>55.89</ele>
        <time>2020-04-22T08:02:04Z</time>
      </trkpt>
      <trkpt lat="37.16456" lon="-8.70795">
        <ele>54.93</ele>
        <time>2020-04-22T08:02:05Z</time>
      </trkpt>
      <trkpt lat="37.1645" lon="-8.70802">
        <ele>53.97</ele>
        <time>2020-04-22T08:02:06Z</time>
      </trkpt>
      <trkpt lat="37.16444" lon="-8.70811">
        <ele>53.97</ele>
        <time>2020-04-22T08:02:07Z</time>
      </trkpt>
      <trkpt lat="37.16412" lon="-8.70862">
        <ele>51.09</ele>
        <time>2020-04-22T08:02:13Z</time>
      </trkpt>
      <trkpt lat="37.16406" lon="-8.70869">
        <ele>50.61</ele>
        <time>2020-04-22T08:02:14Z</time>
      </trkpt>
      <trkpt lat="37.16361" lon="-8.70928">
        <ele>48.2</ele>
        <time>2020-04-22T08:02:22Z</time>
      </trkpt>
      <trkpt lat="37.16356" lon="-8.70937">
        <ele>47.72</ele>
        <time>2020-04-22T08:02:23Z</time>
      </trkpt>
      <trkpt lat="37.16341" lon="-8.70962">
        <ele>45.8</ele>
        <time>2020-04-22T08:02:26Z</time>
      </trkpt>
      <trkpt lat="37.16335" lon="-8.70969">
        <ele>45.8</ele>
        <time>2020-04-22T08:02:27Z</time>
      </trkpt>
      <trkpt lat="37.16295" lon="-8.71012">
        <ele>42.44</ele>
        <time>2020-04-22T08:02:33Z</time>
      </trkpt>
      <trkpt lat="37.16276" lon="-8.71037">
        <ele>41.47</ele>
        <time>2020-04-22T08:02:36Z</time>
      </trkpt>
      <trkpt lat="37.16253" lon="-8.71087">
        <ele>39.07</ele>
        <time>2020-04-22T08:02:41Z</time>
      </trkpt>
      <trkpt lat="37.16227" lon="-8.71161">
        <ele>36.19</ele>
        <time>2020-04-22T08:02:48Z</time>
      </trkpt>
      <trkpt lat="37.16196" lon="-8.71226">
        <ele>33.78</ele>
        <time>2020-04-22T08:02:55Z</time>
      </trkpt>
      <trkpt lat="37.16179" lon="-8.71258">
        <ele>33.3</ele>
        <time>2020-04-22T08:02:59Z</time>
      </trkpt>
      <trkpt lat="37.16174" lon="-8.71265">
        <ele>33.3</ele>
        <time>2020-04-22T08:03:00Z</time>
      </trkpt>
      <trkpt lat="37.16169" lon="-8.71271">
        <ele>33.3</ele>
        <time>2020-04-22T08:03:01Z</time>
      </trkpt>
      <trkpt lat="37.16129" lon="-8.71306">
        <ele>32.82</ele>
        <time>2020-04-22T08:03:08Z</time>
      </trkpt>
      <trkpt lat="37.16094" lon="-8.71333">
        <ele>32.34</ele>
        <time>2020-04-22T08:03:15Z</time>
      </trkpt>
      <trkpt lat="37.16089" lon="-8.71337">
        <ele>32.34</ele>
        <time>2020-04-22T08:03:16Z</time>
      </trkpt>
      <trkpt lat="37.16085" lon="-8.7134">
        <ele>32.34</ele>
        <time>2020-04-22T08:03:17Z</time>
      </trkpt>
      <trkpt lat="37.1608" lon="-8.71343">
        <ele>32.34</ele>
        <time>2020-04-22T08:03:18Z</time>
      </trkpt>
      <trkpt lat="37.16075" lon="-8.71346">
        <ele>32.34</ele>
        <time>2020-04-22T08:03:19Z</time>
      </trkpt>
      <trkpt lat="37.16071" lon="-8.7135">
        <ele>31.86</ele>
        <time>2020-04-22T08:03:20Z</time>
      </trkpt>
      <trkpt lat="37.16067" lon="-8.71354">
        <ele>31.86</ele>
        <time>2020-04-22T08:03:21Z</time>
      </trkpt>
      <trkpt lat="37.16064" lon="-8.71357">
        <ele>31.86</ele>
        <time>2020-04-22T08:03:22Z</time>
      </trkpt>
      <trkpt lat="37.16062" lon="-8.71361">
        <ele>31.38</ele>
        <time>2020-04-22T08:03:23Z</time>
      </trkpt>
      <trkpt lat="37.1606" lon="-8.71364">
        <ele>31.38</ele>
        <time>2020-04-22T08:03:24Z</time>
      </trkpt>
      <trkpt lat="37.16058" lon="-8.71367">
        <ele>30.9</ele>
        <time>2020-04-22T08:03:25Z</time>
      </trkpt>
      <trkpt lat="37.16054" lon="-8.71381">
        <ele>29.46</ele>
        <time>2020-04-22T08:03:32Z</time>
      </trkpt>
      <trkpt lat="37.16052" lon="-8.71385">
        <ele>29.46</ele>
        <time>2020-04-22T08:03:34Z</time>
      </trkpt>
      <trkpt lat="37.16051" lon="-8.71387">
        <ele>29.46</ele>
        <time>2020-04-22T08:03:35Z</time>
      </trkpt>
      <trkpt lat="37.1605" lon="-8.71388">
        <ele>29.46</ele>
        <time>2020-04-22T08:03:36Z</time>
      </trkpt>
      <trkpt lat="37.16048" lon="-8.7139">
        <ele>29.46</ele>
        <time>2020-04-22T08:03:37Z</time>
      </trkpt>
      <trkpt lat="37.16046" lon="-8.71392">
        <ele>29.46</ele>
        <time>2020-04-22T08:03:38Z</time>
      </trkpt>
      <trkpt lat="37.16043" lon="-8.71393">
        <ele>29.46</ele>
        <time>2020-04-22T08:03:39Z</time>
      </trkpt>
      <trkpt lat="37.16039" lon="-8.71394">
        <ele>29.46</ele>
        <time>2020-04-22T08:03:40Z</time>
      </trkpt>
      <trkpt lat="37.16036" lon="-8.71395">
        <ele>29.94</ele>
        <time>2020-04-22T08:03:41Z</time>
      </trkpt>
      <trkpt lat="37.16033" lon="-8.71397">
        <ele>29.94</ele>
        <time>2020-04-22T08:03:42Z</time>
      </trkpt>
      <trkpt lat="37.16031" lon="-8.71399">
        <ele>29.94</ele>
        <time>2020-04-22T08:03:43Z</time>
      </trkpt>
      <trkpt lat="37.16029" lon="-8.71402">
        <ele>29.94</ele>
        <time>2020-04-22T08:03:44Z</time>
      </trkpt>
      <trkpt lat="37.16019" lon="-8.71421">
        <ele>29.94</ele>
        <time>2020-04-22T08:03:50Z</time>
      </trkpt>
      <trkpt lat="37.16021" lon="-8.71424">
        <ele>30.9</ele>
        <time>2020-04-22T08:03:51Z</time>
      </trkpt>
      <trkpt lat="37.16023" lon="-8.71425">
        <ele>30.9</ele>
        <time>2020-04-22T08:03:52Z</time>
      </trkpt>
      <trkpt lat="37.16026" lon="-8.71423">
        <ele>30.9</ele>
        <time>2020-04-22T08:03:53Z</time>
      </trkpt>
      <trkpt lat="37.16028" lon="-8.7142">
        <ele>30.9</ele>
        <time>2020-04-22T08:03:54Z</time>
      </trkpt>
      <trkpt lat="37.1603" lon="-8.71416">
        <ele>31.38</ele>
        <time>2020-04-22T08:03:55Z</time>
      </trkpt>
      <trkpt lat="37.16033" lon="-8.71413">
        <ele>31.38</ele>
        <time>2020-04-22T08:03:56Z</time>
      </trkpt>
      <trkpt lat="37.16035" lon="-8.7141">
        <ele>31.38</ele>
        <time>2020-04-22T08:03:57Z</time>
      </trkpt>
      <trkpt lat="37.16038" lon="-8.71408">
        <ele>31.38</ele>
        <time>2020-04-22T08:03:58Z</time>
      </trkpt>
      <trkpt lat="37.16041" lon="-8.71405">
        <ele>31.38</ele>
        <time>2020-04-22T08:03:59Z</time>
      </trkpt>
      <trkpt lat="37.16045" lon="-8.71403">
        <ele>31.38</ele>
        <time>2020-04-22T08:04:00Z</time>
      </trkpt>
      <trkpt lat="37.16048" lon="-8.71401">
        <ele>31.38</ele>
        <time>2020-04-22T08:04:01Z</time>
      </trkpt>
      <trkpt lat="37.16079" lon="-8.71394">
        <ele>31.86</ele>
        <time>2020-04-22T08:04:09Z</time>
      </trkpt>
      <trkpt lat="37.16086" lon="-8.71395">
        <ele>32.34</ele>
        <time>2020-04-22T08:04:11Z</time>
      </trkpt>
      <trkpt lat="37.1609" lon="-8.71397">
        <ele>32.34</ele>
        <time>2020-04-22T08:04:12Z</time>
      </trkpt>
      <trkpt lat="37.16118" lon="-8.71406">
        <ele>33.3</ele>
        <time>2020-04-22T08:04:20Z</time>
      </trkpt>
      <trkpt lat="37.16151" lon="-8.71412">
        <ele>32.82</ele>
        <time>2020-04-22T08:04:29Z</time>
      </trkpt>
      <trkpt lat="37.16174" lon="-8.71422">
        <ele>32.82</ele>
        <time>2020-04-22T08:04:35Z</time>
      </trkpt>
      <trkpt lat="37.16182" lon="-8.71425">
        <ele>32.82</ele>
        <time>2020-04-22T08:04:37Z</time>
      </trkpt>
      <trkpt lat="37.16213" lon="-8.7143">
        <ele>32.82</ele>
        <time>2020-04-22T08:04:44Z</time>
      </trkpt>
      <trkpt lat="37.16217" lon="-8.71429">
        <ele>32.82</ele>
        <time>2020-04-22T08:04:45Z</time>
      </trkpt>
      <trkpt lat="37.16222" lon="-8.71428">
        <ele>32.82</ele>
        <time>2020-04-22T08:04:46Z</time>
      </trkpt>
      <trkpt lat="37.16226" lon="-8.71427">
        <ele>32.82</ele>
        <time>2020-04-22T08:04:47Z</time>
      </trkpt>
      <trkpt lat="37.16231" lon="-8.71425">
        <ele>32.82</ele>
        <time>2020-04-22T08:04:48Z</time>
      </trkpt>
      <trkpt lat="37.16256" lon="-8.71415">
        <ele>32.82</ele>
        <time>2020-04-22T08:04:54Z</time>
      </trkpt>
      <trkpt lat="37.1626" lon="-8.71414">
        <ele>32.82</ele>
        <time>2020-04-22T08:04:55Z</time>
      </trkpt>
      <trkpt lat="37.16283" lon="-8.71413">
        <ele>32.82</ele>
        <time>2020-04-22T08:05:00Z</time>
      </trkpt>
      <trkpt lat="37.16321" lon="-8.71404">
        <ele>33.78</ele>
        <time>2020-04-22T08:05:09Z</time>
      </trkpt>
      <trkpt lat="37.16358" lon="-8.71387">
        <ele>34.26</ele>
        <time>2020-04-22T08:05:18Z</time>
      </trkpt>
      <trkpt lat="37.16367" lon="-8.71383">
        <ele>34.26</ele>
        <time>2020-04-22T08:05:20Z</time>
      </trkpt>
      <trkpt lat="37.16375" lon="-8.71379">
        <ele>34.26</ele>
        <time>2020-04-22T08:05:22Z</time>
      </trkpt>
      <trkpt lat="37.16409" lon="-8.7137">
        <ele>34.74</ele>
        <time>2020-04-22T08:05:30Z</time>
      </trkpt>
      <trkpt lat="37.16418" lon="-8.71369">
        <ele>34.74</ele>
        <time>2020-04-22T08:05:32Z</time>
      </trkpt>
      <trkpt lat="37.16422" lon="-8.71369">
        <ele>34.74</ele>
        <time>2020-04-22T08:05:33Z</time>
      </trkpt>
      <trkpt lat="37.16431" lon="-8.71367">
        <ele>34.74</ele>
        <time>2020-04-22T08:05:35Z</time>
      </trkpt>
      <trkpt lat="37.16435" lon="-8.71365">
        <ele>34.26</ele>
        <time>2020-04-22T08:05:36Z</time>
      </trkpt>
      <trkpt lat="37.16438" lon="-8.71363">
        <ele>34.74</ele>
        <time>2020-04-22T08:05:37Z</time>
      </trkpt>
      <trkpt lat="37.16442" lon="-8.7136">
        <ele>34.26</ele>
        <time>2020-04-22T08:05:38Z</time>
      </trkpt>
      <trkpt lat="37.16446" lon="-8.71358">
        <ele>34.26</ele>
        <time>2020-04-22T08:05:39Z</time>
      </trkpt>
      <trkpt lat="37.16488" lon="-8.71347">
        <ele>35.23</ele>
        <time>2020-04-22T08:05:49Z</time>
      </trkpt>
      <trkpt lat="37.16528" lon="-8.71346">
        <ele>35.23</ele>
        <time>2020-04-22T08:05:58Z</time>
      </trkpt>
      <trkpt lat="37.16533" lon="-8.71346">
        <ele>35.71</ele>
        <time>2020-04-22T08:05:59Z</time>
      </trkpt>
      <trkpt lat="37.16554" lon="-8.71348">
        <ele>35.71</ele>
        <time>2020-04-22T08:06:04Z</time>
      </trkpt>
      <trkpt lat="37.16567" lon="-8.71349">
        <ele>35.71</ele>
        <time>2020-04-22T08:06:07Z</time>
      </trkpt>
      <trkpt lat="37.16575" lon="-8.71348">
        <ele>35.71</ele>
        <time>2020-04-22T08:06:09Z</time>
      </trkpt>
      <trkpt lat="37.16579" lon="-8.71348">
        <ele>35.71</ele>
        <time>2020-04-22T08:06:10Z</time>
      </trkpt>
      <trkpt lat="37.16619" lon="-8.71348">
        <ele>36.19</ele>
        <time>2020-04-22T08:06:19Z</time>
      </trkpt>
      <trkpt lat="37.16649" lon="-8.71354">
        <ele>36.67</ele>
        <time>2020-04-22T08:06:26Z</time>
      </trkpt>
      <trkpt lat="37.16652" lon="-8.71357">
        <ele>36.67</ele>
        <time>2020-04-22T08:06:27Z</time>
      </trkpt>
      <trkpt lat="37.1666" lon="-8.71362">
        <ele>36.67</ele>
        <time>2020-04-22T08:06:29Z</time>
      </trkpt>
      <trkpt lat="37.16665" lon="-8.71364">
        <ele>36.67</ele>
        <time>2020-04-22T08:06:30Z</time>
      </trkpt>
      <trkpt lat="37.16669" lon="-8.71365">
        <ele>36.67</ele>
        <time>2020-04-22T08:06:31Z</time>
      </trkpt>
      <trkpt lat="37.16706" lon="-8.71381">
        <ele>36.67</ele>
        <time>2020-04-22T08:06:40Z</time>
      </trkpt>
      <trkpt lat="37.16747" lon="-8.714">
        <ele>36.67</ele>
        <time>2020-04-22T08:06:50Z</time>
      </trkpt>
      <trkpt lat="37.16766" lon="-8.71412">
        <ele>36.67</ele>
        <time>2020-04-22T08:06:55Z</time>
      </trkpt>
      <trkpt lat="37.1677" lon="-8.71413">
        <ele>37.15</ele>
        <time>2020-04-22T08:06:56Z</time>
      </trkpt>
      <trkpt lat="37.16775" lon="-8.71414">
        <ele>36.67</ele>
        <time>2020-04-22T08:06:57Z</time>
      </trkpt>
      <trkpt lat="37.16779" lon="-8.71416">
        <ele>36.67</ele>
        <time>2020-04-22T08:06:58Z</time>
      </trkpt>
      <trkpt lat="37.16782" lon="-8.71419">
        <ele>36.67</ele>
        <time>2020-04-22T08:06:59Z</time>
      </trkpt>
      <trkpt lat="37.16786" lon="-8.71421">
        <ele>36.67</ele>
        <time>2020-04-22T08:07:00Z</time>
      </trkpt>
      <trkpt lat="37.16802" lon="-8.71431">
        <ele>37.15</ele>
        <time>2020-04-22T08:07:04Z</time>
      </trkpt>
      <trkpt lat="37.16837" lon="-8.71464">
        <ele>38.11</ele>
        <time>2020-04-22T08:07:14Z</time>
      </trkpt>
      <trkpt lat="37.1688" lon="-8.715">
        <ele>38.11</ele>
        <time>2020-04-22T08:07:26Z</time>
      </trkpt>
      <trkpt lat="37.16903" lon="-8.71517">
        <ele>38.59</ele>
        <time>2020-04-22T08:07:32Z</time>
      </trkpt>
      <trkpt lat="37.16906" lon="-8.71521">
        <ele>38.59</ele>
        <time>2020-04-22T08:07:33Z</time>
      </trkpt>
      <trkpt lat="37.16908" lon="-8.71525">
        <ele>38.59</ele>
        <time>2020-04-22T08:07:34Z</time>
      </trkpt>
      <trkpt lat="37.16923" lon="-8.7155">
        <ele>37.15</ele>
        <time>2020-04-22T08:07:40Z</time>
      </trkpt>
      <trkpt lat="37.16931" lon="-8.71561">
        <ele>37.15</ele>
        <time>2020-04-22T08:07:43Z</time>
      </trkpt>
      <trkpt lat="37.16945" lon="-8.71586">
        <ele>38.59</ele>
        <time>2020-04-22T08:07:49Z</time>
      </trkpt>
      <trkpt lat="37.16948" lon="-8.7159">
        <ele>38.59</ele>
        <time>2020-04-22T08:07:50Z</time>
      </trkpt>
      <trkpt lat="37.16981" lon="-8.71625">
        <ele>38.11</ele>
        <time>2020-04-22T08:08:00Z</time>
      </trkpt>
      <trkpt lat="37.16991" lon="-8.71635">
        <ele>37.15</ele>
        <time>2020-04-22T08:08:03Z</time>
      </trkpt>
      <trkpt lat="37.16995" lon="-8.71638">
        <ele>37.15</ele>
        <time>2020-04-22T08:08:04Z</time>
      </trkpt>
      <trkpt lat="37.17024" lon="-8.71659">
        <ele>37.15</ele>
        <time>2020-04-22T08:08:12Z</time>
      </trkpt>
      <trkpt lat="37.17026" lon="-8.71663">
        <ele>37.15</ele>
        <time>2020-04-22T08:08:13Z</time>
      </trkpt>
      <trkpt lat="37.17028" lon="-8.71669">
        <ele>37.15</ele>
        <time>2020-04-22T08:08:14Z</time>
      </trkpt>
      <trkpt lat="37.17029" lon="-8.71674">
        <ele>37.15</ele>
        <time>2020-04-22T08:08:15Z</time>
      </trkpt>
      <trkpt lat="37.17029" lon="-8.71679">
        <ele>37.15</ele>
        <time>2020-04-22T08:08:16Z</time>
      </trkpt>
      <trkpt lat="37.17029" lon="-8.71684">
        <ele>38.59</ele>
        <time>2020-04-22T08:08:17Z</time>
      </trkpt>
      <trkpt lat="37.17029" lon="-8.71688">
        <ele>39.07</ele>
        <time>2020-04-22T08:08:18Z</time>
      </trkpt>
      <trkpt lat="37.17028" lon="-8.71692">
        <ele>39.55</ele>
        <time>2020-04-22T08:08:19Z</time>
      </trkpt>
      <trkpt lat="37.1703" lon="-8.71723">
        <ele>40.51</ele>
        <time>2020-04-22T08:08:26Z</time>
      </trkpt>
      <trkpt lat="37.17032" lon="-8.71727">
        <ele>40.51</ele>
        <time>2020-04-22T08:08:27Z</time>
      </trkpt>
      <trkpt lat="37.17034" lon="-8.71731">
        <ele>40.51</ele>
        <time>2020-04-22T08:08:28Z</time>
      </trkpt>
      <trkpt lat="37.17051" lon="-8.71761">
        <ele>40.51</ele>
        <time>2020-04-22T08:08:35Z</time>
      </trkpt>
      <trkpt lat="37.17055" lon="-8.71771">
        <ele>40.99</ele>
        <time>2020-04-22T08:08:37Z</time>
      </trkpt>
      <trkpt lat="37.17056" lon="-8.71776">
        <ele>40.99</ele>
        <time>2020-04-22T08:08:38Z</time>
      </trkpt>
      <trkpt lat="37.17057" lon="-8.71781">
        <ele>41.47</ele>
        <time>2020-04-22T08:08:39Z</time>
      </trkpt>
      <trkpt lat="37.17059" lon="-8.71797">
        <ele>41.47</ele>
        <time>2020-04-22T08:08:42Z</time>
      </trkpt>
      <trkpt lat="37.1706" lon="-8.71802">
        <ele>41.47</ele>
        <time>2020-04-22T08:08:43Z</time>
      </trkpt>
      <trkpt lat="37.17062" lon="-8.71808">
        <ele>41.47</ele>
        <time>2020-04-22T08:08:44Z</time>
      </trkpt>
      <trkpt lat="37.17064" lon="-8.71813">
        <ele>41.47</ele>
        <time>2020-04-22T08:08:45Z</time>
      </trkpt>
      <trkpt lat="37.17066" lon="-8.71817">
        <ele>41.47</ele>
        <time>2020-04-22T08:08:46Z</time>
      </trkpt>
      <trkpt lat="37.17069" lon="-8.71821">
        <ele>41.47</ele>
        <time>2020-04-22T08:08:47Z</time>
      </trkpt>
      <trkpt lat="37.17073" lon="-8.71825">
        <ele>41.47</ele>
        <time>2020-04-22T08:08:48Z</time>
      </trkpt>
      <trkpt lat="37.17076" lon="-8.71827">
        <ele>41.47</ele>
        <time>2020-04-22T08:08:49Z</time>
      </trkpt>
      <trkpt lat="37.1708" lon="-8.7183">
        <ele>41.47</ele>
        <time>2020-04-22T08:08:50Z</time>
      </trkpt>
      <trkpt lat="37.17084" lon="-8.71832">
        <ele>41.47</ele>
        <time>2020-04-22T08:08:51Z</time>
      </trkpt>
      <trkpt lat="37.17104" lon="-8.71842">
        <ele>41.47</ele>
        <time>2020-04-22T08:08:56Z</time>
      </trkpt>
      <trkpt lat="37.17114" lon="-8.7185">
        <ele>41.95</ele>
        <time>2020-04-22T08:08:59Z</time>
      </trkpt>
      <trkpt lat="37.17118" lon="-8.71853">
        <ele>41.95</ele>
        <time>2020-04-22T08:09:00Z</time>
      </trkpt>
      <trkpt lat="37.17122" lon="-8.71856">
        <ele>41.95</ele>
        <time>2020-04-22T08:09:01Z</time>
      </trkpt>
      <trkpt lat="37.17148" lon="-8.71874">
        <ele>42.44</ele>
        <time>2020-04-22T08:09:08Z</time>
      </trkpt>
      <trkpt lat="37.17151" lon="-8.71877">
        <ele>42.44</ele>
        <time>2020-04-22T08:09:09Z</time>
      </trkpt>
      <trkpt lat="37.17158" lon="-8.71882">
        <ele>42.44</ele>
        <time>2020-04-22T08:09:11Z</time>
      </trkpt>
      <trkpt lat="37.17174" lon="-8.7189">
        <ele>42.44</ele>
        <time>2020-04-22T08:09:15Z</time>
      </trkpt>
      <trkpt lat="37.17178" lon="-8.71893">
        <ele>42.44</ele>
        <time>2020-04-22T08:09:16Z</time>
      </trkpt>
      <trkpt lat="37.17181" lon="-8.71896">
        <ele>42.44</ele>
        <time>2020-04-22T08:09:17Z</time>
      </trkpt>
      <trkpt lat="37.17218" lon="-8.71925">
        <ele>42.92</ele>
        <time>2020-04-22T08:09:27Z</time>
      </trkpt>
      <trkpt lat="37.17229" lon="-8.71934">
        <ele>42.92</ele>
        <time>2020-04-22T08:09:30Z</time>
      </trkpt>
      <trkpt lat="37.17232" lon="-8.71937">
        <ele>42.92</ele>
        <time>2020-04-22T08:09:31Z</time>
      </trkpt>
      <trkpt lat="37.17248" lon="-8.71957">
        <ele>42.92</ele>
        <time>2020-04-22T08:09:36Z</time>
      </trkpt>
      <trkpt lat="37.17277" lon="-8.71979">
        <ele>44.36</ele>
        <time>2020-04-22T08:09:44Z</time>
      </trkpt>
      <trkpt lat="37.1728" lon="-8.71982">
        <ele>44.36</ele>
        <time>2020-04-22T08:09:45Z</time>
      </trkpt>
      <trkpt lat="37.17283" lon="-8.71986">
        <ele>44.36</ele>
        <time>2020-04-22T08:09:46Z</time>
      </trkpt>
      <trkpt lat="37.1731" lon="-8.72024">
        <ele>44.36</ele>
        <time>2020-04-22T08:09:55Z</time>
      </trkpt>
      <trkpt lat="37.17325" lon="-8.72046">
        <ele>43.88</ele>
        <time>2020-04-22T08:10:00Z</time>
      </trkpt>
      <trkpt lat="37.17334" lon="-8.72057">
        <ele>43.88</ele>
        <time>2020-04-22T08:10:03Z</time>
      </trkpt>
      <trkpt lat="37.17337" lon="-8.72061">
        <ele>43.88</ele>
        <time>2020-04-22T08:10:04Z</time>
      </trkpt>
      <trkpt lat="37.17348" lon="-8.7207">
        <ele>43.88</ele>
        <time>2020-04-22T08:10:07Z</time>
      </trkpt>
      <trkpt lat="37.17352" lon="-8.72073">
        <ele>43.88</ele>
        <time>2020-04-22T08:10:08Z</time>
      </trkpt>
      <trkpt lat="37.17388" lon="-8.72094">
        <ele>43.88</ele>
        <time>2020-04-22T08:10:17Z</time>
      </trkpt>
      <trkpt lat="37.17392" lon="-8.72095">
        <ele>43.88</ele>
        <time>2020-04-22T08:10:18Z</time>
      </trkpt>
      <trkpt lat="37.17396" lon="-8.72097">
        <ele>43.88</ele>
        <time>2020-04-22T08:10:19Z</time>
      </trkpt>
      <trkpt lat="37.174" lon="-8.721">
        <ele>43.88</ele>
        <time>2020-04-22T08:10:20Z</time>
      </trkpt>
      <trkpt lat="37.17403" lon="-8.72104">
        <ele>43.88</ele>
        <time>2020-04-22T08:10:21Z</time>
      </trkpt>
      <trkpt lat="37.17406" lon="-8.72108">
        <ele>43.88</ele>
        <time>2020-04-22T08:10:22Z</time>
      </trkpt>
      <trkpt lat="37.17409" lon="-8.72112">
        <ele>43.88</ele>
        <time>2020-04-22T08:10:23Z</time>
      </trkpt>
      <trkpt lat="37.17412" lon="-8.72117">
        <ele>43.88</ele>
        <time>2020-04-22T08:10:24Z</time>
      </trkpt>
      <trkpt lat="37.17415" lon="-8.72122">
        <ele>43.88</ele>
        <time>2020-04-22T08:10:25Z</time>
      </trkpt>
      <trkpt lat="37.17452" lon="-8.7217">
        <ele>43.88</ele>
        <time>2020-04-22T08:10:37Z</time>
      </trkpt>
      <trkpt lat="37.17472" lon="-8.72192">
        <ele>43.88</ele>
        <time>2020-04-22T08:10:43Z</time>
      </trkpt>
      <trkpt lat="37.17475" lon="-8.72196">
        <ele>43.88</ele>
        <time>2020-04-22T08:10:44Z</time>
      </trkpt>
      <trkpt lat="37.17481" lon="-8.72211">
        <ele>44.36</ele>
        <time>2020-04-22T08:10:47Z</time>
      </trkpt>
      <trkpt lat="37.17495" lon="-8.72246">
        <ele>44.36</ele>
        <time>2020-04-22T08:10:54Z</time>
      </trkpt>
      <trkpt lat="37.175" lon="-8.72275">
        <ele>44.36</ele>
        <time>2020-04-22T08:11:01Z</time>
      </trkpt>
      <trkpt lat="37.17505" lon="-8.72296">
        <ele>44.36</ele>
        <time>2020-04-22T08:11:10Z</time>
      </trkpt>
      <trkpt lat="37.1751" lon="-8.72315">
        <ele>44.36</ele>
        <time>2020-04-22T08:11:17Z</time>
      </trkpt>
      <trkpt lat="37.17524" lon="-8.72334">
        <ele>44.36</ele>
        <time>2020-04-22T08:11:23Z</time>
      </trkpt>
      <trkpt lat="37.17555" lon="-8.7236">
        <ele>44.36</ele>
        <time>2020-04-22T08:11:33Z</time>
      </trkpt>
      <trkpt lat="37.17588" lon="-8.72378">
        <ele>44.84</ele>
        <time>2020-04-22T08:11:43Z</time>
      </trkpt>
      <trkpt lat="37.17612" lon="-8.72392">
        <ele>44.84</ele>
        <time>2020-04-22T08:11:50Z</time>
      </trkpt>
      <trkpt lat="37.17615" lon="-8.72395">
        <ele>44.84</ele>
        <time>2020-04-22T08:11:51Z</time>
      </trkpt>
      <trkpt lat="37.17617" lon="-8.72399">
        <ele>44.84</ele>
        <time>2020-04-22T08:11:52Z</time>
      </trkpt>
      <trkpt lat="37.17643" lon="-8.72428">
        <ele>44.84</ele>
        <time>2020-04-22T08:12:01Z</time>
      </trkpt>
      <trkpt lat="37.17678" lon="-8.7246">
        <ele>45.32</ele>
        <time>2020-04-22T08:12:12Z</time>
      </trkpt>
      <trkpt lat="37.17703" lon="-8.72466">
        <ele>45.32</ele>
        <time>2020-04-22T08:12:19Z</time>
      </trkpt>
      <trkpt lat="37.17729" lon="-8.72472">
        <ele>45.32</ele>
        <time>2020-04-22T08:12:27Z</time>
      </trkpt>
      <trkpt lat="37.17739" lon="-8.7247">
        <ele>43.88</ele>
        <time>2020-04-22T08:12:31Z</time>
      </trkpt>
      <trkpt lat="37.17755" lon="-8.72469">
        <ele>43.4</ele>
        <time>2020-04-22T08:12:38Z</time>
      </trkpt>
      <trkpt lat="37.17765" lon="-8.72476">
        <ele>44.36</ele>
        <time>2020-04-22T08:12:42Z</time>
      </trkpt>
      <trkpt lat="37.1779" lon="-8.72508">
        <ele>44.84</ele>
        <time>2020-04-22T08:12:52Z</time>
      </trkpt>
      <trkpt lat="37.17819" lon="-8.72537">
        <ele>46.28</ele>
        <time>2020-04-22T08:13:02Z</time>
      </trkpt>
      <trkpt lat="37.17845" lon="-8.72565">
        <ele>46.28</ele>
        <time>2020-04-22T08:13:11Z</time>
      </trkpt>
      <trkpt lat="37.17877" lon="-8.72606">
        <ele>46.28</ele>
        <time>2020-04-22T08:13:22Z</time>
      </trkpt>
      <trkpt lat="37.17896" lon="-8.72619">
        <ele>46.76</ele>
        <time>2020-04-22T08:13:27Z</time>
      </trkpt>
      <trkpt lat="37.17942" lon="-8.72631">
        <ele>46.76</ele>
        <time>2020-04-22T08:13:38Z</time>
      </trkpt>
      <trkpt lat="37.17974" lon="-8.72643">
        <ele>48.2</ele>
        <time>2020-04-22T08:13:47Z</time>
      </trkpt>
      <trkpt lat="37.17992" lon="-8.72653">
        <ele>48.68</ele>
        <time>2020-04-22T08:13:54Z</time>
      </trkpt>
      <trkpt lat="37.18014" lon="-8.72674">
        <ele>49.16</ele>
        <time>2020-04-22T08:14:01Z</time>
      </trkpt>
      <trkpt lat="37.18046" lon="-8.72698">
        <ele>49.16</ele>
        <time>2020-04-22T08:14:10Z</time>
      </trkpt>
      <trkpt lat="37.1807" lon="-8.72715">
        <ele>49.16</ele>
        <time>2020-04-22T08:14:17Z</time>
      </trkpt>
      <trkpt lat="37.18101" lon="-8.72725">
        <ele>49.16</ele>
        <time>2020-04-22T08:14:25Z</time>
      </trkpt>
      <trkpt lat="37.1814" lon="-8.72733">
        <ele>49.16</ele>
        <time>2020-04-22T08:14:35Z</time>
      </trkpt>
      <trkpt lat="37.18178" lon="-8.72743">
        <ele>51.09</ele>
        <time>2020-04-22T08:14:45Z</time>
      </trkpt>
      <trkpt lat="37.18198" lon="-8.72756">
        <ele>51.09</ele>
        <time>2020-04-22T08:14:51Z</time>
      </trkpt>
      <trkpt lat="37.18224" lon="-8.72792">
        <ele>51.09</ele>
        <time>2020-04-22T08:15:00Z</time>
      </trkpt>
      <trkpt lat="37.18249" lon="-8.72826">
        <ele>52.05</ele>
        <time>2020-04-22T08:15:09Z</time>
      </trkpt>
      <trkpt lat="37.18284" lon="-8.72846">
        <ele>52.05</ele>
        <time>2020-04-22T08:15:18Z</time>
      </trkpt>
      <trkpt lat="37.183" lon="-8.72852">
        <ele>52.05</ele>
        <time>2020-04-22T08:15:22Z</time>
      </trkpt>
      <trkpt lat="37.18304" lon="-8.72852">
        <ele>52.53</ele>
        <time>2020-04-22T08:15:23Z</time>
      </trkpt>
      <trkpt lat="37.18342" lon="-8.72847">
        <ele>52.53</ele>
        <time>2020-04-22T08:15:32Z</time>
      </trkpt>
      <trkpt lat="37.18351" lon="-8.72844">
        <ele>52.53</ele>
        <time>2020-04-22T08:15:34Z</time>
      </trkpt>
      <trkpt lat="37.18355" lon="-8.72843">
        <ele>52.53</ele>
        <time>2020-04-22T08:15:35Z</time>
      </trkpt>
      <trkpt lat="37.1836" lon="-8.72841">
        <ele>52.53</ele>
        <time>2020-04-22T08:15:36Z</time>
      </trkpt>
      <trkpt lat="37.18385" lon="-8.72832">
        <ele>52.53</ele>
        <time>2020-04-22T08:15:42Z</time>
      </trkpt>
      <trkpt lat="37.18408" lon="-8.72819">
        <ele>52.53</ele>
        <time>2020-04-22T08:15:49Z</time>
      </trkpt>
      <trkpt lat="37.1841" lon="-8.72819">
        <ele>52.53</ele>
        <time>2020-04-22T08:15:50Z</time>
      </trkpt>
      <trkpt lat="37.18412" lon="-8.7282">
        <ele>52.53</ele>
        <time>2020-04-22T08:15:51Z</time>
      </trkpt>
      <trkpt lat="37.18414" lon="-8.7282">
        <ele>51.09</ele>
        <time>2020-04-22T08:15:52Z</time>
      </trkpt>
      <trkpt lat="37.18417" lon="-8.7282">
        <ele>51.09</ele>
        <time>2020-04-22T08:15:53Z</time>
      </trkpt>
      <trkpt lat="37.18419" lon="-8.72819">
        <ele>51.09</ele>
        <time>2020-04-22T08:15:54Z</time>
      </trkpt>
      <trkpt lat="37.18421" lon="-8.72817">
        <ele>51.09</ele>
        <time>2020-04-22T08:15:55Z</time>
      </trkpt>
      <trkpt lat="37.18424" lon="-8.72815">
        <ele>51.09</ele>
        <time>2020-04-22T08:15:56Z</time>
      </trkpt>
      <trkpt lat="37.18441" lon="-8.72792">
        <ele>52.53</ele>
        <time>2020-04-22T08:16:03Z</time>
      </trkpt>
      <trkpt lat="37.18463" lon="-8.72766">
        <ele>53.01</ele>
        <time>2020-04-22T08:16:11Z</time>
      </trkpt>
      <trkpt lat="37.18491" lon="-8.72749">
        <ele>53.01</ele>
        <time>2020-04-22T08:16:19Z</time>
      </trkpt>
      <trkpt lat="37.18529" lon="-8.72741">
        <ele>53.97</ele>
        <time>2020-04-22T08:16:29Z</time>
      </trkpt>
      <trkpt lat="37.18559" lon="-8.72737">
        <ele>54.45</ele>
        <time>2020-04-22T08:16:37Z</time>
      </trkpt>
      <trkpt lat="37.18581" lon="-8.72736">
        <ele>54.93</ele>
        <time>2020-04-22T08:16:42Z</time>
      </trkpt>
      <trkpt lat="37.18585" lon="-8.72734">
        <ele>54.93</ele>
        <time>2020-04-22T08:16:43Z</time>
      </trkpt>
      <trkpt lat="37.1859" lon="-8.72732">
        <ele>54.93</ele>
        <time>2020-04-22T08:16:44Z</time>
      </trkpt>
      <trkpt lat="37.18594" lon="-8.7273">
        <ele>54.93</ele>
        <time>2020-04-22T08:16:45Z</time>
      </trkpt>
      <trkpt lat="37.18598" lon="-8.72727">
        <ele>54.93</ele>
        <time>2020-04-22T08:16:46Z</time>
      </trkpt>
      <trkpt lat="37.18631" lon="-8.72708">
        <ele>54.93</ele>
        <time>2020-04-22T08:16:54Z</time>
      </trkpt>
      <trkpt lat="37.18665" lon="-8.72693">
        <ele>54.93</ele>
        <time>2020-04-22T08:17:02Z</time>
      </trkpt>
      <trkpt lat="37.18708" lon="-8.72679">
        <ele>55.89</ele>
        <time>2020-04-22T08:17:12Z</time>
      </trkpt>
      <trkpt lat="37.18717" lon="-8.72678">
        <ele>55.89</ele>
        <time>2020-04-22T08:17:14Z</time>
      </trkpt>
      <trkpt lat="37.18766" lon="-8.72676">
        <ele>56.37</ele>
        <time>2020-04-22T08:17:25Z</time>
      </trkpt>
      <trkpt lat="37.1878" lon="-8.72676">
        <ele>56.86</ele>
        <time>2020-04-22T08:17:28Z</time>
      </trkpt>
      <trkpt lat="37.18785" lon="-8.72677">
        <ele>56.86</ele>
        <time>2020-04-22T08:17:29Z</time>
      </trkpt>
      <trkpt lat="37.18793" lon="-8.7268">
        <ele>56.86</ele>
        <time>2020-04-22T08:17:31Z</time>
      </trkpt>
      <trkpt lat="37.18798" lon="-8.72682">
        <ele>56.86</ele>
        <time>2020-04-22T08:17:32Z</time>
      </trkpt>
      <trkpt lat="37.18822" lon="-8.72695">
        <ele>57.34</ele>
        <time>2020-04-22T08:17:38Z</time>
      </trkpt>
      <trkpt lat="37.18867" lon="-8.72719">
        <ele>57.82</ele>
        <time>2020-04-22T08:17:49Z</time>
      </trkpt>
      <trkpt lat="37.18871" lon="-8.7272">
        <ele>58.3</ele>
        <time>2020-04-22T08:17:50Z</time>
      </trkpt>
      <trkpt lat="37.18887" lon="-8.72715">
        <ele>59.74</ele>
        <time>2020-04-22T08:17:55Z</time>
      </trkpt>
      <trkpt lat="37.18895" lon="-8.7269">
        <ele>59.74</ele>
        <time>2020-04-22T08:18:01Z</time>
      </trkpt>
      <trkpt lat="37.18905" lon="-8.72664">
        <ele>59.26</ele>
        <time>2020-04-22T08:18:07Z</time>
      </trkpt>
      <trkpt lat="37.1892" lon="-8.72641">
        <ele>59.26</ele>
        <time>2020-04-22T08:18:13Z</time>
      </trkpt>
      <trkpt lat="37.18924" lon="-8.72638">
        <ele>59.26</ele>
        <time>2020-04-22T08:18:14Z</time>
      </trkpt>
      <trkpt lat="37.18927" lon="-8.72636">
        <ele>59.26</ele>
        <time>2020-04-22T08:18:15Z</time>
      </trkpt>
      <trkpt lat="37.18931" lon="-8.72634">
        <ele>59.26</ele>
        <time>2020-04-22T08:18:16Z</time>
      </trkpt>
      <trkpt lat="37.18935" lon="-8.72632">
        <ele>59.26</ele>
        <time>2020-04-22T08:18:17Z</time>
      </trkpt>
      <trkpt lat="37.18939" lon="-8.72631">
        <ele>59.26</ele>
        <time>2020-04-22T08:18:18Z</time>
      </trkpt>
      <trkpt lat="37.18943" lon="-8.7263">
        <ele>60.22</ele>
        <time>2020-04-22T08:18:19Z</time>
      </trkpt>
      <trkpt lat="37.18947" lon="-8.72629">
        <ele>60.22</ele>
        <time>2020-04-22T08:18:20Z</time>
      </trkpt>
      <trkpt lat="37.18951" lon="-8.72629">
        <ele>60.22</ele>
        <time>2020-04-22T08:18:21Z</time>
      </trkpt>
      <trkpt lat="37.18955" lon="-8.72629">
        <ele>60.22</ele>
        <time>2020-04-22T08:18:22Z</time>
      </trkpt>
      <trkpt lat="37.18968" lon="-8.72632">
        <ele>60.22</ele>
        <time>2020-04-22T08:18:25Z</time>
      </trkpt>
      <trkpt lat="37.18996" lon="-8.72648">
        <ele>62.14</ele>
        <time>2020-04-22T08:18:33Z</time>
      </trkpt>
      <trkpt lat="37.19" lon="-8.7265">
        <ele>62.14</ele>
        <time>2020-04-22T08:18:34Z</time>
      </trkpt>
      <trkpt lat="37.19004" lon="-8.72652">
        <ele>62.14</ele>
        <time>2020-04-22T08:18:35Z</time>
      </trkpt>
      <trkpt lat="37.19013" lon="-8.72654">
        <ele>62.14</ele>
        <time>2020-04-22T08:18:37Z</time>
      </trkpt>
      <trkpt lat="37.19017" lon="-8.72656">
        <ele>62.14</ele>
        <time>2020-04-22T08:18:38Z</time>
      </trkpt>
      <trkpt lat="37.19021" lon="-8.72659">
        <ele>62.14</ele>
        <time>2020-04-22T08:18:39Z</time>
      </trkpt>
      <trkpt lat="37.19046" lon="-8.72681">
        <ele>62.14</ele>
        <time>2020-04-22T08:18:46Z</time>
      </trkpt>
      <trkpt lat="37.19073" lon="-8.7272">
        <ele>62.14</ele>
        <time>2020-04-22T08:18:56Z</time>
      </trkpt>
      <trkpt lat="37.19087" lon="-8.72752">
        <ele>64.55</ele>
        <time>2020-04-22T08:19:04Z</time>
      </trkpt>
      <trkpt lat="37.19099" lon="-8.72773">
        <ele>65.51</ele>
        <time>2020-04-22T08:19:10Z</time>
      </trkpt>
      <trkpt lat="37.19103" lon="-8.72776">
        <ele>65.51</ele>
        <time>2020-04-22T08:19:11Z</time>
      </trkpt>
      <trkpt lat="37.19108" lon="-8.72778">
        <ele>65.51</ele>
        <time>2020-04-22T08:19:12Z</time>
      </trkpt>
      <trkpt lat="37.19112" lon="-8.7278">
        <ele>65.51</ele>
        <time>2020-04-22T08:19:13Z</time>
      </trkpt>
      <trkpt lat="37.19116" lon="-8.72781">
        <ele>65.51</ele>
        <time>2020-04-22T08:19:14Z</time>
      </trkpt>
      <trkpt lat="37.1912" lon="-8.72783">
        <ele>65.51</ele>
        <time>2020-04-22T08:19:15Z</time>
      </trkpt>
      <trkpt lat="37.19144" lon="-8.72795">
        <ele>65.51</ele>
        <time>2020-04-22T08:19:22Z</time>
      </trkpt>
      <trkpt lat="37.19174" lon="-8.72801">
        <ele>65.51</ele>
        <time>2020-04-22T08:19:29Z</time>
      </trkpt>
      <trkpt lat="37.19201" lon="-8.72805">
        <ele>65.51</ele>
        <time>2020-04-22T08:19:36Z</time>
      </trkpt>
      <trkpt lat="37.19249" lon="-8.72811">
        <ele>65.51</ele>
        <time>2020-04-22T08:19:48Z</time>
      </trkpt>
      <trkpt lat="37.19286" lon="-8.72821">
        <ele>66.95</ele>
        <time>2020-04-22T08:19:58Z</time>
      </trkpt>
      <trkpt lat="37.19323" lon="-8.72834">
        <ele>66.95</ele>
        <time>2020-04-22T08:20:08Z</time>
      </trkpt>
      <trkpt lat="37.1936" lon="-8.72839">
        <ele>66.95</ele>
        <time>2020-04-22T08:20:17Z</time>
      </trkpt>
      <trkpt lat="37.19387" lon="-8.7284">
        <ele>66.95</ele>
        <time>2020-04-22T08:20:24Z</time>
      </trkpt>
      <trkpt lat="37.19417" lon="-8.72842">
        <ele>66.95</ele>
        <time>2020-04-22T08:20:31Z</time>
      </trkpt>
      <trkpt lat="37.19421" lon="-8.72841">
        <ele>66.95</ele>
        <time>2020-04-22T08:20:32Z</time>
      </trkpt>
      <trkpt lat="37.19451" lon="-8.72832">
        <ele>65.99</ele>
        <time>2020-04-22T08:20:39Z</time>
      </trkpt>
      <trkpt lat="37.19455" lon="-8.72832">
        <ele>65.99</ele>
        <time>2020-04-22T08:20:40Z</time>
      </trkpt>
      <trkpt lat="37.19494" lon="-8.72838">
        <ele>66.95</ele>
        <time>2020-04-22T08:20:50Z</time>
      </trkpt>
      <trkpt lat="37.19521" lon="-8.72855">
        <ele>67.91</ele>
        <time>2020-04-22T08:20:58Z</time>
      </trkpt>
      <trkpt lat="37.19545" lon="-8.72881">
        <ele>69.35</ele>
        <time>2020-04-22T08:21:07Z</time>
      </trkpt>
      <trkpt lat="37.19563" lon="-8.72894">
        <ele>67.43</ele>
        <time>2020-04-22T08:21:15Z</time>
      </trkpt>
      <trkpt lat="37.19569" lon="-8.72899">
        <ele>66.47</ele>
        <time>2020-04-22T08:21:21Z</time>
      </trkpt>
      <trkpt lat="37.19571" lon="-8.72899">
        <ele>66.47</ele>
        <time>2020-04-22T08:21:22Z</time>
      </trkpt>
      <trkpt lat="37.19572" lon="-8.72899">
        <ele>66.47</ele>
        <time>2020-04-22T08:21:23Z</time>
      </trkpt>
      <trkpt lat="37.19574" lon="-8.72899">
        <ele>66.47</ele>
        <time>2020-04-22T08:21:24Z</time>
      </trkpt>
      <trkpt lat="37.19576" lon="-8.729">
        <ele>66.47</ele>
        <time>2020-04-22T08:21:25Z</time>
      </trkpt>
      <trkpt lat="37.19578" lon="-8.72901">
        <ele>66.47</ele>
        <time>2020-04-22T08:21:26Z</time>
      </trkpt>
      <trkpt lat="37.1958" lon="-8.72902">
        <ele>66.47</ele>
        <time>2020-04-22T08:21:27Z</time>
      </trkpt>
      <trkpt lat="37.19601" lon="-8.72923">
        <ele>66.47</ele>
        <time>2020-04-22T08:21:36Z</time>
      </trkpt>
      <trkpt lat="37.19606" lon="-8.72929">
        <ele>67.91</ele>
        <time>2020-04-22T08:21:38Z</time>
      </trkpt>
      <trkpt lat="37.1963" lon="-8.72954">
        <ele>67.91</ele>
        <time>2020-04-22T08:21:47Z</time>
      </trkpt>
      <trkpt lat="37.19644" lon="-8.72976">
        <ele>68.39</ele>
        <time>2020-04-22T08:21:54Z</time>
      </trkpt>
      <trkpt lat="37.19665" lon="-8.73009">
        <ele>69.35</ele>
        <time>2020-04-22T08:22:04Z</time>
      </trkpt>
      <trkpt lat="37.19697" lon="-8.73051">
        <ele>70.31</ele>
        <time>2020-04-22T08:22:16Z</time>
      </trkpt>
      <trkpt lat="37.19738" lon="-8.73088">
        <ele>71.27</ele>
        <time>2020-04-22T08:22:29Z</time>
      </trkpt>
      <trkpt lat="37.19768" lon="-8.73107">
        <ele>72.72</ele>
        <time>2020-04-22T08:22:38Z</time>
      </trkpt>
      <trkpt lat="37.19782" lon="-8.73133">
        <ele>72.72</ele>
        <time>2020-04-22T08:22:45Z</time>
      </trkpt>
      <trkpt lat="37.19797" lon="-8.73175">
        <ele>72.72</ele>
        <time>2020-04-22T08:22:55Z</time>
      </trkpt>
      <trkpt lat="37.19813" lon="-8.73216">
        <ele>74.64</ele>
        <time>2020-04-22T08:23:05Z</time>
      </trkpt>
      <trkpt lat="37.1983" lon="-8.73259">
        <ele>75.6</ele>
        <time>2020-04-22T08:23:15Z</time>
      </trkpt>
      <trkpt lat="37.19849" lon="-8.73302">
        <ele>75.6</ele>
        <time>2020-04-22T08:23:25Z</time>
      </trkpt>
      <trkpt lat="37.19856" lon="-8.7332">
        <ele>75.6</ele>
        <time>2020-04-22T08:23:30Z</time>
      </trkpt>
      <trkpt lat="37.19878" lon="-8.73343">
        <ele>76.08</ele>
        <time>2020-04-22T08:23:38Z</time>
      </trkpt>
      <trkpt lat="37.19895" lon="-8.73357">
        <ele>76.56</ele>
        <time>2020-04-22T08:23:46Z</time>
      </trkpt>
      <trkpt lat="37.19915" lon="-8.7337">
        <ele>76.56</ele>
        <time>2020-04-22T08:23:53Z</time>
      </trkpt>
      <trkpt lat="37.19945" lon="-8.73395">
        <ele>78</ele>
        <time>2020-04-22T08:24:03Z</time>
      </trkpt>
      <trkpt lat="37.19983" lon="-8.73424">
        <ele>78.97</ele>
        <time>2020-04-22T08:24:15Z</time>
      </trkpt>
      <trkpt lat="37.20018" lon="-8.73452">
        <ele>79.93</ele>
        <time>2020-04-22T08:24:26Z</time>
      </trkpt>
      <trkpt lat="37.20051" lon="-8.73477">
        <ele>79.93</ele>
        <time>2020-04-22T08:24:36Z</time>
      </trkpt>
      <trkpt lat="37.20078" lon="-8.73502">
        <ele>79.93</ele>
        <time>2020-04-22T08:24:45Z</time>
      </trkpt>
      <trkpt lat="37.20106" lon="-8.73526">
        <ele>80.41</ele>
        <time>2020-04-22T08:24:54Z</time>
      </trkpt>
      <trkpt lat="37.20143" lon="-8.73561">
        <ele>81.85</ele>
        <time>2020-04-22T08:25:06Z</time>
      </trkpt>
      <trkpt lat="37.20174" lon="-8.7359">
        <ele>81.85</ele>
        <time>2020-04-22T08:25:16Z</time>
      </trkpt>
      <trkpt lat="37.20207" lon="-8.7361">
        <ele>81.85</ele>
        <time>2020-04-22T08:25:25Z</time>
      </trkpt>
      <trkpt lat="37.20232" lon="-8.7364">
        <ele>81.37</ele>
        <time>2020-04-22T08:25:34Z</time>
      </trkpt>
      <trkpt lat="37.20247" lon="-8.73674">
        <ele>81.37</ele>
        <time>2020-04-22T08:25:42Z</time>
      </trkpt>
      <trkpt lat="37.20274" lon="-8.73708">
        <ele>82.33</ele>
        <time>2020-04-22T08:25:52Z</time>
      </trkpt>
      <trkpt lat="37.20307" lon="-8.73731">
        <ele>83.77</ele>
        <time>2020-04-22T08:26:02Z</time>
      </trkpt>
      <trkpt lat="37.2034" lon="-8.73744">
        <ele>84.25</ele>
        <time>2020-04-22T08:26:11Z</time>
      </trkpt>
      <trkpt lat="37.20365" lon="-8.73746">
        <ele>84.73</ele>
        <time>2020-04-22T08:26:19Z</time>
      </trkpt>
      <trkpt lat="37.20383" lon="-8.73739">
        <ele>84.73</ele>
        <time>2020-04-22T08:26:25Z</time>
      </trkpt>
      <trkpt lat="37.20415" lon="-8.73731">
        <ele>84.73</ele>
        <time>2020-04-22T08:26:34Z</time>
      </trkpt>
      <trkpt lat="37.20445" lon="-8.73738">
        <ele>85.21</ele>
        <time>2020-04-22T08:26:42Z</time>
      </trkpt>
      <trkpt lat="37.20466" lon="-8.73758">
        <ele>85.21</ele>
        <time>2020-04-22T08:26:49Z</time>
      </trkpt>
      <trkpt lat="37.20471" lon="-8.73788">
        <ele>85.21</ele>
        <time>2020-04-22T08:26:55Z</time>
      </trkpt>
      <trkpt lat="37.20475" lon="-8.73827">
        <ele>88.1</ele>
        <time>2020-04-22T08:27:04Z</time>
      </trkpt>
      <trkpt lat="37.20487" lon="-8.73846">
        <ele>90.98</ele>
        <time>2020-04-22T08:27:12Z</time>
      </trkpt>
      <trkpt lat="37.20501" lon="-8.73857">
        <ele>93.87</ele>
        <time>2020-04-22T08:27:19Z</time>
      </trkpt>
      <trkpt lat="37.20507" lon="-8.7386">
        <ele>95.31</ele>
        <time>2020-04-22T08:27:22Z</time>
      </trkpt>
      <trkpt lat="37.20515" lon="-8.73875">
        <ele>97.23</ele>
        <time>2020-04-22T08:27:29Z</time>
      </trkpt>
      <trkpt lat="37.20518" lon="-8.73892">
        <ele>100.11</ele>
        <time>2020-04-22T08:27:35Z</time>
      </trkpt>
      <trkpt lat="37.20524" lon="-8.73913">
        <ele>102.52</ele>
        <time>2020-04-22T08:27:43Z</time>
      </trkpt>
      <trkpt lat="37.20533" lon="-8.73933">
        <ele>105.4</ele>
        <time>2020-04-22T08:27:51Z</time>
      </trkpt>
      <trkpt lat="37.20546" lon="-8.73957">
        <ele>108.77</ele>
        <time>2020-04-22T08:28:01Z</time>
      </trkpt>
      <trkpt lat="37.20554" lon="-8.73967">
        <ele>110.21</ele>
        <time>2020-04-22T08:28:06Z</time>
      </trkpt>
      <trkpt lat="37.2057" lon="-8.73981">
        <ele>113.09</ele>
        <time>2020-04-22T08:28:15Z</time>
      </trkpt>
      <trkpt lat="37.20588" lon="-8.73996">
        <ele>116.46</ele>
        <time>2020-04-22T08:28:25Z</time>
      </trkpt>
      <trkpt lat="37.20605" lon="-8.7401">
        <ele>118.86</ele>
        <time>2020-04-22T08:28:34Z</time>
      </trkpt>
      <trkpt lat="37.20625" lon="-8.74025">
        <ele>121.74</ele>
        <time>2020-04-22T08:28:44Z</time>
      </trkpt>
      <trkpt lat="37.20648" lon="-8.74043">
        <ele>125.11</ele>
        <time>2020-04-22T08:28:56Z</time>
      </trkpt>
      <trkpt lat="37.20671" lon="-8.74056">
        <ele>127.51</ele>
        <time>2020-04-22T08:29:07Z</time>
      </trkpt>
      <trkpt lat="37.20695" lon="-8.74066">
        <ele>129.43</ele>
        <time>2020-04-22T08:29:18Z</time>
      </trkpt>
      <trkpt lat="37.20726" lon="-8.74076">
        <ele>132.32</ele>
        <time>2020-04-22T08:29:31Z</time>
      </trkpt>
      <trkpt lat="37.20755" lon="-8.74095">
        <ele>133.28</ele>
        <time>2020-04-22T08:29:43Z</time>
      </trkpt>
      <trkpt lat="37.20783" lon="-8.74126">
        <ele>135.68</ele>
        <time>2020-04-22T08:29:55Z</time>
      </trkpt>
      <trkpt lat="37.2081" lon="-8.74167">
        <ele>137.61</ele>
        <time>2020-04-22T08:30:08Z</time>
      </trkpt>
      <trkpt lat="37.20834" lon="-8.74195">
        <ele>138.57</ele>
        <time>2020-04-22T08:30:18Z</time>
      </trkpt>
      <trkpt lat="37.2086" lon="-8.74226">
        <ele>139.05</ele>
        <time>2020-04-22T08:30:28Z</time>
      </trkpt>
      <trkpt lat="37.20886" lon="-8.7426">
        <ele>139.05</ele>
        <time>2020-04-22T08:30:37Z</time>
      </trkpt>
      <trkpt lat="37.20896" lon="-8.74271">
        <ele>139.05</ele>
        <time>2020-04-22T08:30:40Z</time>
      </trkpt>
      <trkpt lat="37.2091" lon="-8.74285">
        <ele>137.61</ele>
        <time>2020-04-22T08:30:44Z</time>
      </trkpt>
      <trkpt lat="37.20927" lon="-8.74304">
        <ele>136.64</ele>
        <time>2020-04-22T08:30:49Z</time>
      </trkpt>
      <trkpt lat="37.2093" lon="-8.74309">
        <ele>136.64</ele>
        <time>2020-04-22T08:30:50Z</time>
      </trkpt>
      <trkpt lat="37.20932" lon="-8.74314">
        <ele>136.16</ele>
        <time>2020-04-22T08:30:51Z</time>
      </trkpt>
      <trkpt lat="37.20934" lon="-8.7432">
        <ele>136.16</ele>
        <time>2020-04-22T08:30:52Z</time>
      </trkpt>
      <trkpt lat="37.20935" lon="-8.74326">
        <ele>136.16</ele>
        <time>2020-04-22T08:30:53Z</time>
      </trkpt>
      <trkpt lat="37.20944" lon="-8.74363">
        <ele>135.2</ele>
        <time>2020-04-22T08:30:59Z</time>
      </trkpt>
      <trkpt lat="37.20945" lon="-8.74369">
        <ele>135.2</ele>
        <time>2020-04-22T08:31:00Z</time>
      </trkpt>
      <trkpt lat="37.20946" lon="-8.74382">
        <ele>134.72</ele>
        <time>2020-04-22T08:31:02Z</time>
      </trkpt>
      <trkpt lat="37.20949" lon="-8.74388">
        <ele>134.24</ele>
        <time>2020-04-22T08:31:03Z</time>
      </trkpt>
      <trkpt lat="37.20953" lon="-8.74392">
        <ele>134.24</ele>
        <time>2020-04-22T08:31:04Z</time>
      </trkpt>
      <trkpt lat="37.20957" lon="-8.74394">
        <ele>134.24</ele>
        <time>2020-04-22T08:31:05Z</time>
      </trkpt>
      <trkpt lat="37.2096" lon="-8.74394">
        <ele>134.24</ele>
        <time>2020-04-22T08:31:06Z</time>
      </trkpt>
      <trkpt lat="37.20964" lon="-8.74394">
        <ele>135.68</ele>
        <time>2020-04-22T08:31:07Z</time>
      </trkpt>
      <trkpt lat="37.20967" lon="-8.74392">
        <ele>136.16</ele>
        <time>2020-04-22T08:31:08Z</time>
      </trkpt>
      <trkpt lat="37.2097" lon="-8.74391">
        <ele>136.16</ele>
        <time>2020-04-22T08:31:09Z</time>
      </trkpt>
      <trkpt lat="37.2099" lon="-8.74393">
        <ele>136.64</ele>
        <time>2020-04-22T08:31:15Z</time>
      </trkpt>
      <trkpt lat="37.2102" lon="-8.74409">
        <ele>134.24</ele>
        <time>2020-04-22T08:31:22Z</time>
      </trkpt>
      <trkpt lat="37.21037" lon="-8.74421">
        <ele>134.24</ele>
        <time>2020-04-22T08:31:26Z</time>
      </trkpt>
      <trkpt lat="37.21064" lon="-8.74442">
        <ele>135.68</ele>
        <time>2020-04-22T08:31:34Z</time>
      </trkpt>
      <trkpt lat="37.21078" lon="-8.74457">
        <ele>138.57</ele>
        <time>2020-04-22T08:31:40Z</time>
      </trkpt>
      <trkpt lat="37.21093" lon="-8.74452">
        <ele>139.53</ele>
        <time>2020-04-22T08:31:45Z</time>
      </trkpt>
      <trkpt lat="37.21115" lon="-8.74436">
        <ele>140.01</ele>
        <time>2020-04-22T08:31:52Z</time>
      </trkpt>
      <trkpt lat="37.21129" lon="-8.7444">
        <ele>140.49</ele>
        <time>2020-04-22T08:31:56Z</time>
      </trkpt>
      <trkpt lat="37.21132" lon="-8.74444">
        <ele>140.49</ele>
        <time>2020-04-22T08:31:57Z</time>
      </trkpt>
      <trkpt lat="37.21134" lon="-8.74448">
        <ele>140.49</ele>
        <time>2020-04-22T08:31:58Z</time>
      </trkpt>
      <trkpt lat="37.21136" lon="-8.74453">
        <ele>140.49</ele>
        <time>2020-04-22T08:31:59Z</time>
      </trkpt>
      <trkpt lat="37.21137" lon="-8.74458">
        <ele>140.49</ele>
        <time>2020-04-22T08:32:00Z</time>
      </trkpt>
      <trkpt lat="37.21137" lon="-8.74464">
        <ele>140.49</ele>
        <time>2020-04-22T08:32:01Z</time>
      </trkpt>
      <trkpt lat="37.21136" lon="-8.74469">
        <ele>139.05</ele>
        <time>2020-04-22T08:32:02Z</time>
      </trkpt>
      <trkpt lat="37.21134" lon="-8.74475">
        <ele>139.05</ele>
        <time>2020-04-22T08:32:03Z</time>
      </trkpt>
      <trkpt lat="37.21133" lon="-8.74492">
        <ele>138.57</ele>
        <time>2020-04-22T08:32:07Z</time>
      </trkpt>
      <trkpt lat="37.21132" lon="-8.74495">
        <ele>138.57</ele>
        <time>2020-04-22T08:32:08Z</time>
      </trkpt>
      <trkpt lat="37.21131" lon="-8.745">
        <ele>138.57</ele>
        <time>2020-04-22T08:32:09Z</time>
      </trkpt>
      <trkpt lat="37.21131" lon="-8.74506">
        <ele>138.09</ele>
        <time>2020-04-22T08:32:10Z</time>
      </trkpt>
      <trkpt lat="37.21132" lon="-8.74511">
        <ele>138.09</ele>
        <time>2020-04-22T08:32:11Z</time>
      </trkpt>
      <trkpt lat="37.21134" lon="-8.74517">
        <ele>138.09</ele>
        <time>2020-04-22T08:32:12Z</time>
      </trkpt>
      <trkpt lat="37.21137" lon="-8.74521">
        <ele>138.09</ele>
        <time>2020-04-22T08:32:13Z</time>
      </trkpt>
      <trkpt lat="37.2114" lon="-8.74525">
        <ele>138.09</ele>
        <time>2020-04-22T08:32:14Z</time>
      </trkpt>
      <trkpt lat="37.21143" lon="-8.74528">
        <ele>138.09</ele>
        <time>2020-04-22T08:32:15Z</time>
      </trkpt>
      <trkpt lat="37.21148" lon="-8.74533">
        <ele>139.53</ele>
        <time>2020-04-22T08:32:17Z</time>
      </trkpt>
      <trkpt lat="37.21167" lon="-8.74542">
        <ele>141.45</ele>
        <time>2020-04-22T08:32:23Z</time>
      </trkpt>
      <trkpt lat="37.21193" lon="-8.74538">
        <ele>142.89</ele>
        <time>2020-04-22T08:32:30Z</time>
      </trkpt>
      <trkpt lat="37.21197" lon="-8.74538">
        <ele>143.37</ele>
        <time>2020-04-22T08:32:31Z</time>
      </trkpt>
      <trkpt lat="37.21201" lon="-8.74539">
        <ele>143.85</ele>
        <time>2020-04-22T08:32:32Z</time>
      </trkpt>
      <trkpt lat="37.21204" lon="-8.74541">
        <ele>144.34</ele>
        <time>2020-04-22T08:32:33Z</time>
      </trkpt>
      <trkpt lat="37.21207" lon="-8.74544">
        <ele>144.82</ele>
        <time>2020-04-22T08:32:34Z</time>
      </trkpt>
      <trkpt lat="37.21209" lon="-8.74547">
        <ele>145.3</ele>
        <time>2020-04-22T08:32:35Z</time>
      </trkpt>
      <trkpt lat="37.2121" lon="-8.7455">
        <ele>145.3</ele>
        <time>2020-04-22T08:32:36Z</time>
      </trkpt>
      <trkpt lat="37.21211" lon="-8.74554">
        <ele>145.78</ele>
        <time>2020-04-22T08:32:37Z</time>
      </trkpt>
      <trkpt lat="37.21212" lon="-8.74558">
        <ele>145.78</ele>
        <time>2020-04-22T08:32:38Z</time>
      </trkpt>
      <trkpt lat="37.21212" lon="-8.74562">
        <ele>145.78</ele>
        <time>2020-04-22T08:32:39Z</time>
      </trkpt>
      <trkpt lat="37.21213" lon="-8.74567">
        <ele>145.78</ele>
        <time>2020-04-22T08:32:40Z</time>
      </trkpt>
      <trkpt lat="37.21214" lon="-8.74571">
        <ele>145.78</ele>
        <time>2020-04-22T08:32:41Z</time>
      </trkpt>
      <trkpt lat="37.21219" lon="-8.74601">
        <ele>145.78</ele>
        <time>2020-04-22T08:32:48Z</time>
      </trkpt>
      <trkpt lat="37.21219" lon="-8.74611">
        <ele>144.82</ele>
        <time>2020-04-22T08:32:50Z</time>
      </trkpt>
      <trkpt lat="37.21213" lon="-8.74631">
        <ele>144.82</ele>
        <time>2020-04-22T08:32:55Z</time>
      </trkpt>
      <trkpt lat="37.21199" lon="-8.74639">
        <ele>144.34</ele>
        <time>2020-04-22T08:32:59Z</time>
      </trkpt>
      <trkpt lat="37.21196" lon="-8.74643">
        <ele>143.37</ele>
        <time>2020-04-22T08:33:00Z</time>
      </trkpt>
      <trkpt lat="37.21196" lon="-8.74648">
        <ele>143.37</ele>
        <time>2020-04-22T08:33:01Z</time>
      </trkpt>
      <trkpt lat="37.21196" lon="-8.74653">
        <ele>143.37</ele>
        <time>2020-04-22T08:33:02Z</time>
      </trkpt>
      <trkpt lat="37.21199" lon="-8.74656">
        <ele>143.37</ele>
        <time>2020-04-22T08:33:03Z</time>
      </trkpt>
      <trkpt lat="37.21202" lon="-8.74659">
        <ele>143.37</ele>
        <time>2020-04-22T08:33:04Z</time>
      </trkpt>
      <trkpt lat="37.21205" lon="-8.7466">
        <ele>143.37</ele>
        <time>2020-04-22T08:33:05Z</time>
      </trkpt>
      <trkpt lat="37.21209" lon="-8.74661">
        <ele>143.37</ele>
        <time>2020-04-22T08:33:06Z</time>
      </trkpt>
      <trkpt lat="37.21213" lon="-8.74662">
        <ele>142.89</ele>
        <time>2020-04-22T08:33:07Z</time>
      </trkpt>
      <trkpt lat="37.21218" lon="-8.74663">
        <ele>142.41</ele>
        <time>2020-04-22T08:33:08Z</time>
      </trkpt>
      <trkpt lat="37.21255" lon="-8.74661">
        <ele>140.01</ele>
        <time>2020-04-22T08:33:15Z</time>
      </trkpt>
      <trkpt lat="37.21261" lon="-8.7466">
        <ele>140.01</ele>
        <time>2020-04-22T08:33:16Z</time>
      </trkpt>
      <trkpt lat="37.21276" lon="-8.74657">
        <ele>138.57</ele>
        <time>2020-04-22T08:33:19Z</time>
      </trkpt>
      <trkpt lat="37.21281" lon="-8.74659">
        <ele>138.57</ele>
        <time>2020-04-22T08:33:20Z</time>
      </trkpt>
      <trkpt lat="37.21285" lon="-8.74662">
        <ele>138.57</ele>
        <time>2020-04-22T08:33:21Z</time>
      </trkpt>
      <trkpt lat="37.21287" lon="-8.74667">
        <ele>138.09</ele>
        <time>2020-04-22T08:33:22Z</time>
      </trkpt>
      <trkpt lat="37.21288" lon="-8.74673">
        <ele>138.09</ele>
        <time>2020-04-22T08:33:23Z</time>
      </trkpt>
      <trkpt lat="37.2129" lon="-8.74679">
        <ele>137.13</ele>
        <time>2020-04-22T08:33:24Z</time>
      </trkpt>
      <trkpt lat="37.21293" lon="-8.74684">
        <ele>136.64</ele>
        <time>2020-04-22T08:33:25Z</time>
      </trkpt>
      <trkpt lat="37.21297" lon="-8.7469">
        <ele>136.64</ele>
        <time>2020-04-22T08:33:26Z</time>
      </trkpt>
      <trkpt lat="37.21301" lon="-8.74694">
        <ele>136.64</ele>
        <time>2020-04-22T08:33:27Z</time>
      </trkpt>
      <trkpt lat="37.21319" lon="-8.74713">
        <ele>135.2</ele>
        <time>2020-04-22T08:33:31Z</time>
      </trkpt>
      <trkpt lat="37.21325" lon="-8.74716">
        <ele>133.76</ele>
        <time>2020-04-22T08:33:32Z</time>
      </trkpt>
      <trkpt lat="37.21339" lon="-8.74722">
        <ele>132.8</ele>
        <time>2020-04-22T08:33:35Z</time>
      </trkpt>
      <trkpt lat="37.21344" lon="-8.74723">
        <ele>132.32</ele>
        <time>2020-04-22T08:33:36Z</time>
      </trkpt>
      <trkpt lat="37.2135" lon="-8.74723">
        <ele>131.36</ele>
        <time>2020-04-22T08:33:37Z</time>
      </trkpt>
      <trkpt lat="37.21355" lon="-8.7472">
        <ele>131.36</ele>
        <time>2020-04-22T08:33:38Z</time>
      </trkpt>
      <trkpt lat="37.21359" lon="-8.74716">
        <ele>130.88</ele>
        <time>2020-04-22T08:33:39Z</time>
      </trkpt>
      <trkpt lat="37.21363" lon="-8.74711">
        <ele>130.88</ele>
        <time>2020-04-22T08:33:40Z</time>
      </trkpt>
      <trkpt lat="37.21367" lon="-8.74707">
        <ele>130.88</ele>
        <time>2020-04-22T08:33:41Z</time>
      </trkpt>
      <trkpt lat="37.21372" lon="-8.74703">
        <ele>130.4</ele>
        <time>2020-04-22T08:33:42Z</time>
      </trkpt>
      <trkpt lat="37.21377" lon="-8.74701">
        <ele>130.4</ele>
        <time>2020-04-22T08:33:43Z</time>
      </trkpt>
      <trkpt lat="37.21381" lon="-8.747">
        <ele>130.4</ele>
        <time>2020-04-22T08:33:44Z</time>
      </trkpt>
      <trkpt lat="37.21386" lon="-8.747">
        <ele>130.4</ele>
        <time>2020-04-22T08:33:45Z</time>
      </trkpt>
      <trkpt lat="37.21389" lon="-8.74702">
        <ele>130.4</ele>
        <time>2020-04-22T08:33:46Z</time>
      </trkpt>
      <trkpt lat="37.21392" lon="-8.74705">
        <ele>130.4</ele>
        <time>2020-04-22T08:33:47Z</time>
      </trkpt>
      <trkpt lat="37.21395" lon="-8.74708">
        <ele>130.4</ele>
        <time>2020-04-22T08:33:48Z</time>
      </trkpt>
      <trkpt lat="37.21397" lon="-8.74712">
        <ele>130.4</ele>
        <time>2020-04-22T08:33:49Z</time>
      </trkpt>
      <trkpt lat="37.21399" lon="-8.74716">
        <ele>130.4</ele>
        <time>2020-04-22T08:33:50Z</time>
      </trkpt>
      <trkpt lat="37.2141" lon="-8.74737">
        <ele>129.92</ele>
        <time>2020-04-22T08:33:55Z</time>
      </trkpt>
      <trkpt lat="37.21414" lon="-8.74741">
        <ele>129.43</ele>
        <time>2020-04-22T08:33:56Z</time>
      </trkpt>
      <trkpt lat="37.21417" lon="-8.74744">
        <ele>129.43</ele>
        <time>2020-04-22T08:33:57Z</time>
      </trkpt>
      <trkpt lat="37.21421" lon="-8.74746">
        <ele>128.95</ele>
        <time>2020-04-22T08:33:58Z</time>
      </trkpt>
      <trkpt lat="37.21425" lon="-8.74746">
        <ele>128.95</ele>
        <time>2020-04-22T08:33:59Z</time>
      </trkpt>
      <trkpt lat="37.21429" lon="-8.74745">
        <ele>128.95</ele>
        <time>2020-04-22T08:34:00Z</time>
      </trkpt>
      <trkpt lat="37.21434" lon="-8.74743">
        <ele>128.95</ele>
        <time>2020-04-22T08:34:01Z</time>
      </trkpt>
      <trkpt lat="37.21461" lon="-8.74739">
        <ele>128.47</ele>
        <time>2020-04-22T08:34:08Z</time>
      </trkpt>
      <trkpt lat="37.21473" lon="-8.74748">
        <ele>127.03</ele>
        <time>2020-04-22T08:34:12Z</time>
      </trkpt>
      <trkpt lat="37.21476" lon="-8.74748">
        <ele>126.55</ele>
        <time>2020-04-22T08:34:13Z</time>
      </trkpt>
      <trkpt lat="37.2148" lon="-8.74747">
        <ele>126.07</ele>
        <time>2020-04-22T08:34:14Z</time>
      </trkpt>
      <trkpt lat="37.21483" lon="-8.74745">
        <ele>125.59</ele>
        <time>2020-04-22T08:34:15Z</time>
      </trkpt>
      <trkpt lat="37.21487" lon="-8.74744">
        <ele>125.59</ele>
        <time>2020-04-22T08:34:16Z</time>
      </trkpt>
      <trkpt lat="37.21491" lon="-8.74745">
        <ele>124.63</ele>
        <time>2020-04-22T08:34:17Z</time>
      </trkpt>
      <trkpt lat="37.21494" lon="-8.74746">
        <ele>124.63</ele>
        <time>2020-04-22T08:34:18Z</time>
      </trkpt>
      <trkpt lat="37.21497" lon="-8.74748">
        <ele>124.63</ele>
        <time>2020-04-22T08:34:19Z</time>
      </trkpt>
      <trkpt lat="37.21506" lon="-8.74751">
        <ele>124.63</ele>
        <time>2020-04-22T08:34:22Z</time>
      </trkpt>
      <trkpt lat="37.21515" lon="-8.74738">
        <ele>123.67</ele>
        <time>2020-04-22T08:34:26Z</time>
      </trkpt>
      <trkpt lat="37.21513" lon="-8.74707">
        <ele>122.22</ele>
        <time>2020-04-22T08:34:32Z</time>
      </trkpt>
      <trkpt lat="37.21496" lon="-8.74674">
        <ele>120.78</ele>
        <time>2020-04-22T08:34:40Z</time>
      </trkpt>
      <trkpt lat="37.21493" lon="-8.74658">
        <ele>120.3</ele>
        <time>2020-04-22T08:34:44Z</time>
      </trkpt>
      <trkpt lat="37.21493" lon="-8.74655">
        <ele>119.34</ele>
        <time>2020-04-22T08:34:45Z</time>
      </trkpt>
      <trkpt lat="37.21495" lon="-8.74652">
        <ele>118.86</ele>
        <time>2020-04-22T08:34:46Z</time>
      </trkpt>
      <trkpt lat="37.21496" lon="-8.74648">
        <ele>118.38</ele>
        <time>2020-04-22T08:34:47Z</time>
      </trkpt>
      <trkpt lat="37.21498" lon="-8.74645">
        <ele>117.42</ele>
        <time>2020-04-22T08:34:48Z</time>
      </trkpt>
      <trkpt lat="37.21508" lon="-8.74636">
        <ele>114.53</ele>
        <time>2020-04-22T08:34:54Z</time>
      </trkpt>
      <trkpt lat="37.2151" lon="-8.74635">
        <ele>114.05</ele>
        <time>2020-04-22T08:34:55Z</time>
      </trkpt>
      <trkpt lat="37.21514" lon="-8.74631">
        <ele>114.05</ele>
        <time>2020-04-22T08:35:01Z</time>
      </trkpt>
      <trkpt lat="37.21516" lon="-8.74631">
        <ele>114.05</ele>
        <time>2020-04-22T08:35:10Z</time>
      </trkpt>
      <trkpt lat="37.21517" lon="-8.7463">
        <ele>114.05</ele>
        <time>2020-04-22T08:35:20Z</time>
      </trkpt>
      <trkpt lat="37.21519" lon="-8.7463">
        <ele>116.46</ele>
        <time>2020-04-22T08:35:29Z</time>
      </trkpt>
      <trkpt lat="37.21523" lon="-8.74628">
        <ele>117.9</ele>
        <time>2020-04-22T08:35:38Z</time>
      </trkpt>
      <trkpt lat="37.2153" lon="-8.74628">
        <ele>121.26</ele>
        <time>2020-04-22T08:35:50Z</time>
      </trkpt>
      <trkpt lat="37.21533" lon="-8.74631">
        <ele>121.74</ele>
        <time>2020-04-22T08:35:58Z</time>
      </trkpt>
      <trkpt lat="37.21534" lon="-8.74633">
        <ele>121.74</ele>
        <time>2020-04-22T08:35:59Z</time>
      </trkpt>
      <trkpt lat="37.21535" lon="-8.74635">
        <ele>121.74</ele>
        <time>2020-04-22T08:36:00Z</time>
      </trkpt>
      <trkpt lat="37.21536" lon="-8.74637">
        <ele>121.74</ele>
        <time>2020-04-22T08:36:01Z</time>
      </trkpt>
      <trkpt lat="37.21536" lon="-8.7464">
        <ele>121.74</ele>
        <time>2020-04-22T08:36:02Z</time>
      </trkpt>
      <trkpt lat="37.21545" lon="-8.74661">
        <ele>121.74</ele>
        <time>2020-04-22T08:36:09Z</time>
      </trkpt>
      <trkpt lat="37.21563" lon="-8.74686">
        <ele>121.26</ele>
        <time>2020-04-22T08:36:18Z</time>
      </trkpt>
      <trkpt lat="37.21585" lon="-8.74703">
        <ele>120.3</ele>
        <time>2020-04-22T08:36:26Z</time>
      </trkpt>
      <trkpt lat="37.21602" lon="-8.74723">
        <ele>122.71</ele>
        <time>2020-04-22T08:36:34Z</time>
      </trkpt>
      <trkpt lat="37.21604" lon="-8.74725">
        <ele>122.71</ele>
        <time>2020-04-22T08:36:35Z</time>
      </trkpt>
      <trkpt lat="37.21625" lon="-8.74731">
        <ele>125.11</ele>
        <time>2020-04-22T08:36:43Z</time>
      </trkpt>
      <trkpt lat="37.21648" lon="-8.74738">
        <ele>126.55</ele>
        <time>2020-04-22T08:36:52Z</time>
      </trkpt>
      <trkpt lat="37.21653" lon="-8.7475">
        <ele>126.55</ele>
        <time>2020-04-22T08:36:56Z</time>
      </trkpt>
      <trkpt lat="37.21664" lon="-8.74769">
        <ele>128.47</ele>
        <time>2020-04-22T08:37:03Z</time>
      </trkpt>
      <trkpt lat="37.21681" lon="-8.74798">
        <ele>130.88</ele>
        <time>2020-04-22T08:37:13Z</time>
      </trkpt>
      <trkpt lat="37.21698" lon="-8.7482">
        <ele>131.84</ele>
        <time>2020-04-22T08:37:22Z</time>
      </trkpt>
      <trkpt lat="37.2172" lon="-8.74842">
        <ele>135.2</ele>
        <time>2020-04-22T08:37:32Z</time>
      </trkpt>
      <trkpt lat="37.2174" lon="-8.74855">
        <ele>136.64</ele>
        <time>2020-04-22T08:37:41Z</time>
      </trkpt>
      <trkpt lat="37.21752" lon="-8.7486">
        <ele>137.13</ele>
        <time>2020-04-22T08:37:46Z</time>
      </trkpt>
      <trkpt lat="37.21762" lon="-8.74881">
        <ele>138.09</ele>
        <time>2020-04-22T08:37:53Z</time>
      </trkpt>
      <trkpt lat="37.2178" lon="-8.74911">
        <ele>138.57</ele>
        <time>2020-04-22T08:38:03Z</time>
      </trkpt>
      <trkpt lat="37.21793" lon="-8.74938">
        <ele>139.05</ele>
        <time>2020-04-22T08:38:11Z</time>
      </trkpt>
      <trkpt lat="37.2181" lon="-8.74948">
        <ele>139.05</ele>
        <time>2020-04-22T08:38:17Z</time>
      </trkpt>
      <trkpt lat="37.21836" lon="-8.74959">
        <ele>138.57</ele>
        <time>2020-04-22T08:38:25Z</time>
      </trkpt>
      <trkpt lat="37.21858" lon="-8.74962">
        <ele>139.53</ele>
        <time>2020-04-22T08:38:32Z</time>
      </trkpt>
      <trkpt lat="37.21883" lon="-8.74968">
        <ele>140.01</ele>
        <time>2020-04-22T08:38:39Z</time>
      </trkpt>
      <trkpt lat="37.21912" lon="-8.74977">
        <ele>141.93</ele>
        <time>2020-04-22T08:38:49Z</time>
      </trkpt>
      <trkpt lat="37.21937" lon="-8.74977">
        <ele>141.93</ele>
        <time>2020-04-22T08:38:56Z</time>
      </trkpt>
      <trkpt lat="37.21944" lon="-8.74977">
        <ele>140.49</ele>
        <time>2020-04-22T08:38:58Z</time>
      </trkpt>
      <trkpt lat="37.21973" lon="-8.74973">
        <ele>140.01</ele>
        <time>2020-04-22T08:39:06Z</time>
      </trkpt>
      <trkpt lat="37.22" lon="-8.74966">
        <ele>139.53</ele>
        <time>2020-04-22T08:39:14Z</time>
      </trkpt>
      <trkpt lat="37.22021" lon="-8.7497">
        <ele>140.97</ele>
        <time>2020-04-22T08:39:21Z</time>
      </trkpt>
      <trkpt lat="37.22045" lon="-8.74977">
        <ele>141.93</ele>
        <time>2020-04-22T08:39:28Z</time>
      </trkpt>
      <trkpt lat="37.22071" lon="-8.74983">
        <ele>144.82</ele>
        <time>2020-04-22T08:39:37Z</time>
      </trkpt>
      <trkpt lat="37.22091" lon="-8.74989">
        <ele>146.74</ele>
        <time>2020-04-22T08:39:44Z</time>
      </trkpt>
      <trkpt lat="37.22113" lon="-8.74996">
        <ele>145.3</ele>
        <time>2020-04-22T08:39:51Z</time>
      </trkpt>
      <trkpt lat="37.22131" lon="-8.74996">
        <ele>145.3</ele>
        <time>2020-04-22T08:39:57Z</time>
      </trkpt>
      <trkpt lat="37.22144" lon="-8.75005">
        <ele>147.22</ele>
        <time>2020-04-22T08:40:02Z</time>
      </trkpt>
      <trkpt lat="37.22161" lon="-8.75016">
        <ele>149.62</ele>
        <time>2020-04-22T08:40:09Z</time>
      </trkpt>
      <trkpt lat="37.22191" lon="-8.75027">
        <ele>150.58</ele>
        <time>2020-04-22T08:40:20Z</time>
      </trkpt>
      <trkpt lat="37.2221" lon="-8.75035">
        <ele>151.06</ele>
        <time>2020-04-22T08:40:27Z</time>
      </trkpt>
      <trkpt lat="37.22239" lon="-8.75047">
        <ele>152.51</ele>
        <time>2020-04-22T08:40:37Z</time>
      </trkpt>
      <trkpt lat="37.22261" lon="-8.75043">
        <ele>153.47</ele>
        <time>2020-04-22T08:40:44Z</time>
      </trkpt>
      <trkpt lat="37.22282" lon="-8.75033">
        <ele>155.87</ele>
        <time>2020-04-22T08:40:53Z</time>
      </trkpt>
      <trkpt lat="37.22299" lon="-8.7502">
        <ele>158.75</ele>
        <time>2020-04-22T08:41:01Z</time>
      </trkpt>
      <trkpt lat="37.22317" lon="-8.75008">
        <ele>160.68</ele>
        <time>2020-04-22T08:41:09Z</time>
      </trkpt>
      <trkpt lat="37.22335" lon="-8.74999">
        <ele>162.12</ele>
        <time>2020-04-22T08:41:16Z</time>
      </trkpt>
      <trkpt lat="37.22354" lon="-8.74988">
        <ele>163.56</ele>
        <time>2020-04-22T08:41:24Z</time>
      </trkpt>
      <trkpt lat="37.22369" lon="-8.74984">
        <ele>166.45</ele>
        <time>2020-04-22T08:41:30Z</time>
      </trkpt>
      <trkpt lat="37.22384" lon="-8.74981">
        <ele>167.89</ele>
        <time>2020-04-22T08:41:37Z</time>
      </trkpt>
      <trkpt lat="37.22406" lon="-8.74983">
        <ele>169.81</ele>
        <time>2020-04-22T08:41:47Z</time>
      </trkpt>
      <trkpt lat="37.22428" lon="-8.74984">
        <ele>170.29</ele>
        <time>2020-04-22T08:41:56Z</time>
      </trkpt>
      <trkpt lat="37.22452" lon="-8.74984">
        <ele>170.77</ele>
        <time>2020-04-22T08:42:05Z</time>
      </trkpt>
      <trkpt lat="37.22473" lon="-8.74984">
        <ele>172.21</ele>
        <time>2020-04-22T08:42:14Z</time>
      </trkpt>
      <trkpt lat="37.2249" lon="-8.74977">
        <ele>174.62</ele>
        <time>2020-04-22T08:42:23Z</time>
      </trkpt>
      <trkpt lat="37.22507" lon="-8.74973">
        <ele>177.98</ele>
        <time>2020-04-22T08:42:31Z</time>
      </trkpt>
      <trkpt lat="37.22515" lon="-8.74975">
        <ele>179.9</ele>
        <time>2020-04-22T08:42:35Z</time>
      </trkpt>
      <trkpt lat="37.22526" lon="-8.74977">
        <ele>182.79</ele>
        <time>2020-04-22T08:42:41Z</time>
      </trkpt>
      <trkpt lat="37.22541" lon="-8.74974">
        <ele>185.19</ele>
        <time>2020-04-22T08:42:49Z</time>
      </trkpt>
      <trkpt lat="37.22563" lon="-8.74973">
        <ele>188.56</ele>
        <time>2020-04-22T08:43:00Z</time>
      </trkpt>
      <trkpt lat="37.22584" lon="-8.74974">
        <ele>191.44</ele>
        <time>2020-04-22T08:43:11Z</time>
      </trkpt>
      <trkpt lat="37.22602" lon="-8.7497">
        <ele>194.8</ele>
        <time>2020-04-22T08:43:20Z</time>
      </trkpt>
      <trkpt lat="37.22622" lon="-8.74966">
        <ele>197.69</ele>
        <time>2020-04-22T08:43:30Z</time>
      </trkpt>
      <trkpt lat="37.2264" lon="-8.74968">
        <ele>200.09</ele>
        <time>2020-04-22T08:43:39Z</time>
      </trkpt>
      <trkpt lat="37.22648" lon="-8.74973">
        <ele>202.98</ele>
        <time>2020-04-22T08:43:44Z</time>
      </trkpt>
      <trkpt lat="37.22662" lon="-8.74974">
        <ele>205.38</ele>
        <time>2020-04-22T08:43:52Z</time>
      </trkpt>
      <trkpt lat="37.22678" lon="-8.74975">
        <ele>209.22</ele>
        <time>2020-04-22T08:44:01Z</time>
      </trkpt>
      <trkpt lat="37.22691" lon="-8.74979">
        <ele>210.19</ele>
        <time>2020-04-22T08:44:08Z</time>
      </trkpt>
      <trkpt lat="37.22695" lon="-8.74994">
        <ele>210.19</ele>
        <time>2020-04-22T08:44:14Z</time>
      </trkpt>
      <trkpt lat="37.22692" lon="-8.75012">
        <ele>213.07</ele>
        <time>2020-04-22T08:44:21Z</time>
      </trkpt>
      <trkpt lat="37.22691" lon="-8.75027">
        <ele>214.99</ele>
        <time>2020-04-22T08:44:27Z</time>
      </trkpt>
      <trkpt lat="37.22689" lon="-8.75049">
        <ele>218.36</ele>
        <time>2020-04-22T08:44:36Z</time>
      </trkpt>
      <trkpt lat="37.22685" lon="-8.7507">
        <ele>221.24</ele>
        <time>2020-04-22T08:44:45Z</time>
      </trkpt>
      <trkpt lat="37.22689" lon="-8.75085">
        <ele>223.16</ele>
        <time>2020-04-22T08:44:52Z</time>
      </trkpt>
      <trkpt lat="37.22691" lon="-8.75086">
        <ele>223.16</ele>
        <time>2020-04-22T08:44:53Z</time>
      </trkpt>
      <trkpt lat="37.22693" lon="-8.75085">
        <ele>224.12</ele>
        <time>2020-04-22T08:44:54Z</time>
      </trkpt>
      <trkpt lat="37.22695" lon="-8.75084">
        <ele>224.12</ele>
        <time>2020-04-22T08:44:55Z</time>
      </trkpt>
      <trkpt lat="37.22697" lon="-8.75083">
        <ele>225.09</ele>
        <time>2020-04-22T08:44:56Z</time>
      </trkpt>
      <trkpt lat="37.22707" lon="-8.75068">
        <ele>227.97</ele>
        <time>2020-04-22T08:45:04Z</time>
      </trkpt>
      <trkpt lat="37.22708" lon="-8.75065">
        <ele>227.97</ele>
        <time>2020-04-22T08:45:05Z</time>
      </trkpt>
      <trkpt lat="37.22727" lon="-8.75039">
        <ele>228.45</ele>
        <time>2020-04-22T08:45:16Z</time>
      </trkpt>
      <trkpt lat="37.22744" lon="-8.75022">
        <ele>231.81</ele>
        <time>2020-04-22T08:45:25Z</time>
      </trkpt>
      <trkpt lat="37.22762" lon="-8.75006">
        <ele>234.7</ele>
        <time>2020-04-22T08:45:34Z</time>
      </trkpt>
      <trkpt lat="37.22776" lon="-8.74997">
        <ele>235.66</ele>
        <time>2020-04-22T08:45:42Z</time>
      </trkpt>
      <trkpt lat="37.22783" lon="-8.74999">
        <ele>236.14</ele>
        <time>2020-04-22T08:45:48Z</time>
      </trkpt>
      <trkpt lat="37.22782" lon="-8.75">
        <ele>236.14</ele>
        <time>2020-04-22T08:46:07Z</time>
      </trkpt>
      <trkpt lat="37.22783" lon="-8.74999">
        <ele>236.14</ele>
        <time>2020-04-22T08:46:19Z</time>
      </trkpt>
      <trkpt lat="37.22784" lon="-8.74998">
        <ele>236.14</ele>
        <time>2020-04-22T08:46:20Z</time>
      </trkpt>
      <trkpt lat="37.22786" lon="-8.74998">
        <ele>236.14</ele>
        <time>2020-04-22T08:46:21Z</time>
      </trkpt>
      <trkpt lat="37.22787" lon="-8.74997">
        <ele>236.14</ele>
        <time>2020-04-22T08:46:22Z</time>
      </trkpt>
      <trkpt lat="37.22789" lon="-8.74995">
        <ele>236.14</ele>
        <time>2020-04-22T08:46:23Z</time>
      </trkpt>
      <trkpt lat="37.2279" lon="-8.74992">
        <ele>235.18</ele>
        <time>2020-04-22T08:46:24Z</time>
      </trkpt>
      <trkpt lat="37.22791" lon="-8.7499">
        <ele>235.18</ele>
        <time>2020-04-22T08:46:25Z</time>
      </trkpt>
      <trkpt lat="37.22792" lon="-8.74986">
        <ele>235.18</ele>
        <time>2020-04-22T08:46:26Z</time>
      </trkpt>
      <trkpt lat="37.2279" lon="-8.74955">
        <ele>234.7</ele>
        <time>2020-04-22T08:46:33Z</time>
      </trkpt>
      <trkpt lat="37.22778" lon="-8.7493">
        <ele>234.7</ele>
        <time>2020-04-22T08:46:41Z</time>
      </trkpt>
      <trkpt lat="37.22755" lon="-8.74909">
        <ele>236.14</ele>
        <time>2020-04-22T08:46:50Z</time>
      </trkpt>
      <trkpt lat="37.22723" lon="-8.74895">
        <ele>237.1</ele>
        <time>2020-04-22T08:47:00Z</time>
      </trkpt>
      <trkpt lat="37.22686" lon="-8.7488">
        <ele>239.51</ele>
        <time>2020-04-22T08:47:12Z</time>
      </trkpt>
      <trkpt lat="37.22656" lon="-8.74867">
        <ele>242.87</ele>
        <time>2020-04-22T08:47:22Z</time>
      </trkpt>
      <trkpt lat="37.22619" lon="-8.74857">
        <ele>243.83</ele>
        <time>2020-04-22T08:47:33Z</time>
      </trkpt>
      <trkpt lat="37.22596" lon="-8.74854">
        <ele>242.39</ele>
        <time>2020-04-22T08:47:38Z</time>
      </trkpt>
      <trkpt lat="37.22576" lon="-8.74851">
        <ele>238.54</ele>
        <time>2020-04-22T08:47:41Z</time>
      </trkpt>
      <trkpt lat="37.22549" lon="-8.74846">
        <ele>235.18</ele>
        <time>2020-04-22T08:47:45Z</time>
      </trkpt>
      <trkpt lat="37.22542" lon="-8.74843">
        <ele>234.22</ele>
        <time>2020-04-22T08:47:46Z</time>
      </trkpt>
      <trkpt lat="37.22537" lon="-8.74839">
        <ele>233.26</ele>
        <time>2020-04-22T08:47:47Z</time>
      </trkpt>
      <trkpt lat="37.22532" lon="-8.74835">
        <ele>232.3</ele>
        <time>2020-04-22T08:47:48Z</time>
      </trkpt>
      <trkpt lat="37.22527" lon="-8.7483">
        <ele>231.33</ele>
        <time>2020-04-22T08:47:49Z</time>
      </trkpt>
      <trkpt lat="37.22523" lon="-8.74824">
        <ele>230.37</ele>
        <time>2020-04-22T08:47:50Z</time>
      </trkpt>
      <trkpt lat="37.22521" lon="-8.74817">
        <ele>229.41</ele>
        <time>2020-04-22T08:47:51Z</time>
      </trkpt>
      <trkpt lat="37.22518" lon="-8.74808">
        <ele>227.97</ele>
        <time>2020-04-22T08:47:52Z</time>
      </trkpt>
      <trkpt lat="37.22514" lon="-8.74778">
        <ele>223.64</ele>
        <time>2020-04-22T08:47:55Z</time>
      </trkpt>
      <trkpt lat="37.22513" lon="-8.74744">
        <ele>219.8</ele>
        <time>2020-04-22T08:47:58Z</time>
      </trkpt>
      <trkpt lat="37.2251" lon="-8.74722">
        <ele>217.4</ele>
        <time>2020-04-22T08:48:00Z</time>
      </trkpt>
      <trkpt lat="37.22507" lon="-8.74711">
        <ele>215.95</ele>
        <time>2020-04-22T08:48:01Z</time>
      </trkpt>
      <trkpt lat="37.22503" lon="-8.74702">
        <ele>214.99</ele>
        <time>2020-04-22T08:48:02Z</time>
      </trkpt>
      <trkpt lat="37.22499" lon="-8.74693">
        <ele>214.03</ele>
        <time>2020-04-22T08:48:03Z</time>
      </trkpt>
      <trkpt lat="37.22493" lon="-8.74686">
        <ele>213.55</ele>
        <time>2020-04-22T08:48:04Z</time>
      </trkpt>
      <trkpt lat="37.22489" lon="-8.74679">
        <ele>212.59</ele>
        <time>2020-04-22T08:48:05Z</time>
      </trkpt>
      <trkpt lat="37.22484" lon="-8.7467">
        <ele>211.15</ele>
        <time>2020-04-22T08:48:06Z</time>
      </trkpt>
      <trkpt lat="37.22481" lon="-8.74663">
        <ele>210.19</ele>
        <time>2020-04-22T08:48:07Z</time>
      </trkpt>
      <trkpt lat="37.22477" lon="-8.74654">
        <ele>209.22</ele>
        <time>2020-04-22T08:48:08Z</time>
      </trkpt>
      <trkpt lat="37.2247" lon="-8.74638">
        <ele>205.86</ele>
        <time>2020-04-22T08:48:10Z</time>
      </trkpt>
      <trkpt lat="37.22466" lon="-8.74631">
        <ele>204.42</ele>
        <time>2020-04-22T08:48:11Z</time>
      </trkpt>
      <trkpt lat="37.22461" lon="-8.74625">
        <ele>202.98</ele>
        <time>2020-04-22T08:48:12Z</time>
      </trkpt>
      <trkpt lat="37.22456" lon="-8.74621">
        <ele>201.53</ele>
        <time>2020-04-22T08:48:13Z</time>
      </trkpt>
      <trkpt lat="37.22449" lon="-8.74619">
        <ele>200.09</ele>
        <time>2020-04-22T08:48:14Z</time>
      </trkpt>
      <trkpt lat="37.22442" lon="-8.7462">
        <ele>199.13</ele>
        <time>2020-04-22T08:48:15Z</time>
      </trkpt>
      <trkpt lat="37.22435" lon="-8.74622">
        <ele>198.65</ele>
        <time>2020-04-22T08:48:16Z</time>
      </trkpt>
      <trkpt lat="37.2243" lon="-8.74624">
        <ele>197.69</ele>
        <time>2020-04-22T08:48:17Z</time>
      </trkpt>
      <trkpt lat="37.22419" lon="-8.74627">
        <ele>196.73</ele>
        <time>2020-04-22T08:48:19Z</time>
      </trkpt>
      <trkpt lat="37.22413" lon="-8.74628">
        <ele>195.77</ele>
        <time>2020-04-22T08:48:20Z</time>
      </trkpt>
      <trkpt lat="37.22409" lon="-8.74627">
        <ele>195.28</ele>
        <time>2020-04-22T08:48:21Z</time>
      </trkpt>
      <trkpt lat="37.22405" lon="-8.74626">
        <ele>194.32</ele>
        <time>2020-04-22T08:48:22Z</time>
      </trkpt>
      <trkpt lat="37.22401" lon="-8.74624">
        <ele>193.36</ele>
        <time>2020-04-22T08:48:23Z</time>
      </trkpt>
      <trkpt lat="37.22398" lon="-8.74622">
        <ele>192.88</ele>
        <time>2020-04-22T08:48:24Z</time>
      </trkpt>
      <trkpt lat="37.22394" lon="-8.7462">
        <ele>191.92</ele>
        <time>2020-04-22T08:48:25Z</time>
      </trkpt>
      <trkpt lat="37.22391" lon="-8.74617">
        <ele>191.92</ele>
        <time>2020-04-22T08:48:26Z</time>
      </trkpt>
      <trkpt lat="37.22379" lon="-8.74601">
        <ele>188.56</ele>
        <time>2020-04-22T08:48:30Z</time>
      </trkpt>
      <trkpt lat="37.22375" lon="-8.74597">
        <ele>188.08</ele>
        <time>2020-04-22T08:48:31Z</time>
      </trkpt>
      <trkpt lat="37.22346" lon="-8.74574">
        <ele>185.19</ele>
        <time>2020-04-22T08:48:37Z</time>
      </trkpt>
      <trkpt lat="37.22337" lon="-8.74568">
        <ele>184.71</ele>
        <time>2020-04-22T08:48:39Z</time>
      </trkpt>
      <trkpt lat="37.22332" lon="-8.74564">
        <ele>183.75</ele>
        <time>2020-04-22T08:48:40Z</time>
      </trkpt>
      <trkpt lat="37.22327" lon="-8.7456">
        <ele>183.27</ele>
        <time>2020-04-22T08:48:41Z</time>
      </trkpt>
      <trkpt lat="37.22324" lon="-8.74554">
        <ele>182.31</ele>
        <time>2020-04-22T08:48:42Z</time>
      </trkpt>
      <trkpt lat="37.2232" lon="-8.74548">
        <ele>182.31</ele>
        <time>2020-04-22T08:48:43Z</time>
      </trkpt>
      <trkpt lat="37.22318" lon="-8.7454">
        <ele>181.35</ele>
        <time>2020-04-22T08:48:44Z</time>
      </trkpt>
      <trkpt lat="37.22316" lon="-8.74533">
        <ele>181.83</ele>
        <time>2020-04-22T08:48:45Z</time>
      </trkpt>
      <trkpt lat="37.22314" lon="-8.74525">
        <ele>181.35</ele>
        <time>2020-04-22T08:48:46Z</time>
      </trkpt>
      <trkpt lat="37.22313" lon="-8.74517">
        <ele>181.35</ele>
        <time>2020-04-22T08:48:47Z</time>
      </trkpt>
      <trkpt lat="37.22313" lon="-8.7451">
        <ele>180.87</ele>
        <time>2020-04-22T08:48:48Z</time>
      </trkpt>
      <trkpt lat="37.22313" lon="-8.74502">
        <ele>180.87</ele>
        <time>2020-04-22T08:48:49Z</time>
      </trkpt>
      <trkpt lat="37.22313" lon="-8.74496">
        <ele>180.87</ele>
        <time>2020-04-22T08:48:50Z</time>
      </trkpt>
      <trkpt lat="37.22313" lon="-8.7449">
        <ele>180.87</ele>
        <time>2020-04-22T08:48:51Z</time>
      </trkpt>
      <trkpt lat="37.22311" lon="-8.74449">
        <ele>178.94</ele>
        <time>2020-04-22T08:48:57Z</time>
      </trkpt>
      <trkpt lat="37.22316" lon="-8.74403">
        <ele>175.1</ele>
        <time>2020-04-22T08:49:04Z</time>
      </trkpt>
      <trkpt lat="37.2232" lon="-8.74383">
        <ele>174.14</ele>
        <time>2020-04-22T08:49:07Z</time>
      </trkpt>
      <trkpt lat="37.22327" lon="-8.74352">
        <ele>171.25</ele>
        <time>2020-04-22T08:49:11Z</time>
      </trkpt>
      <trkpt lat="37.22347" lon="-8.74298">
        <ele>170.29</ele>
        <time>2020-04-22T08:49:19Z</time>
      </trkpt>
      <trkpt lat="37.22376" lon="-8.74249">
        <ele>168.85</ele>
        <time>2020-04-22T08:49:29Z</time>
      </trkpt>
      <trkpt lat="37.22391" lon="-8.74214">
        <ele>165.96</ele>
        <time>2020-04-22T08:49:34Z</time>
      </trkpt>
      <trkpt lat="37.224" lon="-8.7419">
        <ele>162.6</ele>
        <time>2020-04-22T08:49:37Z</time>
      </trkpt>
      <trkpt lat="37.22407" lon="-8.74177">
        <ele>160.2</ele>
        <time>2020-04-22T08:49:39Z</time>
      </trkpt>
      <trkpt lat="37.22411" lon="-8.74171">
        <ele>159.24</ele>
        <time>2020-04-22T08:49:40Z</time>
      </trkpt>
      <trkpt lat="37.22415" lon="-8.74166">
        <ele>158.27</ele>
        <time>2020-04-22T08:49:41Z</time>
      </trkpt>
      <trkpt lat="37.2242" lon="-8.74162">
        <ele>156.83</ele>
        <time>2020-04-22T08:49:42Z</time>
      </trkpt>
      <trkpt lat="37.22425" lon="-8.74159">
        <ele>155.87</ele>
        <time>2020-04-22T08:49:43Z</time>
      </trkpt>
      <trkpt lat="37.22432" lon="-8.74159">
        <ele>154.43</ele>
        <time>2020-04-22T08:49:44Z</time>
      </trkpt>
      <trkpt lat="37.22439" lon="-8.7416">
        <ele>153.95</ele>
        <time>2020-04-22T08:49:45Z</time>
      </trkpt>
      <trkpt lat="37.22443" lon="-8.74161">
        <ele>152.99</ele>
        <time>2020-04-22T08:49:46Z</time>
      </trkpt>
      <trkpt lat="37.2245" lon="-8.74164">
        <ele>152.03</ele>
        <time>2020-04-22T08:49:47Z</time>
      </trkpt>
      <trkpt lat="37.22476" lon="-8.74177">
        <ele>148.66</ele>
        <time>2020-04-22T08:49:51Z</time>
      </trkpt>
      <trkpt lat="37.22482" lon="-8.7418">
        <ele>147.22</ele>
        <time>2020-04-22T08:49:52Z</time>
      </trkpt>
      <trkpt lat="37.22487" lon="-8.74185">
        <ele>147.22</ele>
        <time>2020-04-22T08:49:53Z</time>
      </trkpt>
      <trkpt lat="37.22492" lon="-8.74191">
        <ele>147.22</ele>
        <time>2020-04-22T08:49:54Z</time>
      </trkpt>
      <trkpt lat="37.22495" lon="-8.74199">
        <ele>146.26</ele>
        <time>2020-04-22T08:49:55Z</time>
      </trkpt>
      <trkpt lat="37.22496" lon="-8.74208">
        <ele>145.78</ele>
        <time>2020-04-22T08:49:56Z</time>
      </trkpt>
      <trkpt lat="37.22496" lon="-8.74217">
        <ele>144.82</ele>
        <time>2020-04-22T08:49:57Z</time>
      </trkpt>
      <trkpt lat="37.22496" lon="-8.74227">
        <ele>144.34</ele>
        <time>2020-04-22T08:49:58Z</time>
      </trkpt>
      <trkpt lat="37.22495" lon="-8.74237">
        <ele>143.85</ele>
        <time>2020-04-22T08:49:59Z</time>
      </trkpt>
      <trkpt lat="37.22493" lon="-8.74246">
        <ele>143.85</ele>
        <time>2020-04-22T08:50:00Z</time>
      </trkpt>
      <trkpt lat="37.22475" lon="-8.74326">
        <ele>141.45</ele>
        <time>2020-04-22T08:50:09Z</time>
      </trkpt>
      <trkpt lat="37.22471" lon="-8.74341">
        <ele>140.97</ele>
        <time>2020-04-22T08:50:11Z</time>
      </trkpt>
      <trkpt lat="37.22465" lon="-8.7436">
        <ele>139.53</ele>
        <time>2020-04-22T08:50:14Z</time>
      </trkpt>
      <trkpt lat="37.22465" lon="-8.74366">
        <ele>139.53</ele>
        <time>2020-04-22T08:50:15Z</time>
      </trkpt>
      <trkpt lat="37.22467" lon="-8.7437">
        <ele>139.05</ele>
        <time>2020-04-22T08:50:16Z</time>
      </trkpt>
      <trkpt lat="37.22471" lon="-8.74371">
        <ele>138.57</ele>
        <time>2020-04-22T08:50:17Z</time>
      </trkpt>
      <trkpt lat="37.22476" lon="-8.74371">
        <ele>138.57</ele>
        <time>2020-04-22T08:50:18Z</time>
      </trkpt>
      <trkpt lat="37.22481" lon="-8.74369">
        <ele>137.61</ele>
        <time>2020-04-22T08:50:19Z</time>
      </trkpt>
      <trkpt lat="37.22486" lon="-8.74366">
        <ele>137.13</ele>
        <time>2020-04-22T08:50:20Z</time>
      </trkpt>
      <trkpt lat="37.22492" lon="-8.74362">
        <ele>136.64</ele>
        <time>2020-04-22T08:50:21Z</time>
      </trkpt>
      <trkpt lat="37.22497" lon="-8.74357">
        <ele>136.16</ele>
        <time>2020-04-22T08:50:22Z</time>
      </trkpt>
      <trkpt lat="37.22502" lon="-8.7435">
        <ele>135.2</ele>
        <time>2020-04-22T08:50:23Z</time>
      </trkpt>
      <trkpt lat="37.22506" lon="-8.74344">
        <ele>135.2</ele>
        <time>2020-04-22T08:50:24Z</time>
      </trkpt>
      <trkpt lat="37.2251" lon="-8.74336">
        <ele>134.72</ele>
        <time>2020-04-22T08:50:25Z</time>
      </trkpt>
      <trkpt lat="37.22518" lon="-8.74322">
        <ele>134.24</ele>
        <time>2020-04-22T08:50:27Z</time>
      </trkpt>
      <trkpt lat="37.22541" lon="-8.7428">
        <ele>130.88</ele>
        <time>2020-04-22T08:50:32Z</time>
      </trkpt>
      <trkpt lat="37.22563" lon="-8.74221">
        <ele>127.99</ele>
        <time>2020-04-22T08:50:38Z</time>
      </trkpt>
      <trkpt lat="37.22581" lon="-8.74172">
        <ele>125.11</ele>
        <time>2020-04-22T08:50:43Z</time>
      </trkpt>
      <trkpt lat="37.22592" lon="-8.74131">
        <ele>123.67</ele>
        <time>2020-04-22T08:50:47Z</time>
      </trkpt>
      <trkpt lat="37.22598" lon="-8.74089">
        <ele>121.26</ele>
        <time>2020-04-22T08:50:51Z</time>
      </trkpt>
      <trkpt lat="37.22598" lon="-8.7407">
        <ele>120.3</ele>
        <time>2020-04-22T08:50:53Z</time>
      </trkpt>
      <trkpt lat="37.22597" lon="-8.7406">
        <ele>119.82</ele>
        <time>2020-04-22T08:50:54Z</time>
      </trkpt>
      <trkpt lat="37.22583" lon="-8.73996">
        <ele>117.9</ele>
        <time>2020-04-22T08:51:01Z</time>
      </trkpt>
      <trkpt lat="37.22579" lon="-8.73989">
        <ele>117.9</ele>
        <time>2020-04-22T08:51:02Z</time>
      </trkpt>
      <trkpt lat="37.22575" lon="-8.73983">
        <ele>117.9</ele>
        <time>2020-04-22T08:51:03Z</time>
      </trkpt>
      <trkpt lat="37.22556" lon="-8.73962">
        <ele>117.9</ele>
        <time>2020-04-22T08:51:07Z</time>
      </trkpt>
      <trkpt lat="37.22553" lon="-8.73956">
        <ele>117.9</ele>
        <time>2020-04-22T08:51:08Z</time>
      </trkpt>
      <trkpt lat="37.2255" lon="-8.7395">
        <ele>117.9</ele>
        <time>2020-04-22T08:51:09Z</time>
      </trkpt>
      <trkpt lat="37.22548" lon="-8.73943">
        <ele>117.9</ele>
        <time>2020-04-22T08:51:10Z</time>
      </trkpt>
      <trkpt lat="37.22546" lon="-8.73935">
        <ele>117.9</ele>
        <time>2020-04-22T08:51:11Z</time>
      </trkpt>
      <trkpt lat="37.22545" lon="-8.73927">
        <ele>117.9</ele>
        <time>2020-04-22T08:51:12Z</time>
      </trkpt>
      <trkpt lat="37.22544" lon="-8.73919">
        <ele>117.9</ele>
        <time>2020-04-22T08:51:13Z</time>
      </trkpt>
      <trkpt lat="37.22543" lon="-8.73911">
        <ele>117.9</ele>
        <time>2020-04-22T08:51:14Z</time>
      </trkpt>
      <trkpt lat="37.22543" lon="-8.73902">
        <ele>117.42</ele>
        <time>2020-04-22T08:51:15Z</time>
      </trkpt>
      <trkpt lat="37.22549" lon="-8.73853">
        <ele>116.46</ele>
        <time>2020-04-22T08:51:21Z</time>
      </trkpt>
      <trkpt lat="37.22549" lon="-8.73845">
        <ele>116.46</ele>
        <time>2020-04-22T08:51:22Z</time>
      </trkpt>
      <trkpt lat="37.2255" lon="-8.73838">
        <ele>116.46</ele>
        <time>2020-04-22T08:51:23Z</time>
      </trkpt>
      <trkpt lat="37.22552" lon="-8.73831">
        <ele>116.46</ele>
        <time>2020-04-22T08:51:24Z</time>
      </trkpt>
      <trkpt lat="37.22554" lon="-8.73825">
        <ele>116.46</ele>
        <time>2020-04-22T08:51:25Z</time>
      </trkpt>
      <trkpt lat="37.22556" lon="-8.73818">
        <ele>116.46</ele>
        <time>2020-04-22T08:51:26Z</time>
      </trkpt>
      <trkpt lat="37.22558" lon="-8.73813">
        <ele>116.46</ele>
        <time>2020-04-22T08:51:27Z</time>
      </trkpt>
      <trkpt lat="37.22561" lon="-8.73807">
        <ele>117.42</ele>
        <time>2020-04-22T08:51:28Z</time>
      </trkpt>
      <trkpt lat="37.22573" lon="-8.7378">
        <ele>117.9</ele>
        <time>2020-04-22T08:51:33Z</time>
      </trkpt>
      <trkpt lat="37.22588" lon="-8.73728">
        <ele>116.94</ele>
        <time>2020-04-22T08:51:41Z</time>
      </trkpt>
      <trkpt lat="37.22591" lon="-8.73722">
        <ele>116.94</ele>
        <time>2020-04-22T08:51:42Z</time>
      </trkpt>
      <trkpt lat="37.2261" lon="-8.73688">
        <ele>115.5</ele>
        <time>2020-04-22T08:51:48Z</time>
      </trkpt>
      <trkpt lat="37.22637" lon="-8.73651">
        <ele>114.05</ele>
        <time>2020-04-22T08:51:54Z</time>
      </trkpt>
      <trkpt lat="37.22641" lon="-8.73643">
        <ele>114.05</ele>
        <time>2020-04-22T08:51:55Z</time>
      </trkpt>
      <trkpt lat="37.22643" lon="-8.73635">
        <ele>113.09</ele>
        <time>2020-04-22T08:51:56Z</time>
      </trkpt>
      <trkpt lat="37.22644" lon="-8.73625">
        <ele>112.61</ele>
        <time>2020-04-22T08:51:57Z</time>
      </trkpt>
      <trkpt lat="37.22645" lon="-8.73616">
        <ele>112.13</ele>
        <time>2020-04-22T08:51:58Z</time>
      </trkpt>
      <trkpt lat="37.22644" lon="-8.73605">
        <ele>112.13</ele>
        <time>2020-04-22T08:51:59Z</time>
      </trkpt>
      <trkpt lat="37.22643" lon="-8.73596">
        <ele>112.13</ele>
        <time>2020-04-22T08:52:00Z</time>
      </trkpt>
      <trkpt lat="37.22632" lon="-8.73533">
        <ele>110.69</ele>
        <time>2020-04-22T08:52:07Z</time>
      </trkpt>
      <trkpt lat="37.22613" lon="-8.73462">
        <ele>109.25</ele>
        <time>2020-04-22T08:52:16Z</time>
      </trkpt>
      <trkpt lat="37.22611" lon="-8.73448">
        <ele>109.25</ele>
        <time>2020-04-22T08:52:18Z</time>
      </trkpt>
      <trkpt lat="37.2261" lon="-8.73441">
        <ele>109.25</ele>
        <time>2020-04-22T08:52:19Z</time>
      </trkpt>
      <trkpt lat="37.22604" lon="-8.73409">
        <ele>109.25</ele>
        <time>2020-04-22T08:52:24Z</time>
      </trkpt>
      <trkpt lat="37.22604" lon="-8.73402">
        <ele>109.25</ele>
        <time>2020-04-22T08:52:25Z</time>
      </trkpt>
      <trkpt lat="37.22608" lon="-8.73336">
        <ele>108.29</ele>
        <time>2020-04-22T08:52:34Z</time>
      </trkpt>
      <trkpt lat="37.22608" lon="-8.73307">
        <ele>108.29</ele>
        <time>2020-04-22T08:52:38Z</time>
      </trkpt>
      <trkpt lat="37.22612" lon="-8.73285">
        <ele>107.32</ele>
        <time>2020-04-22T08:52:41Z</time>
      </trkpt>
      <trkpt lat="37.22615" lon="-8.73278">
        <ele>107.32</ele>
        <time>2020-04-22T08:52:42Z</time>
      </trkpt>
      <trkpt lat="37.22637" lon="-8.73226">
        <ele>105.4</ele>
        <time>2020-04-22T08:52:50Z</time>
      </trkpt>
      <trkpt lat="37.2265" lon="-8.73193">
        <ele>105.4</ele>
        <time>2020-04-22T08:52:55Z</time>
      </trkpt>
      <trkpt lat="37.22651" lon="-8.73187">
        <ele>105.4</ele>
        <time>2020-04-22T08:52:56Z</time>
      </trkpt>
      <trkpt lat="37.22652" lon="-8.7318">
        <ele>105.4</ele>
        <time>2020-04-22T08:52:57Z</time>
      </trkpt>
      <trkpt lat="37.22652" lon="-8.73173">
        <ele>105.4</ele>
        <time>2020-04-22T08:52:58Z</time>
      </trkpt>
      <trkpt lat="37.22653" lon="-8.73167">
        <ele>105.4</ele>
        <time>2020-04-22T08:52:59Z</time>
      </trkpt>
      <trkpt lat="37.22653" lon="-8.7316">
        <ele>105.4</ele>
        <time>2020-04-22T08:53:00Z</time>
      </trkpt>
      <trkpt lat="37.22662" lon="-8.73111">
        <ele>104.92</ele>
        <time>2020-04-22T08:53:07Z</time>
      </trkpt>
      <trkpt lat="37.22678" lon="-8.73049">
        <ele>103.48</ele>
        <time>2020-04-22T08:53:15Z</time>
      </trkpt>
      <trkpt lat="37.22678" lon="-8.73042">
        <ele>103.48</ele>
        <time>2020-04-22T08:53:16Z</time>
      </trkpt>
      <trkpt lat="37.22674" lon="-8.72996">
        <ele>104.92</ele>
        <time>2020-04-22T08:53:23Z</time>
      </trkpt>
      <trkpt lat="37.22671" lon="-8.72947">
        <ele>103.96</ele>
        <time>2020-04-22T08:53:31Z</time>
      </trkpt>
      <trkpt lat="37.22668" lon="-8.72927">
        <ele>107.32</ele>
        <time>2020-04-22T08:53:35Z</time>
      </trkpt>
      <trkpt lat="37.22666" lon="-8.72915">
        <ele>103.96</ele>
        <time>2020-04-22T08:53:38Z</time>
      </trkpt>
      <trkpt lat="37.22664" lon="-8.72906">
        <ele>106.36</ele>
        <time>2020-04-22T08:53:40Z</time>
      </trkpt>
      <trkpt lat="37.22662" lon="-8.72896">
        <ele>105.4</ele>
        <time>2020-04-22T08:53:42Z</time>
      </trkpt>
      <trkpt lat="37.22659" lon="-8.72885">
        <ele>105.4</ele>
        <time>2020-04-22T08:53:44Z</time>
      </trkpt>
      <trkpt lat="37.22653" lon="-8.72863">
        <ele>104.92</ele>
        <time>2020-04-22T08:53:48Z</time>
      </trkpt>
      <trkpt lat="37.2265" lon="-8.72851">
        <ele>104.44</ele>
        <time>2020-04-22T08:53:50Z</time>
      </trkpt>
      <trkpt lat="37.22649" lon="-8.72845">
        <ele>104.44</ele>
        <time>2020-04-22T08:53:51Z</time>
      </trkpt>
      <trkpt lat="37.22648" lon="-8.72839">
        <ele>103.96</ele>
        <time>2020-04-22T08:53:52Z</time>
      </trkpt>
      <trkpt lat="37.22646" lon="-8.72832">
        <ele>103.48</ele>
        <time>2020-04-22T08:53:53Z</time>
      </trkpt>
      <trkpt lat="37.22645" lon="-8.72826">
        <ele>103.48</ele>
        <time>2020-04-22T08:53:54Z</time>
      </trkpt>
      <trkpt lat="37.22643" lon="-8.72819">
        <ele>103.48</ele>
        <time>2020-04-22T08:53:55Z</time>
      </trkpt>
      <trkpt lat="37.22638" lon="-8.728">
        <ele>103</ele>
        <time>2020-04-22T08:53:58Z</time>
      </trkpt>
      <trkpt lat="37.22633" lon="-8.72788">
        <ele>103</ele>
        <time>2020-04-22T08:54:00Z</time>
      </trkpt>
      <trkpt lat="37.22631" lon="-8.72783">
        <ele>103</ele>
        <time>2020-04-22T08:54:01Z</time>
      </trkpt>
      <trkpt lat="37.2263" lon="-8.72777">
        <ele>103</ele>
        <time>2020-04-22T08:54:02Z</time>
      </trkpt>
      <trkpt lat="37.2263" lon="-8.7277">
        <ele>103</ele>
        <time>2020-04-22T08:54:03Z</time>
      </trkpt>
      <trkpt lat="37.22629" lon="-8.72764">
        <ele>102.52</ele>
        <time>2020-04-22T08:54:04Z</time>
      </trkpt>
      <trkpt lat="37.22626" lon="-8.72701">
        <ele>100.6</ele>
        <time>2020-04-22T08:54:13Z</time>
      </trkpt>
      <trkpt lat="37.22624" lon="-8.72688">
        <ele>100.6</ele>
        <time>2020-04-22T08:54:15Z</time>
      </trkpt>
      <trkpt lat="37.22622" lon="-8.72682">
        <ele>100.6</ele>
        <time>2020-04-22T08:54:16Z</time>
      </trkpt>
      <trkpt lat="37.2262" lon="-8.72677">
        <ele>100.11</ele>
        <time>2020-04-22T08:54:17Z</time>
      </trkpt>
      <trkpt lat="37.22607" lon="-8.72647">
        <ele>100.11</ele>
        <time>2020-04-22T08:54:24Z</time>
      </trkpt>
      <trkpt lat="37.22594" lon="-8.72615">
        <ele>99.63</ele>
        <time>2020-04-22T08:54:32Z</time>
      </trkpt>
      <trkpt lat="37.22577" lon="-8.72586">
        <ele>98.19</ele>
        <time>2020-04-22T08:54:38Z</time>
      </trkpt>
      <trkpt lat="37.22573" lon="-8.72582">
        <ele>98.19</ele>
        <time>2020-04-22T08:54:39Z</time>
      </trkpt>
      <trkpt lat="37.22569" lon="-8.72579">
        <ele>98.19</ele>
        <time>2020-04-22T08:54:40Z</time>
      </trkpt>
      <trkpt lat="37.22564" lon="-8.72575">
        <ele>98.19</ele>
        <time>2020-04-22T08:54:41Z</time>
      </trkpt>
      <trkpt lat="37.2256" lon="-8.72573">
        <ele>97.71</ele>
        <time>2020-04-22T08:54:42Z</time>
      </trkpt>
      <trkpt lat="37.22556" lon="-8.72572">
        <ele>97.71</ele>
        <time>2020-04-22T08:54:43Z</time>
      </trkpt>
      <trkpt lat="37.22552" lon="-8.72573">
        <ele>97.71</ele>
        <time>2020-04-22T08:54:44Z</time>
      </trkpt>
      <trkpt lat="37.22548" lon="-8.72576">
        <ele>97.71</ele>
        <time>2020-04-22T08:54:45Z</time>
      </trkpt>
      <trkpt lat="37.22547" lon="-8.72581">
        <ele>97.23</ele>
        <time>2020-04-22T08:54:46Z</time>
      </trkpt>
      <trkpt lat="37.22546" lon="-8.72586">
        <ele>97.23</ele>
        <time>2020-04-22T08:54:47Z</time>
      </trkpt>
      <trkpt lat="37.22547" lon="-8.72591">
        <ele>97.23</ele>
        <time>2020-04-22T08:54:48Z</time>
      </trkpt>
      <trkpt lat="37.22549" lon="-8.72597">
        <ele>97.23</ele>
        <time>2020-04-22T08:54:49Z</time>
      </trkpt>
      <trkpt lat="37.22554" lon="-8.72634">
        <ele>99.15</ele>
        <time>2020-04-22T08:54:56Z</time>
      </trkpt>
      <trkpt lat="37.22552" lon="-8.72638">
        <ele>99.15</ele>
        <time>2020-04-22T08:54:57Z</time>
      </trkpt>
      <trkpt lat="37.22548" lon="-8.7264">
        <ele>99.15</ele>
        <time>2020-04-22T08:54:58Z</time>
      </trkpt>
      <trkpt lat="37.22544" lon="-8.7264">
        <ele>99.15</ele>
        <time>2020-04-22T08:54:59Z</time>
      </trkpt>
      <trkpt lat="37.22539" lon="-8.72638">
        <ele>99.15</ele>
        <time>2020-04-22T08:55:00Z</time>
      </trkpt>
      <trkpt lat="37.22535" lon="-8.72635">
        <ele>99.15</ele>
        <time>2020-04-22T08:55:01Z</time>
      </trkpt>
      <trkpt lat="37.22531" lon="-8.72632">
        <ele>99.15</ele>
        <time>2020-04-22T08:55:02Z</time>
      </trkpt>
      <trkpt lat="37.22527" lon="-8.72627">
        <ele>99.15</ele>
        <time>2020-04-22T08:55:03Z</time>
      </trkpt>
      <trkpt lat="37.22523" lon="-8.72622">
        <ele>97.71</ele>
        <time>2020-04-22T08:55:04Z</time>
      </trkpt>
      <trkpt lat="37.22519" lon="-8.72616">
        <ele>97.23</ele>
        <time>2020-04-22T08:55:05Z</time>
      </trkpt>
      <trkpt lat="37.22508" lon="-8.72598">
        <ele>95.79</ele>
        <time>2020-04-22T08:55:08Z</time>
      </trkpt>
      <trkpt lat="37.22505" lon="-8.72592">
        <ele>95.79</ele>
        <time>2020-04-22T08:55:09Z</time>
      </trkpt>
      <trkpt lat="37.22492" lon="-8.72555">
        <ele>93.87</ele>
        <time>2020-04-22T08:55:14Z</time>
      </trkpt>
      <trkpt lat="37.22488" lon="-8.72549">
        <ele>93.39</ele>
        <time>2020-04-22T08:55:15Z</time>
      </trkpt>
      <trkpt lat="37.22483" lon="-8.72544">
        <ele>93.39</ele>
        <time>2020-04-22T08:55:16Z</time>
      </trkpt>
      <trkpt lat="37.22474" lon="-8.72534">
        <ele>93.39</ele>
        <time>2020-04-22T08:55:18Z</time>
      </trkpt>
      <trkpt lat="37.2247" lon="-8.72528">
        <ele>92.9</ele>
        <time>2020-04-22T08:55:19Z</time>
      </trkpt>
      <trkpt lat="37.22466" lon="-8.72522">
        <ele>92.9</ele>
        <time>2020-04-22T08:55:20Z</time>
      </trkpt>
      <trkpt lat="37.22463" lon="-8.72515">
        <ele>91.94</ele>
        <time>2020-04-22T08:55:21Z</time>
      </trkpt>
      <trkpt lat="37.22459" lon="-8.72509">
        <ele>91.46</ele>
        <time>2020-04-22T08:55:22Z</time>
      </trkpt>
      <trkpt lat="37.22442" lon="-8.72478">
        <ele>91.94</ele>
        <time>2020-04-22T08:55:27Z</time>
      </trkpt>
      <trkpt lat="37.22438" lon="-8.72473">
        <ele>91.46</ele>
        <time>2020-04-22T08:55:28Z</time>
      </trkpt>
      <trkpt lat="37.22433" lon="-8.72469">
        <ele>91.46</ele>
        <time>2020-04-22T08:55:29Z</time>
      </trkpt>
      <trkpt lat="37.22428" lon="-8.72466">
        <ele>90.98</ele>
        <time>2020-04-22T08:55:30Z</time>
      </trkpt>
      <trkpt lat="37.22422" lon="-8.72464">
        <ele>90.02</ele>
        <time>2020-04-22T08:55:31Z</time>
      </trkpt>
      <trkpt lat="37.22415" lon="-8.72462">
        <ele>90.02</ele>
        <time>2020-04-22T08:55:32Z</time>
      </trkpt>
      <trkpt lat="37.22397" lon="-8.72456">
        <ele>90.02</ele>
        <time>2020-04-22T08:55:35Z</time>
      </trkpt>
      <trkpt lat="37.22393" lon="-8.72453">
        <ele>90.02</ele>
        <time>2020-04-22T08:55:36Z</time>
      </trkpt>
      <trkpt lat="37.22389" lon="-8.72449">
        <ele>90.02</ele>
        <time>2020-04-22T08:55:37Z</time>
      </trkpt>
      <trkpt lat="37.22385" lon="-8.72445">
        <ele>90.02</ele>
        <time>2020-04-22T08:55:38Z</time>
      </trkpt>
      <trkpt lat="37.22382" lon="-8.72441">
        <ele>90.02</ele>
        <time>2020-04-22T08:55:39Z</time>
      </trkpt>
      <trkpt lat="37.22352" lon="-8.72409">
        <ele>89.54</ele>
        <time>2020-04-22T08:55:48Z</time>
      </trkpt>
      <trkpt lat="37.22339" lon="-8.72383">
        <ele>89.54</ele>
        <time>2020-04-22T08:55:55Z</time>
      </trkpt>
      <trkpt lat="37.22333" lon="-8.72369">
        <ele>89.54</ele>
        <time>2020-04-22T08:56:00Z</time>
      </trkpt>
      <trkpt lat="37.22323" lon="-8.72339">
        <ele>89.54</ele>
        <time>2020-04-22T08:56:07Z</time>
      </trkpt>
      <trkpt lat="37.22321" lon="-8.72304">
        <ele>88.58</ele>
        <time>2020-04-22T08:56:14Z</time>
      </trkpt>
      <trkpt lat="37.22317" lon="-8.72275">
        <ele>88.58</ele>
        <time>2020-04-22T08:56:21Z</time>
      </trkpt>
      <trkpt lat="37.22313" lon="-8.72237">
        <ele>88.58</ele>
        <time>2020-04-22T08:56:29Z</time>
      </trkpt>
      <trkpt lat="37.22307" lon="-8.72208">
        <ele>88.58</ele>
        <time>2020-04-22T08:56:35Z</time>
      </trkpt>
      <trkpt lat="37.22312" lon="-8.72168">
        <ele>88.58</ele>
        <time>2020-04-22T08:56:43Z</time>
      </trkpt>
      <trkpt lat="37.22313" lon="-8.72163">
        <ele>88.58</ele>
        <time>2020-04-22T08:56:44Z</time>
      </trkpt>
      <trkpt lat="37.22315" lon="-8.72158">
        <ele>88.58</ele>
        <time>2020-04-22T08:56:45Z</time>
      </trkpt>
      <trkpt lat="37.2232" lon="-8.72137">
        <ele>88.58</ele>
        <time>2020-04-22T08:56:49Z</time>
      </trkpt>
      <trkpt lat="37.22321" lon="-8.72131">
        <ele>88.58</ele>
        <time>2020-04-22T08:56:50Z</time>
      </trkpt>
      <trkpt lat="37.22321" lon="-8.72126">
        <ele>88.58</ele>
        <time>2020-04-22T08:56:51Z</time>
      </trkpt>
      <trkpt lat="37.22323" lon="-8.72115">
        <ele>88.58</ele>
        <time>2020-04-22T08:56:53Z</time>
      </trkpt>
      <trkpt lat="37.22324" lon="-8.7211">
        <ele>88.58</ele>
        <time>2020-04-22T08:56:54Z</time>
      </trkpt>
      <trkpt lat="37.22326" lon="-8.72105">
        <ele>88.58</ele>
        <time>2020-04-22T08:56:55Z</time>
      </trkpt>
      <trkpt lat="37.22333" lon="-8.72086">
        <ele>88.58</ele>
        <time>2020-04-22T08:56:59Z</time>
      </trkpt>
      <trkpt lat="37.22341" lon="-8.7207">
        <ele>90.02</ele>
        <time>2020-04-22T08:57:03Z</time>
      </trkpt>
      <trkpt lat="37.22342" lon="-8.72054">
        <ele>90.5</ele>
        <time>2020-04-22T08:57:07Z</time>
      </trkpt>
      <trkpt lat="37.2234" lon="-8.7205">
        <ele>90.5</ele>
        <time>2020-04-22T08:57:08Z</time>
      </trkpt>
      <trkpt lat="37.22338" lon="-8.72046">
        <ele>90.5</ele>
        <time>2020-04-22T08:57:09Z</time>
      </trkpt>
      <trkpt lat="37.22321" lon="-8.72011">
        <ele>90.5</ele>
        <time>2020-04-22T08:57:17Z</time>
      </trkpt>
      <trkpt lat="37.22306" lon="-8.71984">
        <ele>90.5</ele>
        <time>2020-04-22T08:57:25Z</time>
      </trkpt>
      <trkpt lat="37.22296" lon="-8.71971">
        <ele>90.5</ele>
        <time>2020-04-22T08:57:32Z</time>
      </trkpt>
      <trkpt lat="37.22277" lon="-8.71944">
        <ele>90.5</ele>
        <time>2020-04-22T08:57:40Z</time>
      </trkpt>
      <trkpt lat="37.22259" lon="-8.71918">
        <ele>90.5</ele>
        <time>2020-04-22T08:57:47Z</time>
      </trkpt>
      <trkpt lat="37.22245" lon="-8.71889">
        <ele>90.5</ele>
        <time>2020-04-22T08:57:54Z</time>
      </trkpt>
      <trkpt lat="37.22233" lon="-8.71849">
        <ele>90.5</ele>
        <time>2020-04-22T08:58:02Z</time>
      </trkpt>
      <trkpt lat="37.22229" lon="-8.71819">
        <ele>90.5</ele>
        <time>2020-04-22T08:58:08Z</time>
      </trkpt>
      <trkpt lat="37.22231" lon="-8.71808">
        <ele>90.5</ele>
        <time>2020-04-22T08:58:10Z</time>
      </trkpt>
      <trkpt lat="37.22231" lon="-8.71802">
        <ele>90.5</ele>
        <time>2020-04-22T08:58:11Z</time>
      </trkpt>
      <trkpt lat="37.22234" lon="-8.71759">
        <ele>89.54</ele>
        <time>2020-04-22T08:58:19Z</time>
      </trkpt>
      <trkpt lat="37.22235" lon="-8.71754">
        <ele>89.54</ele>
        <time>2020-04-22T08:58:20Z</time>
      </trkpt>
      <trkpt lat="37.22243" lon="-8.71726">
        <ele>89.54</ele>
        <time>2020-04-22T08:58:27Z</time>
      </trkpt>
      <trkpt lat="37.22258" lon="-8.7169">
        <ele>89.54</ele>
        <time>2020-04-22T08:58:36Z</time>
      </trkpt>
      <trkpt lat="37.22272" lon="-8.71658">
        <ele>89.54</ele>
        <time>2020-04-22T08:58:45Z</time>
      </trkpt>
      <trkpt lat="37.22278" lon="-8.7164">
        <ele>89.06</ele>
        <time>2020-04-22T08:58:51Z</time>
      </trkpt>
      <trkpt lat="37.22287" lon="-8.71614">
        <ele>89.06</ele>
        <time>2020-04-22T08:58:57Z</time>
      </trkpt>
      <trkpt lat="37.22299" lon="-8.71573">
        <ele>89.06</ele>
        <time>2020-04-22T08:59:06Z</time>
      </trkpt>
      <trkpt lat="37.22314" lon="-8.71539">
        <ele>90.02</ele>
        <time>2020-04-22T08:59:14Z</time>
      </trkpt>
      <trkpt lat="37.22324" lon="-8.71499">
        <ele>90.02</ele>
        <time>2020-04-22T08:59:22Z</time>
      </trkpt>
      <trkpt lat="37.22329" lon="-8.71451">
        <ele>90.02</ele>
        <time>2020-04-22T08:59:31Z</time>
      </trkpt>
      <trkpt lat="37.22323" lon="-8.71412">
        <ele>90.02</ele>
        <time>2020-04-22T08:59:39Z</time>
      </trkpt>
      <trkpt lat="37.22316" lon="-8.71404">
        <ele>90.02</ele>
        <time>2020-04-22T08:59:43Z</time>
      </trkpt>
      <trkpt lat="37.22315" lon="-8.71403">
        <ele>90.5</ele>
        <time>2020-04-22T08:59:44Z</time>
      </trkpt>
      <trkpt lat="37.22312" lon="-8.71403">
        <ele>90.02</ele>
        <time>2020-04-22T08:59:45Z</time>
      </trkpt>
      <trkpt lat="37.2231" lon="-8.71403">
        <ele>90.5</ele>
        <time>2020-04-22T08:59:46Z</time>
      </trkpt>
      <trkpt lat="37.22308" lon="-8.71404">
        <ele>90.5</ele>
        <time>2020-04-22T08:59:47Z</time>
      </trkpt>
      <trkpt lat="37.22306" lon="-8.71405">
        <ele>90.5</ele>
        <time>2020-04-22T08:59:48Z</time>
      </trkpt>
      <trkpt lat="37.22304" lon="-8.71406">
        <ele>90.5</ele>
        <time>2020-04-22T08:59:49Z</time>
      </trkpt>
      <trkpt lat="37.22301" lon="-8.71406">
        <ele>90.5</ele>
        <time>2020-04-22T08:59:50Z</time>
      </trkpt>
      <trkpt lat="37.22299" lon="-8.71407">
        <ele>90.5</ele>
        <time>2020-04-22T08:59:51Z</time>
      </trkpt>
      <trkpt lat="37.22296" lon="-8.71407">
        <ele>90.5</ele>
        <time>2020-04-22T08:59:52Z</time>
      </trkpt>
      <trkpt lat="37.22293" lon="-8.71407">
        <ele>90.5</ele>
        <time>2020-04-22T08:59:53Z</time>
      </trkpt>
      <trkpt lat="37.2229" lon="-8.71408">
        <ele>90.5</ele>
        <time>2020-04-22T08:59:54Z</time>
      </trkpt>
      <trkpt lat="37.22261" lon="-8.71407">
        <ele>90.5</ele>
        <time>2020-04-22T09:00:02Z</time>
      </trkpt>
      <trkpt lat="37.22229" lon="-8.71413">
        <ele>90.5</ele>
        <time>2020-04-22T09:00:10Z</time>
      </trkpt>
      <trkpt lat="37.2221" lon="-8.71425">
        <ele>90.5</ele>
        <time>2020-04-22T09:00:16Z</time>
      </trkpt>
      <trkpt lat="37.22195" lon="-8.71437">
        <ele>90.5</ele>
        <time>2020-04-22T09:00:21Z</time>
      </trkpt>
      <trkpt lat="37.22191" lon="-8.71436">
        <ele>90.5</ele>
        <time>2020-04-22T09:00:22Z</time>
      </trkpt>
      <trkpt lat="37.22188" lon="-8.71434">
        <ele>90.5</ele>
        <time>2020-04-22T09:00:23Z</time>
      </trkpt>
      <trkpt lat="37.22187" lon="-8.71431">
        <ele>90.5</ele>
        <time>2020-04-22T09:00:24Z</time>
      </trkpt>
      <trkpt lat="37.22187" lon="-8.71427">
        <ele>90.5</ele>
        <time>2020-04-22T09:00:25Z</time>
      </trkpt>
      <trkpt lat="37.22188" lon="-8.71423">
        <ele>90.5</ele>
        <time>2020-04-22T09:00:26Z</time>
      </trkpt>
      <trkpt lat="37.2219" lon="-8.7142">
        <ele>90.5</ele>
        <time>2020-04-22T09:00:27Z</time>
      </trkpt>
      <trkpt lat="37.22205" lon="-8.71395">
        <ele>90.5</ele>
        <time>2020-04-22T09:00:34Z</time>
      </trkpt>
      <trkpt lat="37.22213" lon="-8.71391">
        <ele>90.5</ele>
        <time>2020-04-22T09:00:40Z</time>
      </trkpt>
      <trkpt lat="37.22223" lon="-8.71376">
        <ele>90.5</ele>
        <time>2020-04-22T09:00:48Z</time>
      </trkpt>
      <trkpt lat="37.22236" lon="-8.71362">
        <ele>90.5</ele>
        <time>2020-04-22T09:00:55Z</time>
      </trkpt>
      <trkpt lat="37.2224" lon="-8.7136">
        <ele>89.06</ele>
        <time>2020-04-22T09:00:57Z</time>
      </trkpt>
      <trkpt lat="37.22256" lon="-8.71351">
        <ele>89.06</ele>
        <time>2020-04-22T09:01:03Z</time>
      </trkpt>
      <trkpt lat="37.22275" lon="-8.71343">
        <ele>89.06</ele>
        <time>2020-04-22T09:01:11Z</time>
      </trkpt>
      <trkpt lat="37.22276" lon="-8.71341">
        <ele>89.06</ele>
        <time>2020-04-22T09:01:12Z</time>
      </trkpt>
      <trkpt lat="37.22277" lon="-8.71339">
        <ele>89.06</ele>
        <time>2020-04-22T09:01:13Z</time>
      </trkpt>
      <trkpt lat="37.22277" lon="-8.71336">
        <ele>89.06</ele>
        <time>2020-04-22T09:01:14Z</time>
      </trkpt>
      <trkpt lat="37.22277" lon="-8.71333">
        <ele>89.06</ele>
        <time>2020-04-22T09:01:15Z</time>
      </trkpt>
      <trkpt lat="37.22277" lon="-8.71329">
        <ele>89.06</ele>
        <time>2020-04-22T09:01:16Z</time>
      </trkpt>
      <trkpt lat="37.22276" lon="-8.71325">
        <ele>89.06</ele>
        <time>2020-04-22T09:01:17Z</time>
      </trkpt>
      <trkpt lat="37.22269" lon="-8.71303">
        <ele>89.06</ele>
        <time>2020-04-22T09:01:23Z</time>
      </trkpt>
      <trkpt lat="37.22258" lon="-8.71299">
        <ele>90.5</ele>
        <time>2020-04-22T09:01:27Z</time>
      </trkpt>
      <trkpt lat="37.22242" lon="-8.71307">
        <ele>92.9</ele>
        <time>2020-04-22T09:01:34Z</time>
      </trkpt>
      <trkpt lat="37.22231" lon="-8.71321">
        <ele>95.79</ele>
        <time>2020-04-22T09:01:41Z</time>
      </trkpt>
      <trkpt lat="37.22213" lon="-8.71329">
        <ele>98.19</ele>
        <time>2020-04-22T09:01:50Z</time>
      </trkpt>
      <trkpt lat="37.22193" lon="-8.71335">
        <ele>100.6</ele>
        <time>2020-04-22T09:02:00Z</time>
      </trkpt>
      <trkpt lat="37.22179" lon="-8.71347">
        <ele>103.48</ele>
        <time>2020-04-22T09:02:08Z</time>
      </trkpt>
      <trkpt lat="37.22162" lon="-8.7135">
        <ele>105.4</ele>
        <time>2020-04-22T09:02:17Z</time>
      </trkpt>
      <trkpt lat="37.22148" lon="-8.71346">
        <ele>107.32</ele>
        <time>2020-04-22T09:02:25Z</time>
      </trkpt>
      <trkpt lat="37.22134" lon="-8.71346">
        <ele>109.73</ele>
        <time>2020-04-22T09:02:33Z</time>
      </trkpt>
      <trkpt lat="37.2212" lon="-8.7136">
        <ele>112.61</ele>
        <time>2020-04-22T09:02:43Z</time>
      </trkpt>
      <trkpt lat="37.22107" lon="-8.71377">
        <ele>114.53</ele>
        <time>2020-04-22T09:02:53Z</time>
      </trkpt>
      <trkpt lat="37.22091" lon="-8.71387">
        <ele>116.94</ele>
        <time>2020-04-22T09:03:03Z</time>
      </trkpt>
      <trkpt lat="37.22075" lon="-8.71393">
        <ele>118.86</ele>
        <time>2020-04-22T09:03:12Z</time>
      </trkpt>
      <trkpt lat="37.22063" lon="-8.71407">
        <ele>120.78</ele>
        <time>2020-04-22T09:03:21Z</time>
      </trkpt>
      <trkpt lat="37.22063" lon="-8.71427">
        <ele>122.71</ele>
        <time>2020-04-22T09:03:30Z</time>
      </trkpt>
      <trkpt lat="37.22066" lon="-8.71445">
        <ele>125.11</ele>
        <time>2020-04-22T09:03:38Z</time>
      </trkpt>
      <trkpt lat="37.22061" lon="-8.71458">
        <ele>126.55</ele>
        <time>2020-04-22T09:03:44Z</time>
      </trkpt>
      <trkpt lat="37.22048" lon="-8.71463">
        <ele>127.99</ele>
        <time>2020-04-22T09:03:52Z</time>
      </trkpt>
      <trkpt lat="37.22027" lon="-8.71465">
        <ele>130.88</ele>
        <time>2020-04-22T09:04:04Z</time>
      </trkpt>
      <trkpt lat="37.22015" lon="-8.71475">
        <ele>132.8</ele>
        <time>2020-04-22T09:04:12Z</time>
      </trkpt>
      <trkpt lat="37.21999" lon="-8.71482">
        <ele>134.72</ele>
        <time>2020-04-22T09:04:21Z</time>
      </trkpt>
      <trkpt lat="37.21984" lon="-8.7148">
        <ele>136.16</ele>
        <time>2020-04-22T09:04:29Z</time>
      </trkpt>
      <trkpt lat="37.21971" lon="-8.71472">
        <ele>138.09</ele>
        <time>2020-04-22T09:04:37Z</time>
      </trkpt>
      <trkpt lat="37.2196" lon="-8.71457">
        <ele>140.01</ele>
        <time>2020-04-22T09:04:45Z</time>
      </trkpt>
      <trkpt lat="37.21947" lon="-8.71452">
        <ele>140.97</ele>
        <time>2020-04-22T09:04:52Z</time>
      </trkpt>
      <trkpt lat="37.21929" lon="-8.71453">
        <ele>142.41</ele>
        <time>2020-04-22T09:05:01Z</time>
      </trkpt>
      <trkpt lat="37.21911" lon="-8.7145">
        <ele>144.34</ele>
        <time>2020-04-22T09:05:10Z</time>
      </trkpt>
      <trkpt lat="37.21897" lon="-8.71436">
        <ele>146.74</ele>
        <time>2020-04-22T09:05:20Z</time>
      </trkpt>
      <trkpt lat="37.21884" lon="-8.71421">
        <ele>148.18</ele>
        <time>2020-04-22T09:05:29Z</time>
      </trkpt>
      <trkpt lat="37.21872" lon="-8.71409">
        <ele>149.14</ele>
        <time>2020-04-22T09:05:36Z</time>
      </trkpt>
      <trkpt lat="37.21855" lon="-8.71411">
        <ele>149.62</ele>
        <time>2020-04-22T09:05:44Z</time>
      </trkpt>
      <trkpt lat="37.21826" lon="-8.71418">
        <ele>150.58</ele>
        <time>2020-04-22T09:05:54Z</time>
      </trkpt>
      <trkpt lat="37.21811" lon="-8.71425">
        <ele>150.58</ele>
        <time>2020-04-22T09:05:58Z</time>
      </trkpt>
      <trkpt lat="37.21803" lon="-8.71428">
        <ele>149.62</ele>
        <time>2020-04-22T09:06:00Z</time>
      </trkpt>
      <trkpt lat="37.21794" lon="-8.71432">
        <ele>148.66</ele>
        <time>2020-04-22T09:06:02Z</time>
      </trkpt>
      <trkpt lat="37.21781" lon="-8.71439">
        <ele>148.18</ele>
        <time>2020-04-22T09:06:05Z</time>
      </trkpt>
      <trkpt lat="37.21766" lon="-8.71465">
        <ele>148.66</ele>
        <time>2020-04-22T09:06:11Z</time>
      </trkpt>
      <trkpt lat="37.21765" lon="-8.71471">
        <ele>148.66</ele>
        <time>2020-04-22T09:06:12Z</time>
      </trkpt>
      <trkpt lat="37.21773" lon="-8.71502">
        <ele>148.66</ele>
        <time>2020-04-22T09:06:19Z</time>
      </trkpt>
      <trkpt lat="37.21794" lon="-8.71522">
        <ele>148.66</ele>
        <time>2020-04-22T09:06:26Z</time>
      </trkpt>
      <trkpt lat="37.218" lon="-8.71535">
        <ele>149.62</ele>
        <time>2020-04-22T09:06:29Z</time>
      </trkpt>
      <trkpt lat="37.21817" lon="-8.71568">
        <ele>151.06</ele>
        <time>2020-04-22T09:06:37Z</time>
      </trkpt>
      <trkpt lat="37.21827" lon="-8.71605">
        <ele>152.51</ele>
        <time>2020-04-22T09:06:45Z</time>
      </trkpt>
      <trkpt lat="37.21838" lon="-8.71662">
        <ele>153.95</ele>
        <time>2020-04-22T09:06:57Z</time>
      </trkpt>
      <trkpt lat="37.21852" lon="-8.71699">
        <ele>155.39</ele>
        <time>2020-04-22T09:07:06Z</time>
      </trkpt>
      <trkpt lat="37.2188" lon="-8.7172">
        <ele>157.31</ele>
        <time>2020-04-22T09:07:15Z</time>
      </trkpt>
      <trkpt lat="37.21903" lon="-8.71719">
        <ele>160.2</ele>
        <time>2020-04-22T09:07:23Z</time>
      </trkpt>
      <trkpt lat="37.21928" lon="-8.71717">
        <ele>163.08</ele>
        <time>2020-04-22T09:07:32Z</time>
      </trkpt>
      <trkpt lat="37.21952" lon="-8.71722">
        <ele>166.45</ele>
        <time>2020-04-22T09:07:41Z</time>
      </trkpt>
      <trkpt lat="37.2198" lon="-8.71739">
        <ele>168.85</ele>
        <time>2020-04-22T09:07:52Z</time>
      </trkpt>
      <trkpt lat="37.22005" lon="-8.71746">
        <ele>172.21</ele>
        <time>2020-04-22T09:08:02Z</time>
      </trkpt>
      <trkpt lat="37.22028" lon="-8.7176">
        <ele>174.62</ele>
        <time>2020-04-22T09:08:12Z</time>
      </trkpt>
      <trkpt lat="37.22033" lon="-8.71784">
        <ele>177.5</ele>
        <time>2020-04-22T09:08:20Z</time>
      </trkpt>
      <trkpt lat="37.22028" lon="-8.71813">
        <ele>178.94</ele>
        <time>2020-04-22T09:08:29Z</time>
      </trkpt>
      <trkpt lat="37.22018" lon="-8.71849">
        <ele>180.38</ele>
        <time>2020-04-22T09:08:40Z</time>
      </trkpt>
      <trkpt lat="37.22" lon="-8.71877">
        <ele>181.35</ele>
        <time>2020-04-22T09:08:50Z</time>
      </trkpt>
      <trkpt lat="37.21981" lon="-8.71901">
        <ele>179.9</ele>
        <time>2020-04-22T09:08:57Z</time>
      </trkpt>
      <trkpt lat="37.21973" lon="-8.71916">
        <ele>179.42</ele>
        <time>2020-04-22T09:09:01Z</time>
      </trkpt>
      <trkpt lat="37.21972" lon="-8.71917">
        <ele>178.46</ele>
        <time>2020-04-22T09:09:07Z</time>
      </trkpt>
      <trkpt lat="37.21971" lon="-8.71914">
        <ele>177.98</ele>
        <time>2020-04-22T09:09:26Z</time>
      </trkpt>
      <trkpt lat="37.21971" lon="-8.71915">
        <ele>177.98</ele>
        <time>2020-04-22T09:09:44Z</time>
      </trkpt>
      <trkpt lat="37.2197" lon="-8.71916">
        <ele>178.46</ele>
        <time>2020-04-22T09:10:05Z</time>
      </trkpt>
      <trkpt lat="37.21971" lon="-8.71917">
        <ele>178.46</ele>
        <time>2020-04-22T09:10:23Z</time>
      </trkpt>
      <trkpt lat="37.21972" lon="-8.71916">
        <ele>178.46</ele>
        <time>2020-04-22T09:10:38Z</time>
      </trkpt>
      <trkpt lat="37.21971" lon="-8.71915">
        <ele>178.46</ele>
        <time>2020-04-22T09:10:57Z</time>
      </trkpt>
      <trkpt lat="37.21972" lon="-8.71915">
        <ele>178.46</ele>
        <time>2020-04-22T09:11:15Z</time>
      </trkpt>
      <trkpt lat="37.2197" lon="-8.71914">
        <ele>178.46</ele>
        <time>2020-04-22T09:11:37Z</time>
      </trkpt>
      <trkpt lat="37.21971" lon="-8.71913">
        <ele>178.46</ele>
        <time>2020-04-22T09:11:58Z</time>
      </trkpt>
      <trkpt lat="37.21971" lon="-8.71914">
        <ele>179.9</ele>
        <time>2020-04-22T09:12:16Z</time>
      </trkpt>
      <trkpt lat="37.21971" lon="-8.71918">
        <ele>179.9</ele>
        <time>2020-04-22T09:12:26Z</time>
      </trkpt>
      <trkpt lat="37.21972" lon="-8.71919">
        <ele>179.9</ele>
        <time>2020-04-22T09:12:27Z</time>
      </trkpt>
      <trkpt lat="37.21974" lon="-8.71933">
        <ele>179.9</ele>
        <time>2020-04-22T09:12:34Z</time>
      </trkpt>
      <trkpt lat="37.21975" lon="-8.71936">
        <ele>179.9</ele>
        <time>2020-04-22T09:12:35Z</time>
      </trkpt>
      <trkpt lat="37.21987" lon="-8.71968">
        <ele>180.38</ele>
        <time>2020-04-22T09:12:45Z</time>
      </trkpt>
      <trkpt lat="37.21998" lon="-8.7199">
        <ele>178.94</ele>
        <time>2020-04-22T09:12:51Z</time>
      </trkpt>
      <trkpt lat="37.22011" lon="-8.72027">
        <ele>176.06</ele>
        <time>2020-04-22T09:12:57Z</time>
      </trkpt>
      <trkpt lat="37.22017" lon="-8.72049">
        <ele>174.62</ele>
        <time>2020-04-22T09:13:00Z</time>
      </trkpt>
      <trkpt lat="37.22029" lon="-8.72079">
        <ele>171.73</ele>
        <time>2020-04-22T09:13:04Z</time>
      </trkpt>
      <trkpt lat="37.22053" lon="-8.72116">
        <ele>167.89</ele>
        <time>2020-04-22T09:13:10Z</time>
      </trkpt>
      <trkpt lat="37.22066" lon="-8.72147">
        <ele>165</ele>
        <time>2020-04-22T09:13:14Z</time>
      </trkpt>
      <trkpt lat="37.22081" lon="-8.72199">
        <ele>161.16</ele>
        <time>2020-04-22T09:13:20Z</time>
      </trkpt>
      <trkpt lat="37.22083" lon="-8.72207">
        <ele>160.68</ele>
        <time>2020-04-22T09:13:21Z</time>
      </trkpt>
      <trkpt lat="37.2209" lon="-8.72253">
        <ele>156.83</ele>
        <time>2020-04-22T09:13:26Z</time>
      </trkpt>
      <trkpt lat="37.22102" lon="-8.72293">
        <ele>154.91</ele>
        <time>2020-04-22T09:13:31Z</time>
      </trkpt>
      <trkpt lat="37.22114" lon="-8.72336">
        <ele>150.1</ele>
        <time>2020-04-22T09:13:38Z</time>
      </trkpt>
      <trkpt lat="37.221" lon="-8.72351">
        <ele>147.22</ele>
        <time>2020-04-22T09:13:42Z</time>
      </trkpt>
      <trkpt lat="37.22094" lon="-8.72353">
        <ele>146.26</ele>
        <time>2020-04-22T09:13:43Z</time>
      </trkpt>
      <trkpt lat="37.22089" lon="-8.72357">
        <ele>144.82</ele>
        <time>2020-04-22T09:13:45Z</time>
      </trkpt>
      <trkpt lat="37.22087" lon="-8.72361">
        <ele>144.82</ele>
        <time>2020-04-22T09:13:46Z</time>
      </trkpt>
      <trkpt lat="37.22088" lon="-8.72374">
        <ele>143.37</ele>
        <time>2020-04-22T09:13:49Z</time>
      </trkpt>
      <trkpt lat="37.2209" lon="-8.72377">
        <ele>143.37</ele>
        <time>2020-04-22T09:13:50Z</time>
      </trkpt>
      <trkpt lat="37.22099" lon="-8.72388">
        <ele>144.34</ele>
        <time>2020-04-22T09:13:55Z</time>
      </trkpt>
      <trkpt lat="37.2211" lon="-8.72401">
        <ele>148.18</ele>
        <time>2020-04-22T09:14:01Z</time>
      </trkpt>
      <trkpt lat="37.22122" lon="-8.7242">
        <ele>151.06</ele>
        <time>2020-04-22T09:14:09Z</time>
      </trkpt>
      <trkpt lat="37.22132" lon="-8.72437">
        <ele>154.43</ele>
        <time>2020-04-22T09:14:16Z</time>
      </trkpt>
      <trkpt lat="37.22137" lon="-8.72458">
        <ele>157.79</ele>
        <time>2020-04-22T09:14:23Z</time>
      </trkpt>
      <trkpt lat="37.22137" lon="-8.72461">
        <ele>158.27</ele>
        <time>2020-04-22T09:14:24Z</time>
      </trkpt>
      <trkpt lat="37.2214" lon="-8.72479">
        <ele>160.2</ele>
        <time>2020-04-22T09:14:30Z</time>
      </trkpt>
      <trkpt lat="37.22144" lon="-8.72503">
        <ele>163.56</ele>
        <time>2020-04-22T09:14:38Z</time>
      </trkpt>
      <trkpt lat="37.22156" lon="-8.72526">
        <ele>166.93</ele>
        <time>2020-04-22T09:14:47Z</time>
      </trkpt>
      <trkpt lat="37.22168" lon="-8.72559">
        <ele>169.81</ele>
        <time>2020-04-22T09:14:58Z</time>
      </trkpt>
      <trkpt lat="37.22176" lon="-8.72598">
        <ele>173.66</ele>
        <time>2020-04-22T09:15:10Z</time>
      </trkpt>
      <trkpt lat="37.22183" lon="-8.72632">
        <ele>175.58</ele>
        <time>2020-04-22T09:15:21Z</time>
      </trkpt>
      <trkpt lat="37.22189" lon="-8.72677">
        <ele>177.5</ele>
        <time>2020-04-22T09:15:33Z</time>
      </trkpt>
      <trkpt lat="37.22197" lon="-8.72716">
        <ele>178.46</ele>
        <time>2020-04-22T09:15:43Z</time>
      </trkpt>
      <trkpt lat="37.22215" lon="-8.72749">
        <ele>177.5</ele>
        <time>2020-04-22T09:15:52Z</time>
      </trkpt>
      <trkpt lat="37.22233" lon="-8.72783">
        <ele>178.46</ele>
        <time>2020-04-22T09:16:02Z</time>
      </trkpt>
      <trkpt lat="37.22235" lon="-8.72786">
        <ele>178.46</ele>
        <time>2020-04-22T09:16:03Z</time>
      </trkpt>
      <trkpt lat="37.22242" lon="-8.72811">
        <ele>181.83</ele>
        <time>2020-04-22T09:16:10Z</time>
      </trkpt>
      <trkpt lat="37.22247" lon="-8.72854">
        <ele>184.71</ele>
        <time>2020-04-22T09:16:21Z</time>
      </trkpt>
      <trkpt lat="37.22251" lon="-8.72891">
        <ele>187.59</ele>
        <time>2020-04-22T09:16:31Z</time>
      </trkpt>
      <trkpt lat="37.22258" lon="-8.72913">
        <ele>190.48</ele>
        <time>2020-04-22T09:16:37Z</time>
      </trkpt>
      <trkpt lat="37.22277" lon="-8.72947">
        <ele>193.84</ele>
        <time>2020-04-22T09:16:48Z</time>
      </trkpt>
      <trkpt lat="37.22286" lon="-8.72975">
        <ele>197.21</ele>
        <time>2020-04-22T09:16:56Z</time>
      </trkpt>
      <trkpt lat="37.22289" lon="-8.73012">
        <ele>198.65</ele>
        <time>2020-04-22T09:17:06Z</time>
      </trkpt>
      <trkpt lat="37.22286" lon="-8.73051">
        <ele>199.13</ele>
        <time>2020-04-22T09:17:16Z</time>
      </trkpt>
      <trkpt lat="37.22279" lon="-8.73072">
        <ele>196.25</ele>
        <time>2020-04-22T09:17:22Z</time>
      </trkpt>
      <trkpt lat="37.22269" lon="-8.7309">
        <ele>192.4</ele>
        <time>2020-04-22T09:17:27Z</time>
      </trkpt>
      <trkpt lat="37.22266" lon="-8.73095">
        <ele>191.44</ele>
        <time>2020-04-22T09:17:28Z</time>
      </trkpt>
      <trkpt lat="37.22257" lon="-8.73114">
        <ele>187.11</ele>
        <time>2020-04-22T09:17:32Z</time>
      </trkpt>
      <trkpt lat="37.2225" lon="-8.73133">
        <ele>183.27</ele>
        <time>2020-04-22T09:17:35Z</time>
      </trkpt>
      <trkpt lat="37.22246" lon="-8.73148">
        <ele>181.83</ele>
        <time>2020-04-22T09:17:37Z</time>
      </trkpt>
      <trkpt lat="37.22245" lon="-8.73157">
        <ele>180.87</ele>
        <time>2020-04-22T09:17:38Z</time>
      </trkpt>
      <trkpt lat="37.22245" lon="-8.73165">
        <ele>180.38</ele>
        <time>2020-04-22T09:17:39Z</time>
      </trkpt>
      <trkpt lat="37.22246" lon="-8.73183">
        <ele>178.46</ele>
        <time>2020-04-22T09:17:41Z</time>
      </trkpt>
      <trkpt lat="37.22248" lon="-8.73193">
        <ele>178.46</ele>
        <time>2020-04-22T09:17:42Z</time>
      </trkpt>
      <trkpt lat="37.22254" lon="-8.73222">
        <ele>177.02</ele>
        <time>2020-04-22T09:17:45Z</time>
      </trkpt>
      <trkpt lat="37.22264" lon="-8.7326">
        <ele>177.02</ele>
        <time>2020-04-22T09:17:50Z</time>
      </trkpt>
      <trkpt lat="37.2227" lon="-8.73281">
        <ele>177.02</ele>
        <time>2020-04-22T09:17:55Z</time>
      </trkpt>
      <trkpt lat="37.22263" lon="-8.73309">
        <ele>177.02</ele>
        <time>2020-04-22T09:18:02Z</time>
      </trkpt>
      <trkpt lat="37.22255" lon="-8.73321">
        <ele>178.46</ele>
        <time>2020-04-22T09:18:06Z</time>
      </trkpt>
      <trkpt lat="37.22242" lon="-8.73337">
        <ele>181.83</ele>
        <time>2020-04-22T09:18:12Z</time>
      </trkpt>
      <trkpt lat="37.2224" lon="-8.73339">
        <ele>181.83</ele>
        <time>2020-04-22T09:18:13Z</time>
      </trkpt>
      <trkpt lat="37.22229" lon="-8.73351">
        <ele>185.19</ele>
        <time>2020-04-22T09:18:18Z</time>
      </trkpt>
      <trkpt lat="37.22216" lon="-8.73365">
        <ele>188.56</ele>
        <time>2020-04-22T09:18:24Z</time>
      </trkpt>
      <trkpt lat="37.22208" lon="-8.73372">
        <ele>190.48</ele>
        <time>2020-04-22T09:18:28Z</time>
      </trkpt>
      <trkpt lat="37.22196" lon="-8.73382">
        <ele>190.96</ele>
        <time>2020-04-22T09:18:35Z</time>
      </trkpt>
      <trkpt lat="37.22181" lon="-8.73392">
        <ele>189.52</ele>
        <time>2020-04-22T09:18:43Z</time>
      </trkpt>
      <trkpt lat="37.22181" lon="-8.7339">
        <ele>188.56</ele>
        <time>2020-04-22T09:18:52Z</time>
      </trkpt>
      <trkpt lat="37.22181" lon="-8.7339">
        <ele>188.56</ele>
        <time>2020-04-22T09:19:09Z</time>
      </trkpt>
      <trkpt lat="37.22182" lon="-8.7339">
        <ele>188.56</ele>
        <time>2020-04-22T09:19:26Z</time>
      </trkpt>
      <trkpt lat="37.22182" lon="-8.73389">
        <ele>188.56</ele>
        <time>2020-04-22T09:19:42Z</time>
      </trkpt>
      <trkpt lat="37.2218" lon="-8.73389">
        <ele>188.56</ele>
        <time>2020-04-22T09:19:55Z</time>
      </trkpt>
      <trkpt lat="37.22167" lon="-8.73383">
        <ele>188.56</ele>
        <time>2020-04-22T09:20:01Z</time>
      </trkpt>
      <trkpt lat="37.22142" lon="-8.73369">
        <ele>188.08</ele>
        <time>2020-04-22T09:20:08Z</time>
      </trkpt>
      <trkpt lat="37.22122" lon="-8.73354">
        <ele>188.08</ele>
        <time>2020-04-22T09:20:15Z</time>
      </trkpt>
      <trkpt lat="37.22116" lon="-8.7335">
        <ele>189.52</ele>
        <time>2020-04-22T09:20:17Z</time>
      </trkpt>
      <trkpt lat="37.22101" lon="-8.73339">
        <ele>192.4</ele>
        <time>2020-04-22T09:20:23Z</time>
      </trkpt>
      <trkpt lat="37.22079" lon="-8.73322">
        <ele>194.8</ele>
        <time>2020-04-22T09:20:32Z</time>
      </trkpt>
      <trkpt lat="37.22074" lon="-8.73317">
        <ele>195.28</ele>
        <time>2020-04-22T09:20:34Z</time>
      </trkpt>
      <trkpt lat="37.22069" lon="-8.73299">
        <ele>192.4</ele>
        <time>2020-04-22T09:20:38Z</time>
      </trkpt>
      <trkpt lat="37.22072" lon="-8.73281">
        <ele>190</ele>
        <time>2020-04-22T09:20:41Z</time>
      </trkpt>
      <trkpt lat="37.2207" lon="-8.73266">
        <ele>188.56</ele>
        <time>2020-04-22T09:20:44Z</time>
      </trkpt>
      <trkpt lat="37.22067" lon="-8.73261">
        <ele>187.59</ele>
        <time>2020-04-22T09:20:45Z</time>
      </trkpt>
      <trkpt lat="37.2205" lon="-8.73239">
        <ele>182.79</ele>
        <time>2020-04-22T09:20:50Z</time>
      </trkpt>
      <trkpt lat="37.22038" lon="-8.73225">
        <ele>179.9</ele>
        <time>2020-04-22T09:20:53Z</time>
      </trkpt>
      <trkpt lat="37.22026" lon="-8.73209">
        <ele>176.06</ele>
        <time>2020-04-22T09:20:56Z</time>
      </trkpt>
      <trkpt lat="37.22014" lon="-8.73191">
        <ele>172.69</ele>
        <time>2020-04-22T09:20:59Z</time>
      </trkpt>
      <trkpt lat="37.21986" lon="-8.73161">
        <ele>169.81</ele>
        <time>2020-04-22T09:21:04Z</time>
      </trkpt>
      <trkpt lat="37.21968" lon="-8.73147">
        <ele>171.73</ele>
        <time>2020-04-22T09:21:08Z</time>
      </trkpt>
      <trkpt lat="37.21951" lon="-8.73131">
        <ele>175.1</ele>
        <time>2020-04-22T09:21:16Z</time>
      </trkpt>
      <trkpt lat="37.2194" lon="-8.73121">
        <ele>178.46</ele>
        <time>2020-04-22T09:21:22Z</time>
      </trkpt>
      <trkpt lat="37.21924" lon="-8.7311">
        <ele>181.83</ele>
        <time>2020-04-22T09:21:29Z</time>
      </trkpt>
      <trkpt lat="37.21907" lon="-8.73099">
        <ele>184.71</ele>
        <time>2020-04-22T09:21:36Z</time>
      </trkpt>
      <trkpt lat="37.21901" lon="-8.73096">
        <ele>186.15</ele>
        <time>2020-04-22T09:21:39Z</time>
      </trkpt>
      <trkpt lat="37.21889" lon="-8.73087">
        <ele>189.52</ele>
        <time>2020-04-22T09:21:45Z</time>
      </trkpt>
      <trkpt lat="37.21871" lon="-8.73073">
        <ele>191.92</ele>
        <time>2020-04-22T09:21:54Z</time>
      </trkpt>
      <trkpt lat="37.21852" lon="-8.73061">
        <ele>193.84</ele>
        <time>2020-04-22T09:22:02Z</time>
      </trkpt>
      <trkpt lat="37.21831" lon="-8.73056">
        <ele>195.77</ele>
        <time>2020-04-22T09:22:11Z</time>
      </trkpt>
      <trkpt lat="37.21812" lon="-8.73067">
        <ele>195.77</ele>
        <time>2020-04-22T09:22:18Z</time>
      </trkpt>
      <trkpt lat="37.21778" lon="-8.73095">
        <ele>196.73</ele>
        <time>2020-04-22T09:22:30Z</time>
      </trkpt>
      <trkpt lat="37.21755" lon="-8.73103">
        <ele>196.73</ele>
        <time>2020-04-22T09:22:37Z</time>
      </trkpt>
      <trkpt lat="37.21747" lon="-8.73102">
        <ele>194.8</ele>
        <time>2020-04-22T09:22:39Z</time>
      </trkpt>
      <trkpt lat="37.21721" lon="-8.731">
        <ele>191.44</ele>
        <time>2020-04-22T09:22:44Z</time>
      </trkpt>
      <trkpt lat="37.21716" lon="-8.73099">
        <ele>190.96</ele>
        <time>2020-04-22T09:22:45Z</time>
      </trkpt>
      <trkpt lat="37.2168" lon="-8.73085">
        <ele>187.11</ele>
        <time>2020-04-22T09:22:52Z</time>
      </trkpt>
      <trkpt lat="37.21669" lon="-8.73081">
        <ele>185.67</ele>
        <time>2020-04-22T09:22:54Z</time>
      </trkpt>
      <trkpt lat="37.21641" lon="-8.73082">
        <ele>182.79</ele>
        <time>2020-04-22T09:22:59Z</time>
      </trkpt>
      <trkpt lat="37.21632" lon="-8.73087">
        <ele>181.35</ele>
        <time>2020-04-22T09:23:01Z</time>
      </trkpt>
      <trkpt lat="37.21601" lon="-8.73085">
        <ele>177.02</ele>
        <time>2020-04-22T09:23:06Z</time>
      </trkpt>
      <trkpt lat="37.21562" lon="-8.73066">
        <ele>177.5</ele>
        <time>2020-04-22T09:23:12Z</time>
      </trkpt>
      <trkpt lat="37.21544" lon="-8.73057">
        <ele>179.42</ele>
        <time>2020-04-22T09:23:18Z</time>
      </trkpt>
      <trkpt lat="37.2152" lon="-8.73046">
        <ele>182.31</ele>
        <time>2020-04-22T09:23:26Z</time>
      </trkpt>
      <trkpt lat="37.21499" lon="-8.73041">
        <ele>183.75</ele>
        <time>2020-04-22T09:23:33Z</time>
      </trkpt>
      <trkpt lat="37.21471" lon="-8.73049">
        <ele>185.19</ele>
        <time>2020-04-22T09:23:42Z</time>
      </trkpt>
      <trkpt lat="37.2145" lon="-8.73067">
        <ele>186.15</ele>
        <time>2020-04-22T09:23:50Z</time>
      </trkpt>
      <trkpt lat="37.21426" lon="-8.73067">
        <ele>183.75</ele>
        <time>2020-04-22T09:23:55Z</time>
      </trkpt>
      <trkpt lat="37.21391" lon="-8.73048">
        <ele>178.94</ele>
        <time>2020-04-22T09:24:01Z</time>
      </trkpt>
      <trkpt lat="37.21361" lon="-8.73046">
        <ele>176.54</ele>
        <time>2020-04-22T09:24:06Z</time>
      </trkpt>
      <trkpt lat="37.21356" lon="-8.73048">
        <ele>175.1</ele>
        <time>2020-04-22T09:24:07Z</time>
      </trkpt>
      <trkpt lat="37.21332" lon="-8.73052">
        <ele>172.69</ele>
        <time>2020-04-22T09:24:11Z</time>
      </trkpt>
      <trkpt lat="37.21316" lon="-8.73038">
        <ele>171.73</ele>
        <time>2020-04-22T09:24:14Z</time>
      </trkpt>
      <trkpt lat="37.2129" lon="-8.73005">
        <ele>172.21</ele>
        <time>2020-04-22T09:24:21Z</time>
      </trkpt>
      <trkpt lat="37.21281" lon="-8.72992">
        <ele>173.17</ele>
        <time>2020-04-22T09:24:25Z</time>
      </trkpt>
      <trkpt lat="37.21249" lon="-8.72956">
        <ele>176.54</ele>
        <time>2020-04-22T09:24:38Z</time>
      </trkpt>
      <trkpt lat="37.21239" lon="-8.72935">
        <ele>176.54</ele>
        <time>2020-04-22T09:24:45Z</time>
      </trkpt>
      <trkpt lat="37.21236" lon="-8.72933">
        <ele>176.54</ele>
        <time>2020-04-22T09:24:46Z</time>
      </trkpt>
      <trkpt lat="37.21234" lon="-8.72933">
        <ele>176.54</ele>
        <time>2020-04-22T09:24:47Z</time>
      </trkpt>
      <trkpt lat="37.21231" lon="-8.72934">
        <ele>176.54</ele>
        <time>2020-04-22T09:24:48Z</time>
      </trkpt>
      <trkpt lat="37.21228" lon="-8.72935">
        <ele>176.54</ele>
        <time>2020-04-22T09:24:49Z</time>
      </trkpt>
      <trkpt lat="37.21225" lon="-8.72937">
        <ele>176.54</ele>
        <time>2020-04-22T09:24:50Z</time>
      </trkpt>
      <trkpt lat="37.21223" lon="-8.72939">
        <ele>176.54</ele>
        <time>2020-04-22T09:24:51Z</time>
      </trkpt>
      <trkpt lat="37.21222" lon="-8.72941">
        <ele>176.54</ele>
        <time>2020-04-22T09:24:52Z</time>
      </trkpt>
      <trkpt lat="37.21221" lon="-8.72943">
        <ele>176.54</ele>
        <time>2020-04-22T09:24:53Z</time>
      </trkpt>
      <trkpt lat="37.2122" lon="-8.72946">
        <ele>176.54</ele>
        <time>2020-04-22T09:24:54Z</time>
      </trkpt>
      <trkpt lat="37.21219" lon="-8.72949">
        <ele>176.54</ele>
        <time>2020-04-22T09:24:55Z</time>
      </trkpt>
      <trkpt lat="37.21219" lon="-8.72952">
        <ele>177.02</ele>
        <time>2020-04-22T09:24:56Z</time>
      </trkpt>
      <trkpt lat="37.21218" lon="-8.72955">
        <ele>177.5</ele>
        <time>2020-04-22T09:24:57Z</time>
      </trkpt>
      <trkpt lat="37.21218" lon="-8.72958">
        <ele>178.46</ele>
        <time>2020-04-22T09:24:58Z</time>
      </trkpt>
      <trkpt lat="37.21217" lon="-8.72961">
        <ele>178.46</ele>
        <time>2020-04-22T09:24:59Z</time>
      </trkpt>
      <trkpt lat="37.21216" lon="-8.72964">
        <ele>178.46</ele>
        <time>2020-04-22T09:25:00Z</time>
      </trkpt>
      <trkpt lat="37.21202" lon="-8.73002">
        <ele>181.35</ele>
        <time>2020-04-22T09:25:12Z</time>
      </trkpt>
      <trkpt lat="37.21189" lon="-8.73041">
        <ele>182.79</ele>
        <time>2020-04-22T09:25:23Z</time>
      </trkpt>
      <trkpt lat="37.21173" lon="-8.73068">
        <ele>181.35</ele>
        <time>2020-04-22T09:25:30Z</time>
      </trkpt>
      <trkpt lat="37.21153" lon="-8.73092">
        <ele>182.79</ele>
        <time>2020-04-22T09:25:38Z</time>
      </trkpt>
      <trkpt lat="37.21126" lon="-8.73119">
        <ele>185.67</ele>
        <time>2020-04-22T09:25:49Z</time>
      </trkpt>
      <trkpt lat="37.21099" lon="-8.7314">
        <ele>186.15</ele>
        <time>2020-04-22T09:25:58Z</time>
      </trkpt>
      <trkpt lat="37.21084" lon="-8.73152">
        <ele>182.79</ele>
        <time>2020-04-22T09:26:01Z</time>
      </trkpt>
      <trkpt lat="37.21047" lon="-8.73182">
        <ele>180.38</ele>
        <time>2020-04-22T09:26:08Z</time>
      </trkpt>
      <trkpt lat="37.2103" lon="-8.73194">
        <ele>181.83</ele>
        <time>2020-04-22T09:26:13Z</time>
      </trkpt>
      <trkpt lat="37.21015" lon="-8.73204">
        <ele>185.19</ele>
        <time>2020-04-22T09:26:19Z</time>
      </trkpt>
      <trkpt lat="37.21002" lon="-8.7321">
        <ele>188.56</ele>
        <time>2020-04-22T09:26:25Z</time>
      </trkpt>
      <trkpt lat="37.21" lon="-8.73209">
        <ele>188.56</ele>
        <time>2020-04-22T09:26:26Z</time>
      </trkpt>
      <trkpt lat="37.20998" lon="-8.73208">
        <ele>188.56</ele>
        <time>2020-04-22T09:26:27Z</time>
      </trkpt>
      <trkpt lat="37.20996" lon="-8.73206">
        <ele>188.56</ele>
        <time>2020-04-22T09:26:28Z</time>
      </trkpt>
      <trkpt lat="37.20994" lon="-8.73204">
        <ele>189.04</ele>
        <time>2020-04-22T09:26:29Z</time>
      </trkpt>
      <trkpt lat="37.20992" lon="-8.73201">
        <ele>189.04</ele>
        <time>2020-04-22T09:26:30Z</time>
      </trkpt>
      <trkpt lat="37.2099" lon="-8.73198">
        <ele>189.04</ele>
        <time>2020-04-22T09:26:31Z</time>
      </trkpt>
      <trkpt lat="37.20981" lon="-8.73184">
        <ele>187.59</ele>
        <time>2020-04-22T09:26:35Z</time>
      </trkpt>
      <trkpt lat="37.20959" lon="-8.73151">
        <ele>185.19</ele>
        <time>2020-04-22T09:26:43Z</time>
      </trkpt>
      <trkpt lat="37.20953" lon="-8.73139">
        <ele>183.75</ele>
        <time>2020-04-22T09:26:46Z</time>
      </trkpt>
      <trkpt lat="37.20944" lon="-8.73123">
        <ele>180.38</ele>
        <time>2020-04-22T09:26:50Z</time>
      </trkpt>
      <trkpt lat="37.20937" lon="-8.73107">
        <ele>177.5</ele>
        <time>2020-04-22T09:26:54Z</time>
      </trkpt>
      <trkpt lat="37.20929" lon="-8.73091">
        <ele>174.14</ele>
        <time>2020-04-22T09:26:58Z</time>
      </trkpt>
      <trkpt lat="37.20921" lon="-8.73076">
        <ele>170.29</ele>
        <time>2020-04-22T09:27:02Z</time>
      </trkpt>
      <trkpt lat="37.20913" lon="-8.73062">
        <ele>166.93</ele>
        <time>2020-04-22T09:27:06Z</time>
      </trkpt>
      <trkpt lat="37.209" lon="-8.73047">
        <ele>163.08</ele>
        <time>2020-04-22T09:27:10Z</time>
      </trkpt>
      <trkpt lat="37.20888" lon="-8.73033">
        <ele>159.72</ele>
        <time>2020-04-22T09:27:14Z</time>
      </trkpt>
      <trkpt lat="37.20875" lon="-8.73022">
        <ele>156.35</ele>
        <time>2020-04-22T09:27:18Z</time>
      </trkpt>
      <trkpt lat="37.20857" lon="-8.73024">
        <ele>155.39</ele>
        <time>2020-04-22T09:27:23Z</time>
      </trkpt>
      <trkpt lat="37.20833" lon="-8.73029">
        <ele>152.51</ele>
        <time>2020-04-22T09:27:29Z</time>
      </trkpt>
      <trkpt lat="37.20829" lon="-8.73031">
        <ele>152.51</ele>
        <time>2020-04-22T09:27:30Z</time>
      </trkpt>
      <trkpt lat="37.20808" lon="-8.73041">
        <ele>149.62</ele>
        <time>2020-04-22T09:27:35Z</time>
      </trkpt>
      <trkpt lat="37.20801" lon="-8.73047">
        <ele>147.7</ele>
        <time>2020-04-22T09:27:37Z</time>
      </trkpt>
      <trkpt lat="37.20789" lon="-8.73058">
        <ele>145.78</ele>
        <time>2020-04-22T09:27:40Z</time>
      </trkpt>
      <trkpt lat="37.20785" lon="-8.73061">
        <ele>144.82</ele>
        <time>2020-04-22T09:27:41Z</time>
      </trkpt>
      <trkpt lat="37.20759" lon="-8.73075">
        <ele>144.82</ele>
        <time>2020-04-22T09:27:48Z</time>
      </trkpt>
      <trkpt lat="37.20749" lon="-8.73088">
        <ele>144.82</ele>
        <time>2020-04-22T09:27:54Z</time>
      </trkpt>
      <trkpt lat="37.20738" lon="-8.73106">
        <ele>144.82</ele>
        <time>2020-04-22T09:28:01Z</time>
      </trkpt>
      <trkpt lat="37.20715" lon="-8.73124">
        <ele>144.34</ele>
        <time>2020-04-22T09:28:10Z</time>
      </trkpt>
      <trkpt lat="37.20689" lon="-8.73136">
        <ele>144.34</ele>
        <time>2020-04-22T09:28:19Z</time>
      </trkpt>
      <trkpt lat="37.20669" lon="-8.7315">
        <ele>144.34</ele>
        <time>2020-04-22T09:28:26Z</time>
      </trkpt>
      <trkpt lat="37.20657" lon="-8.73171">
        <ele>143.37</ele>
        <time>2020-04-22T09:28:31Z</time>
      </trkpt>
      <trkpt lat="37.20654" lon="-8.73175">
        <ele>142.41</ele>
        <time>2020-04-22T09:28:32Z</time>
      </trkpt>
      <trkpt lat="37.2065" lon="-8.73177">
        <ele>141.93</ele>
        <time>2020-04-22T09:28:33Z</time>
      </trkpt>
      <trkpt lat="37.20645" lon="-8.73179">
        <ele>141.45</ele>
        <time>2020-04-22T09:28:34Z</time>
      </trkpt>
      <trkpt lat="37.2064" lon="-8.73178">
        <ele>141.45</ele>
        <time>2020-04-22T09:28:35Z</time>
      </trkpt>
      <trkpt lat="37.20635" lon="-8.73178">
        <ele>141.45</ele>
        <time>2020-04-22T09:28:36Z</time>
      </trkpt>
      <trkpt lat="37.2063" lon="-8.73176">
        <ele>141.45</ele>
        <time>2020-04-22T09:28:37Z</time>
      </trkpt>
      <trkpt lat="37.20605" lon="-8.73167">
        <ele>141.45</ele>
        <time>2020-04-22T09:28:44Z</time>
      </trkpt>
      <trkpt lat="37.2058" lon="-8.73163">
        <ele>141.45</ele>
        <time>2020-04-22T09:28:51Z</time>
      </trkpt>
      <trkpt lat="37.20558" lon="-8.7316">
        <ele>138.09</ele>
        <time>2020-04-22T09:28:55Z</time>
      </trkpt>
      <trkpt lat="37.20524" lon="-8.73159">
        <ele>135.2</ele>
        <time>2020-04-22T09:29:00Z</time>
      </trkpt>
      <trkpt lat="37.20494" lon="-8.73157">
        <ele>134.24</ele>
        <time>2020-04-22T09:29:05Z</time>
      </trkpt>
      <trkpt lat="37.20489" lon="-8.73156">
        <ele>133.76</ele>
        <time>2020-04-22T09:29:06Z</time>
      </trkpt>
      <trkpt lat="37.20465" lon="-8.7315">
        <ele>133.76</ele>
        <time>2020-04-22T09:29:12Z</time>
      </trkpt>
      <trkpt lat="37.20441" lon="-8.73143">
        <ele>132.32</ele>
        <time>2020-04-22T09:29:17Z</time>
      </trkpt>
      <trkpt lat="37.20413" lon="-8.73133">
        <ele>130.4</ele>
        <time>2020-04-22T09:29:22Z</time>
      </trkpt>
      <trkpt lat="37.20409" lon="-8.7313">
        <ele>129.92</ele>
        <time>2020-04-22T09:29:23Z</time>
      </trkpt>
      <trkpt lat="37.20401" lon="-8.73123">
        <ele>129.43</ele>
        <time>2020-04-22T09:29:25Z</time>
      </trkpt>
      <trkpt lat="37.20383" lon="-8.73103">
        <ele>125.59</ele>
        <time>2020-04-22T09:29:29Z</time>
      </trkpt>
      <trkpt lat="37.20368" lon="-8.73087">
        <ele>123.67</ele>
        <time>2020-04-22T09:29:32Z</time>
      </trkpt>
      <trkpt lat="37.20349" lon="-8.73069">
        <ele>123.67</ele>
        <time>2020-04-22T09:29:36Z</time>
      </trkpt>
      <trkpt lat="37.20314" lon="-8.73049">
        <ele>123.67</ele>
        <time>2020-04-22T09:29:44Z</time>
      </trkpt>
      <trkpt lat="37.20292" lon="-8.73037">
        <ele>123.67</ele>
        <time>2020-04-22T09:29:50Z</time>
      </trkpt>
      <trkpt lat="37.20271" lon="-8.73031">
        <ele>119.82</ele>
        <time>2020-04-22T09:29:54Z</time>
      </trkpt>
      <trkpt lat="37.20241" lon="-8.73024">
        <ele>116.94</ele>
        <time>2020-04-22T09:29:59Z</time>
      </trkpt>
      <trkpt lat="37.20224" lon="-8.7302">
        <ele>115.98</ele>
        <time>2020-04-22T09:30:02Z</time>
      </trkpt>
      <trkpt lat="37.20208" lon="-8.73015">
        <ele>114.05</ele>
        <time>2020-04-22T09:30:05Z</time>
      </trkpt>
      <trkpt lat="37.20204" lon="-8.73015">
        <ele>113.57</ele>
        <time>2020-04-22T09:30:06Z</time>
      </trkpt>
      <trkpt lat="37.20201" lon="-8.73016">
        <ele>113.57</ele>
        <time>2020-04-22T09:30:07Z</time>
      </trkpt>
      <trkpt lat="37.20199" lon="-8.73018">
        <ele>113.09</ele>
        <time>2020-04-22T09:30:08Z</time>
      </trkpt>
      <trkpt lat="37.20196" lon="-8.73019">
        <ele>113.09</ele>
        <time>2020-04-22T09:30:09Z</time>
      </trkpt>
      <trkpt lat="37.20194" lon="-8.73021">
        <ele>113.09</ele>
        <time>2020-04-22T09:30:10Z</time>
      </trkpt>
      <trkpt lat="37.20192" lon="-8.73023">
        <ele>113.09</ele>
        <time>2020-04-22T09:30:11Z</time>
      </trkpt>
      <trkpt lat="37.20181" lon="-8.73041">
        <ele>113.09</ele>
        <time>2020-04-22T09:30:17Z</time>
      </trkpt>
      <trkpt lat="37.20168" lon="-8.7306">
        <ele>111.65</ele>
        <time>2020-04-22T09:30:23Z</time>
      </trkpt>
      <trkpt lat="37.20163" lon="-8.73067">
        <ele>110.69</ele>
        <time>2020-04-22T09:30:25Z</time>
      </trkpt>
      <trkpt lat="37.20157" lon="-8.73073">
        <ele>108.77</ele>
        <time>2020-04-22T09:30:27Z</time>
      </trkpt>
      <trkpt lat="37.20153" lon="-8.73076">
        <ele>107.81</ele>
        <time>2020-04-22T09:30:28Z</time>
      </trkpt>
      <trkpt lat="37.20141" lon="-8.73084">
        <ele>104.44</ele>
        <time>2020-04-22T09:30:31Z</time>
      </trkpt>
      <trkpt lat="37.20132" lon="-8.7309">
        <ele>101.56</ele>
        <time>2020-04-22T09:30:33Z</time>
      </trkpt>
      <trkpt lat="37.2011" lon="-8.73107">
        <ele>98.19</ele>
        <time>2020-04-22T09:30:37Z</time>
      </trkpt>
      <trkpt lat="37.20083" lon="-8.73131">
        <ele>98.19</ele>
        <time>2020-04-22T09:30:43Z</time>
      </trkpt>
      <trkpt lat="37.20069" lon="-8.73145">
        <ele>98.19</ele>
        <time>2020-04-22T09:30:47Z</time>
      </trkpt>
      <trkpt lat="37.20057" lon="-8.73156">
        <ele>101.56</ele>
        <time>2020-04-22T09:30:51Z</time>
      </trkpt>
      <trkpt lat="37.20034" lon="-8.7317">
        <ele>104.92</ele>
        <time>2020-04-22T09:31:00Z</time>
      </trkpt>
      <trkpt lat="37.20016" lon="-8.73189">
        <ele>103.96</ele>
        <time>2020-04-22T09:31:06Z</time>
      </trkpt>
      <trkpt lat="37.19997" lon="-8.73197">
        <ele>103.96</ele>
        <time>2020-04-22T09:31:13Z</time>
      </trkpt>
      <trkpt lat="37.19971" lon="-8.73196">
        <ele>100.6</ele>
        <time>2020-04-22T09:31:21Z</time>
      </trkpt>
      <trkpt lat="37.19963" lon="-8.73196">
        <ele>99.15</ele>
        <time>2020-04-22T09:31:23Z</time>
      </trkpt>
      <trkpt lat="37.19946" lon="-8.73211">
        <ele>95.79</ele>
        <time>2020-04-22T09:31:29Z</time>
      </trkpt>
      <trkpt lat="37.19945" lon="-8.73216">
        <ele>95.79</ele>
        <time>2020-04-22T09:31:31Z</time>
      </trkpt>
      <trkpt lat="37.19939" lon="-8.73241">
        <ele>91.46</ele>
        <time>2020-04-22T09:31:38Z</time>
      </trkpt>
      <trkpt lat="37.19935" lon="-8.73253">
        <ele>89.06</ele>
        <time>2020-04-22T09:31:40Z</time>
      </trkpt>
      <trkpt lat="37.1993" lon="-8.73263">
        <ele>87.62</ele>
        <time>2020-04-22T09:31:42Z</time>
      </trkpt>
      <trkpt lat="37.19928" lon="-8.73268">
        <ele>90.02</ele>
        <time>2020-04-22T09:31:44Z</time>
      </trkpt>
      <trkpt lat="37.19925" lon="-8.73277">
        <ele>90.5</ele>
        <time>2020-04-22T09:31:48Z</time>
      </trkpt>
      <trkpt lat="37.19919" lon="-8.73307">
        <ele>85.21</ele>
        <time>2020-04-22T09:31:54Z</time>
      </trkpt>
      <trkpt lat="37.19916" lon="-8.73327">
        <ele>81.37</ele>
        <time>2020-04-22T09:31:58Z</time>
      </trkpt>
      <trkpt lat="37.19913" lon="-8.73344">
        <ele>77.52</ele>
        <time>2020-04-22T09:32:02Z</time>
      </trkpt>
      <trkpt lat="37.19909" lon="-8.73358">
        <ele>74.64</ele>
        <time>2020-04-22T09:32:06Z</time>
      </trkpt>
      <trkpt lat="37.19906" lon="-8.73361">
        <ele>73.68</ele>
        <time>2020-04-22T09:32:08Z</time>
      </trkpt>
      <trkpt lat="37.19903" lon="-8.73361">
        <ele>73.68</ele>
        <time>2020-04-22T09:32:09Z</time>
      </trkpt>
      <trkpt lat="37.199" lon="-8.7336">
        <ele>73.68</ele>
        <time>2020-04-22T09:32:10Z</time>
      </trkpt>
      <trkpt lat="37.19898" lon="-8.73359">
        <ele>72.72</ele>
        <time>2020-04-22T09:32:11Z</time>
      </trkpt>
      <trkpt lat="37.19896" lon="-8.73357">
        <ele>73.68</ele>
        <time>2020-04-22T09:32:12Z</time>
      </trkpt>
      <trkpt lat="37.19893" lon="-8.73355">
        <ele>73.68</ele>
        <time>2020-04-22T09:32:13Z</time>
      </trkpt>
      <trkpt lat="37.19891" lon="-8.73353">
        <ele>73.68</ele>
        <time>2020-04-22T09:32:14Z</time>
      </trkpt>
      <trkpt lat="37.19884" lon="-8.73349">
        <ele>73.68</ele>
        <time>2020-04-22T09:32:19Z</time>
      </trkpt>
      <trkpt lat="37.19883" lon="-8.73347">
        <ele>73.2</ele>
        <time>2020-04-22T09:32:26Z</time>
      </trkpt>
      <trkpt lat="37.19882" lon="-8.73346">
        <ele>73.2</ele>
        <time>2020-04-22T09:32:27Z</time>
      </trkpt>
      <trkpt lat="37.1987" lon="-8.73335">
        <ele>73.2</ele>
        <time>2020-04-22T09:32:32Z</time>
      </trkpt>
      <trkpt lat="37.19852" lon="-8.73307">
        <ele>72.72</ele>
        <time>2020-04-22T09:32:41Z</time>
      </trkpt>
      <trkpt lat="37.19841" lon="-8.73288">
        <ele>72.72</ele>
        <time>2020-04-22T09:32:46Z</time>
      </trkpt>
      <trkpt lat="37.19824" lon="-8.73247">
        <ele>72.72</ele>
        <time>2020-04-22T09:32:55Z</time>
      </trkpt>
      <trkpt lat="37.19804" lon="-8.73195">
        <ele>71.27</ele>
        <time>2020-04-22T09:33:05Z</time>
      </trkpt>
      <trkpt lat="37.19781" lon="-8.73131">
        <ele>69.83</ele>
        <time>2020-04-22T09:33:15Z</time>
      </trkpt>
      <trkpt lat="37.19777" lon="-8.73119">
        <ele>69.83</ele>
        <time>2020-04-22T09:33:17Z</time>
      </trkpt>
      <trkpt lat="37.19774" lon="-8.73114">
        <ele>69.83</ele>
        <time>2020-04-22T09:33:18Z</time>
      </trkpt>
      <trkpt lat="37.1977" lon="-8.7311">
        <ele>69.83</ele>
        <time>2020-04-22T09:33:19Z</time>
      </trkpt>
      <trkpt lat="37.19766" lon="-8.73106">
        <ele>69.83</ele>
        <time>2020-04-22T09:33:20Z</time>
      </trkpt>
      <trkpt lat="37.19761" lon="-8.73103">
        <ele>69.83</ele>
        <time>2020-04-22T09:33:21Z</time>
      </trkpt>
      <trkpt lat="37.19712" lon="-8.73066">
        <ele>67.91</ele>
        <time>2020-04-22T09:33:31Z</time>
      </trkpt>
      <trkpt lat="37.19671" lon="-8.7302">
        <ele>67.43</ele>
        <time>2020-04-22T09:33:41Z</time>
      </trkpt>
      <trkpt lat="37.19642" lon="-8.72974">
        <ele>65.99</ele>
        <time>2020-04-22T09:33:50Z</time>
      </trkpt>
      <trkpt lat="37.19631" lon="-8.72957">
        <ele>65.03</ele>
        <time>2020-04-22T09:33:53Z</time>
      </trkpt>
      <trkpt lat="37.19607" lon="-8.7293">
        <ele>64.55</ele>
        <time>2020-04-22T09:33:59Z</time>
      </trkpt>
      <trkpt lat="37.19581" lon="-8.72904">
        <ele>64.55</ele>
        <time>2020-04-22T09:34:07Z</time>
      </trkpt>
      <trkpt lat="37.19567" lon="-8.72897">
        <ele>62.62</ele>
        <time>2020-04-22T09:34:15Z</time>
      </trkpt>
      <trkpt lat="37.19551" lon="-8.72887">
        <ele>64.55</ele>
        <time>2020-04-22T09:34:22Z</time>
      </trkpt>
      <trkpt lat="37.19529" lon="-8.72865">
        <ele>65.51</ele>
        <time>2020-04-22T09:34:30Z</time>
      </trkpt>
      <trkpt lat="37.19503" lon="-8.72842">
        <ele>64.07</ele>
        <time>2020-04-22T09:34:37Z</time>
      </trkpt>
      <trkpt lat="37.19498" lon="-8.7284">
        <ele>64.07</ele>
        <time>2020-04-22T09:34:38Z</time>
      </trkpt>
      <trkpt lat="37.19492" lon="-8.72838">
        <ele>64.07</ele>
        <time>2020-04-22T09:34:39Z</time>
      </trkpt>
      <trkpt lat="37.19442" lon="-8.72833">
        <ele>62.62</ele>
        <time>2020-04-22T09:34:48Z</time>
      </trkpt>
      <trkpt lat="37.19417" lon="-8.72841">
        <ele>62.14</ele>
        <time>2020-04-22T09:34:53Z</time>
      </trkpt>
      <trkpt lat="37.19412" lon="-8.72841">
        <ele>62.14</ele>
        <time>2020-04-22T09:34:54Z</time>
      </trkpt>
      <trkpt lat="37.19392" lon="-8.7284">
        <ele>62.14</ele>
        <time>2020-04-22T09:34:58Z</time>
      </trkpt>
      <trkpt lat="37.19387" lon="-8.72839">
        <ele>62.14</ele>
        <time>2020-04-22T09:34:59Z</time>
      </trkpt>
      <trkpt lat="37.19382" lon="-8.72839">
        <ele>62.14</ele>
        <time>2020-04-22T09:35:00Z</time>
      </trkpt>
      <trkpt lat="37.19377" lon="-8.72839">
        <ele>62.14</ele>
        <time>2020-04-22T09:35:01Z</time>
      </trkpt>
      <trkpt lat="37.19371" lon="-8.72839">
        <ele>62.14</ele>
        <time>2020-04-22T09:35:02Z</time>
      </trkpt>
      <trkpt lat="37.19366" lon="-8.7284">
        <ele>62.14</ele>
        <time>2020-04-22T09:35:03Z</time>
      </trkpt>
      <trkpt lat="37.19361" lon="-8.72839">
        <ele>62.14</ele>
        <time>2020-04-22T09:35:04Z</time>
      </trkpt>
      <trkpt lat="37.19311" lon="-8.72831">
        <ele>63.58</ele>
        <time>2020-04-22T09:35:14Z</time>
      </trkpt>
      <trkpt lat="37.19272" lon="-8.72817">
        <ele>63.58</ele>
        <time>2020-04-22T09:35:22Z</time>
      </trkpt>
      <trkpt lat="37.19244" lon="-8.72811">
        <ele>62.14</ele>
        <time>2020-04-22T09:35:27Z</time>
      </trkpt>
      <trkpt lat="37.19194" lon="-8.72805">
        <ele>61.66</ele>
        <time>2020-04-22T09:35:36Z</time>
      </trkpt>
      <trkpt lat="37.19183" lon="-8.72804">
        <ele>61.18</ele>
        <time>2020-04-22T09:35:38Z</time>
      </trkpt>
      <trkpt lat="37.19141" lon="-8.72794">
        <ele>61.18</ele>
        <time>2020-04-22T09:35:46Z</time>
      </trkpt>
      <trkpt lat="37.19132" lon="-8.72789">
        <ele>62.62</ele>
        <time>2020-04-22T09:35:48Z</time>
      </trkpt>
      <trkpt lat="37.1912" lon="-8.72782">
        <ele>62.62</ele>
        <time>2020-04-22T09:35:51Z</time>
      </trkpt>
      <trkpt lat="37.19115" lon="-8.72781">
        <ele>62.62</ele>
        <time>2020-04-22T09:35:52Z</time>
      </trkpt>
      <trkpt lat="37.1911" lon="-8.72779">
        <ele>61.18</ele>
        <time>2020-04-22T09:35:53Z</time>
      </trkpt>
      <trkpt lat="37.19105" lon="-8.72777">
        <ele>60.7</ele>
        <time>2020-04-22T09:35:54Z</time>
      </trkpt>
      <trkpt lat="37.19101" lon="-8.72774">
        <ele>60.7</ele>
        <time>2020-04-22T09:35:55Z</time>
      </trkpt>
      <trkpt lat="37.19097" lon="-8.7277">
        <ele>60.7</ele>
        <time>2020-04-22T09:35:56Z</time>
      </trkpt>
      <trkpt lat="37.19094" lon="-8.72767">
        <ele>60.7</ele>
        <time>2020-04-22T09:35:57Z</time>
      </trkpt>
      <trkpt lat="37.19092" lon="-8.72763">
        <ele>60.7</ele>
        <time>2020-04-22T09:35:58Z</time>
      </trkpt>
      <trkpt lat="37.1909" lon="-8.72759">
        <ele>61.66</ele>
        <time>2020-04-22T09:35:59Z</time>
      </trkpt>
      <trkpt lat="37.19076" lon="-8.72727">
        <ele>59.26</ele>
        <time>2020-04-22T09:36:05Z</time>
      </trkpt>
      <trkpt lat="37.19072" lon="-8.7272">
        <ele>59.26</ele>
        <time>2020-04-22T09:36:06Z</time>
      </trkpt>
      <trkpt lat="37.1904" lon="-8.72676">
        <ele>57.82</ele>
        <time>2020-04-22T09:36:13Z</time>
      </trkpt>
      <trkpt lat="37.19035" lon="-8.72671">
        <ele>57.82</ele>
        <time>2020-04-22T09:36:14Z</time>
      </trkpt>
      <trkpt lat="37.19014" lon="-8.72655">
        <ele>57.34</ele>
        <time>2020-04-22T09:36:18Z</time>
      </trkpt>
      <trkpt lat="37.19008" lon="-8.72653">
        <ele>57.34</ele>
        <time>2020-04-22T09:36:19Z</time>
      </trkpt>
      <trkpt lat="37.18974" lon="-8.72638">
        <ele>56.86</ele>
        <time>2020-04-22T09:36:26Z</time>
      </trkpt>
      <trkpt lat="37.18958" lon="-8.72629">
        <ele>56.86</ele>
        <time>2020-04-22T09:36:29Z</time>
      </trkpt>
      <trkpt lat="37.18953" lon="-8.72629">
        <ele>56.37</ele>
        <time>2020-04-22T09:36:30Z</time>
      </trkpt>
      <trkpt lat="37.18947" lon="-8.72629">
        <ele>56.37</ele>
        <time>2020-04-22T09:36:31Z</time>
      </trkpt>
      <trkpt lat="37.18941" lon="-8.7263">
        <ele>55.89</ele>
        <time>2020-04-22T09:36:32Z</time>
      </trkpt>
      <trkpt lat="37.18935" lon="-8.72632">
        <ele>55.89</ele>
        <time>2020-04-22T09:36:33Z</time>
      </trkpt>
      <trkpt lat="37.18929" lon="-8.72635">
        <ele>55.89</ele>
        <time>2020-04-22T09:36:34Z</time>
      </trkpt>
      <trkpt lat="37.18923" lon="-8.72638">
        <ele>55.41</ele>
        <time>2020-04-22T09:36:35Z</time>
      </trkpt>
      <trkpt lat="37.18918" lon="-8.72642">
        <ele>55.41</ele>
        <time>2020-04-22T09:36:36Z</time>
      </trkpt>
      <trkpt lat="37.18913" lon="-8.72648">
        <ele>55.89</ele>
        <time>2020-04-22T09:36:37Z</time>
      </trkpt>
      <trkpt lat="37.18909" lon="-8.72654">
        <ele>55.41</ele>
        <time>2020-04-22T09:36:38Z</time>
      </trkpt>
      <trkpt lat="37.18905" lon="-8.72661">
        <ele>54.45</ele>
        <time>2020-04-22T09:36:39Z</time>
      </trkpt>
      <trkpt lat="37.18902" lon="-8.72668">
        <ele>54.45</ele>
        <time>2020-04-22T09:36:40Z</time>
      </trkpt>
      <trkpt lat="37.18899" lon="-8.72675">
        <ele>54.45</ele>
        <time>2020-04-22T09:36:41Z</time>
      </trkpt>
      <trkpt lat="37.18896" lon="-8.72682">
        <ele>54.45</ele>
        <time>2020-04-22T09:36:42Z</time>
      </trkpt>
      <trkpt lat="37.18891" lon="-8.72695">
        <ele>54.45</ele>
        <time>2020-04-22T09:36:44Z</time>
      </trkpt>
      <trkpt lat="37.18886" lon="-8.72711">
        <ele>55.41</ele>
        <time>2020-04-22T09:36:47Z</time>
      </trkpt>
      <trkpt lat="37.18883" lon="-8.72716">
        <ele>55.41</ele>
        <time>2020-04-22T09:36:48Z</time>
      </trkpt>
      <trkpt lat="37.18879" lon="-8.72719">
        <ele>55.89</ele>
        <time>2020-04-22T09:36:49Z</time>
      </trkpt>
      <trkpt lat="37.18874" lon="-8.7272">
        <ele>55.89</ele>
        <time>2020-04-22T09:36:50Z</time>
      </trkpt>
      <trkpt lat="37.18869" lon="-8.72719">
        <ele>55.89</ele>
        <time>2020-04-22T09:36:51Z</time>
      </trkpt>
      <trkpt lat="37.18863" lon="-8.72718">
        <ele>54.45</ele>
        <time>2020-04-22T09:36:52Z</time>
      </trkpt>
      <trkpt lat="37.18857" lon="-8.72716">
        <ele>54.45</ele>
        <time>2020-04-22T09:36:53Z</time>
      </trkpt>
      <trkpt lat="37.18851" lon="-8.72713">
        <ele>53.97</ele>
        <time>2020-04-22T09:36:54Z</time>
      </trkpt>
      <trkpt lat="37.18845" lon="-8.7271">
        <ele>53.97</ele>
        <time>2020-04-22T09:36:55Z</time>
      </trkpt>
      <trkpt lat="37.18801" lon="-8.72683">
        <ele>53.01</ele>
        <time>2020-04-22T09:37:03Z</time>
      </trkpt>
      <trkpt lat="37.18783" lon="-8.72677">
        <ele>52.53</ele>
        <time>2020-04-22T09:37:06Z</time>
      </trkpt>
      <trkpt lat="37.18741" lon="-8.72676">
        <ele>52.05</ele>
        <time>2020-04-22T09:37:13Z</time>
      </trkpt>
      <trkpt lat="37.18736" lon="-8.72677">
        <ele>52.05</ele>
        <time>2020-04-22T09:37:14Z</time>
      </trkpt>
      <trkpt lat="37.1873" lon="-8.72678">
        <ele>52.05</ele>
        <time>2020-04-22T09:37:15Z</time>
      </trkpt>
      <trkpt lat="37.18724" lon="-8.72678">
        <ele>52.05</ele>
        <time>2020-04-22T09:37:16Z</time>
      </trkpt>
      <trkpt lat="37.18718" lon="-8.72678">
        <ele>52.05</ele>
        <time>2020-04-22T09:37:17Z</time>
      </trkpt>
      <trkpt lat="37.18712" lon="-8.72679">
        <ele>51.57</ele>
        <time>2020-04-22T09:37:18Z</time>
      </trkpt>
      <trkpt lat="37.18707" lon="-8.7268">
        <ele>51.57</ele>
        <time>2020-04-22T09:37:19Z</time>
      </trkpt>
      <trkpt lat="37.18648" lon="-8.72699">
        <ele>50.61</ele>
        <time>2020-04-22T09:37:29Z</time>
      </trkpt>
      <trkpt lat="37.18606" lon="-8.72723">
        <ele>50.13</ele>
        <time>2020-04-22T09:37:37Z</time>
      </trkpt>
      <trkpt lat="37.18585" lon="-8.72735">
        <ele>50.13</ele>
        <time>2020-04-22T09:37:41Z</time>
      </trkpt>
      <trkpt lat="37.18579" lon="-8.72736">
        <ele>50.13</ele>
        <time>2020-04-22T09:37:42Z</time>
      </trkpt>
      <trkpt lat="37.18535" lon="-8.72741">
        <ele>49.65</ele>
        <time>2020-04-22T09:37:50Z</time>
      </trkpt>
      <trkpt lat="37.18488" lon="-8.72751">
        <ele>49.16</ele>
        <time>2020-04-22T09:37:59Z</time>
      </trkpt>
      <trkpt lat="37.18478" lon="-8.72755">
        <ele>48.68</ele>
        <time>2020-04-22T09:38:01Z</time>
      </trkpt>
      <trkpt lat="37.18473" lon="-8.72758">
        <ele>48.68</ele>
        <time>2020-04-22T09:38:02Z</time>
      </trkpt>
      <trkpt lat="37.18469" lon="-8.72761">
        <ele>48.2</ele>
        <time>2020-04-22T09:38:03Z</time>
      </trkpt>
      <trkpt lat="37.18451" lon="-8.72777">
        <ele>47.72</ele>
        <time>2020-04-22T09:38:07Z</time>
      </trkpt>
      <trkpt lat="37.18433" lon="-8.72803">
        <ele>47.72</ele>
        <time>2020-04-22T09:38:12Z</time>
      </trkpt>
      <trkpt lat="37.18428" lon="-8.72812">
        <ele>47.24</ele>
        <time>2020-04-22T09:38:14Z</time>
      </trkpt>
      <trkpt lat="37.18424" lon="-8.72815">
        <ele>47.24</ele>
        <time>2020-04-22T09:38:15Z</time>
      </trkpt>
      <trkpt lat="37.18407" lon="-8.72821">
        <ele>46.28</ele>
        <time>2020-04-22T09:38:21Z</time>
      </trkpt>
      <trkpt lat="37.18395" lon="-8.72827">
        <ele>47.72</ele>
        <time>2020-04-22T09:38:25Z</time>
      </trkpt>
      <trkpt lat="37.1838" lon="-8.72834">
        <ele>47.72</ele>
        <time>2020-04-22T09:38:29Z</time>
      </trkpt>
      <trkpt lat="37.18347" lon="-8.72846">
        <ele>47.72</ele>
        <time>2020-04-22T09:38:36Z</time>
      </trkpt>
      <trkpt lat="37.18308" lon="-8.72852">
        <ele>47.72</ele>
        <time>2020-04-22T09:38:43Z</time>
      </trkpt>
      <trkpt lat="37.18302" lon="-8.72851">
        <ele>47.72</ele>
        <time>2020-04-22T09:38:44Z</time>
      </trkpt>
      <trkpt lat="37.18261" lon="-8.72835">
        <ele>47.72</ele>
        <time>2020-04-22T09:38:52Z</time>
      </trkpt>
      <trkpt lat="37.18242" lon="-8.7282">
        <ele>47.72</ele>
        <time>2020-04-22T09:38:56Z</time>
      </trkpt>
      <trkpt lat="37.18216" lon="-8.72782">
        <ele>46.28</ele>
        <time>2020-04-22T09:39:03Z</time>
      </trkpt>
      <trkpt lat="37.18187" lon="-8.72747">
        <ele>46.28</ele>
        <time>2020-04-22T09:39:10Z</time>
      </trkpt>
      <trkpt lat="37.18182" lon="-8.72744">
        <ele>45.8</ele>
        <time>2020-04-22T09:39:11Z</time>
      </trkpt>
      <trkpt lat="37.18176" lon="-8.72742">
        <ele>46.28</ele>
        <time>2020-04-22T09:39:12Z</time>
      </trkpt>
      <trkpt lat="37.1817" lon="-8.7274">
        <ele>46.28</ele>
        <time>2020-04-22T09:39:13Z</time>
      </trkpt>
      <trkpt lat="37.18164" lon="-8.72739">
        <ele>46.28</ele>
        <time>2020-04-22T09:39:14Z</time>
      </trkpt>
      <trkpt lat="37.18102" lon="-8.72725">
        <ele>43.4</ele>
        <time>2020-04-22T09:39:23Z</time>
      </trkpt>
      <trkpt lat="37.18064" lon="-8.72712">
        <ele>42.92</ele>
        <time>2020-04-22T09:39:29Z</time>
      </trkpt>
      <trkpt lat="37.18059" lon="-8.72709">
        <ele>42.92</ele>
        <time>2020-04-22T09:39:30Z</time>
      </trkpt>
      <trkpt lat="37.18043" lon="-8.72698">
        <ele>42.92</ele>
        <time>2020-04-22T09:39:33Z</time>
      </trkpt>
      <trkpt lat="37.18038" lon="-8.72695">
        <ele>42.92</ele>
        <time>2020-04-22T09:39:34Z</time>
      </trkpt>
      <trkpt lat="37.18004" lon="-8.72665">
        <ele>42.92</ele>
        <time>2020-04-22T09:39:42Z</time>
      </trkpt>
      <trkpt lat="37.17992" lon="-8.72654">
        <ele>42.92</ele>
        <time>2020-04-22T09:39:45Z</time>
      </trkpt>
      <trkpt lat="37.17988" lon="-8.72652">
        <ele>42.92</ele>
        <time>2020-04-22T09:39:46Z</time>
      </trkpt>
      <trkpt lat="37.17984" lon="-8.7265">
        <ele>42.92</ele>
        <time>2020-04-22T09:39:47Z</time>
      </trkpt>
      <trkpt lat="37.1798" lon="-8.72648">
        <ele>42.92</ele>
        <time>2020-04-22T09:39:48Z</time>
      </trkpt>
      <trkpt lat="37.17977" lon="-8.72646">
        <ele>42.92</ele>
        <time>2020-04-22T09:39:49Z</time>
      </trkpt>
      <trkpt lat="37.17968" lon="-8.7264">
        <ele>42.92</ele>
        <time>2020-04-22T09:39:52Z</time>
      </trkpt>
      <trkpt lat="37.17964" lon="-8.72638">
        <ele>42.92</ele>
        <time>2020-04-22T09:39:53Z</time>
      </trkpt>
      <trkpt lat="37.17926" lon="-8.72626">
        <ele>42.44</ele>
        <time>2020-04-22T09:40:00Z</time>
      </trkpt>
      <trkpt lat="37.17895" lon="-8.72618">
        <ele>41.47</ele>
        <time>2020-04-22T09:40:05Z</time>
      </trkpt>
      <trkpt lat="37.1789" lon="-8.72615">
        <ele>41.47</ele>
        <time>2020-04-22T09:40:06Z</time>
      </trkpt>
      <trkpt lat="37.17884" lon="-8.72612">
        <ele>41.47</ele>
        <time>2020-04-22T09:40:07Z</time>
      </trkpt>
      <trkpt lat="37.17879" lon="-8.72608">
        <ele>41.47</ele>
        <time>2020-04-22T09:40:08Z</time>
      </trkpt>
      <trkpt lat="37.17874" lon="-8.72604">
        <ele>41.47</ele>
        <time>2020-04-22T09:40:09Z</time>
      </trkpt>
      <trkpt lat="37.17869" lon="-8.72599">
        <ele>41.47</ele>
        <time>2020-04-22T09:40:10Z</time>
      </trkpt>
      <trkpt lat="37.17831" lon="-8.72549">
        <ele>40.99</ele>
        <time>2020-04-22T09:40:19Z</time>
      </trkpt>
      <trkpt lat="37.17787" lon="-8.72505">
        <ele>40.03</ele>
        <time>2020-04-22T09:40:29Z</time>
      </trkpt>
      <trkpt lat="37.1776" lon="-8.7247">
        <ele>39.55</ele>
        <time>2020-04-22T09:40:36Z</time>
      </trkpt>
      <trkpt lat="37.17756" lon="-8.72468">
        <ele>39.07</ele>
        <time>2020-04-22T09:40:37Z</time>
      </trkpt>
      <trkpt lat="37.17752" lon="-8.72467">
        <ele>39.07</ele>
        <time>2020-04-22T09:40:38Z</time>
      </trkpt>
      <trkpt lat="37.17749" lon="-8.72467">
        <ele>39.07</ele>
        <time>2020-04-22T09:40:39Z</time>
      </trkpt>
      <trkpt lat="37.17746" lon="-8.72467">
        <ele>39.07</ele>
        <time>2020-04-22T09:40:40Z</time>
      </trkpt>
      <trkpt lat="37.1773" lon="-8.72471">
        <ele>37.63</ele>
        <time>2020-04-22T09:40:46Z</time>
      </trkpt>
      <trkpt lat="37.17725" lon="-8.72469">
        <ele>39.07</ele>
        <time>2020-04-22T09:40:48Z</time>
      </trkpt>
      <trkpt lat="37.177" lon="-8.72466">
        <ele>40.03</ele>
        <time>2020-04-22T09:40:55Z</time>
      </trkpt>
      <trkpt lat="37.17692" lon="-8.72466">
        <ele>40.03</ele>
        <time>2020-04-22T09:40:57Z</time>
      </trkpt>
      <trkpt lat="37.17687" lon="-8.72464">
        <ele>40.03</ele>
        <time>2020-04-22T09:40:58Z</time>
      </trkpt>
      <trkpt lat="37.17674" lon="-8.72457">
        <ele>40.03</ele>
        <time>2020-04-22T09:41:01Z</time>
      </trkpt>
      <trkpt lat="37.17632" lon="-8.72418">
        <ele>40.03</ele>
        <time>2020-04-22T09:41:11Z</time>
      </trkpt>
      <trkpt lat="37.17613" lon="-8.72395">
        <ele>40.03</ele>
        <time>2020-04-22T09:41:16Z</time>
      </trkpt>
      <trkpt lat="37.1761" lon="-8.7239">
        <ele>40.03</ele>
        <time>2020-04-22T09:41:17Z</time>
      </trkpt>
      <trkpt lat="37.17606" lon="-8.72387">
        <ele>40.03</ele>
        <time>2020-04-22T09:41:18Z</time>
      </trkpt>
      <trkpt lat="37.17602" lon="-8.72385">
        <ele>40.03</ele>
        <time>2020-04-22T09:41:19Z</time>
      </trkpt>
      <trkpt lat="37.17597" lon="-8.72382">
        <ele>40.03</ele>
        <time>2020-04-22T09:41:20Z</time>
      </trkpt>
      <trkpt lat="37.17592" lon="-8.72379">
        <ele>40.03</ele>
        <time>2020-04-22T09:41:21Z</time>
      </trkpt>
      <trkpt lat="37.17572" lon="-8.72371">
        <ele>40.03</ele>
        <time>2020-04-22T09:41:25Z</time>
      </trkpt>
      <trkpt lat="37.1753" lon="-8.7234">
        <ele>38.11</ele>
        <time>2020-04-22T09:41:34Z</time>
      </trkpt>
      <trkpt lat="37.17517" lon="-8.72327">
        <ele>37.63</ele>
        <time>2020-04-22T09:41:37Z</time>
      </trkpt>
      <trkpt lat="37.17513" lon="-8.72322">
        <ele>37.63</ele>
        <time>2020-04-22T09:41:38Z</time>
      </trkpt>
      <trkpt lat="37.17509" lon="-8.72317">
        <ele>37.63</ele>
        <time>2020-04-22T09:41:39Z</time>
      </trkpt>
      <trkpt lat="37.17507" lon="-8.72312">
        <ele>37.63</ele>
        <time>2020-04-22T09:41:40Z</time>
      </trkpt>
      <trkpt lat="37.17505" lon="-8.72307">
        <ele>37.63</ele>
        <time>2020-04-22T09:41:41Z</time>
      </trkpt>
      <trkpt lat="37.17503" lon="-8.72303">
        <ele>37.63</ele>
        <time>2020-04-22T09:41:42Z</time>
      </trkpt>
      <trkpt lat="37.17499" lon="-8.72281">
        <ele>37.63</ele>
        <time>2020-04-22T09:41:49Z</time>
      </trkpt>
      <trkpt lat="37.17496" lon="-8.72253">
        <ele>37.63</ele>
        <time>2020-04-22T09:41:55Z</time>
      </trkpt>
      <trkpt lat="37.17494" lon="-8.72249">
        <ele>37.63</ele>
        <time>2020-04-22T09:41:56Z</time>
      </trkpt>
      <trkpt lat="37.17473" lon="-8.72197">
        <ele>37.63</ele>
        <time>2020-04-22T09:42:06Z</time>
      </trkpt>
      <trkpt lat="37.1747" lon="-8.72192">
        <ele>37.63</ele>
        <time>2020-04-22T09:42:07Z</time>
      </trkpt>
      <trkpt lat="37.17431" lon="-8.72145">
        <ele>37.63</ele>
        <time>2020-04-22T09:42:17Z</time>
      </trkpt>
      <trkpt lat="37.17401" lon="-8.72101">
        <ele>37.63</ele>
        <time>2020-04-22T09:42:25Z</time>
      </trkpt>
      <trkpt lat="37.17397" lon="-8.72097">
        <ele>37.63</ele>
        <time>2020-04-22T09:42:26Z</time>
      </trkpt>
      <trkpt lat="37.17392" lon="-8.72094">
        <ele>37.63</ele>
        <time>2020-04-22T09:42:27Z</time>
      </trkpt>
      <trkpt lat="37.17387" lon="-8.72092">
        <ele>37.63</ele>
        <time>2020-04-22T09:42:28Z</time>
      </trkpt>
      <trkpt lat="37.17382" lon="-8.7209">
        <ele>37.63</ele>
        <time>2020-04-22T09:42:29Z</time>
      </trkpt>
      <trkpt lat="37.17377" lon="-8.72087">
        <ele>37.15</ele>
        <time>2020-04-22T09:42:30Z</time>
      </trkpt>
      <trkpt lat="37.17372" lon="-8.72083">
        <ele>37.15</ele>
        <time>2020-04-22T09:42:31Z</time>
      </trkpt>
      <trkpt lat="37.17332" lon="-8.72055">
        <ele>37.15</ele>
        <time>2020-04-22T09:42:39Z</time>
      </trkpt>
      <trkpt lat="37.17303" lon="-8.72013">
        <ele>37.15</ele>
        <time>2020-04-22T09:42:47Z</time>
      </trkpt>
      <trkpt lat="37.17269" lon="-8.71972">
        <ele>38.11</ele>
        <time>2020-04-22T09:42:56Z</time>
      </trkpt>
      <trkpt lat="37.17234" lon="-8.71943">
        <ele>37.15</ele>
        <time>2020-04-22T09:43:03Z</time>
      </trkpt>
      <trkpt lat="37.17192" lon="-8.71907">
        <ele>37.15</ele>
        <time>2020-04-22T09:43:12Z</time>
      </trkpt>
      <trkpt lat="37.17175" lon="-8.7189">
        <ele>37.15</ele>
        <time>2020-04-22T09:43:16Z</time>
      </trkpt>
      <trkpt lat="37.1717" lon="-8.71888">
        <ele>37.15</ele>
        <time>2020-04-22T09:43:17Z</time>
      </trkpt>
      <trkpt lat="37.17151" lon="-8.71877">
        <ele>36.67</ele>
        <time>2020-04-22T09:43:21Z</time>
      </trkpt>
      <trkpt lat="37.17146" lon="-8.71873">
        <ele>36.67</ele>
        <time>2020-04-22T09:43:22Z</time>
      </trkpt>
      <trkpt lat="37.17141" lon="-8.71868">
        <ele>36.67</ele>
        <time>2020-04-22T09:43:23Z</time>
      </trkpt>
      <trkpt lat="37.17136" lon="-8.71865">
        <ele>36.67</ele>
        <time>2020-04-22T09:43:24Z</time>
      </trkpt>
      <trkpt lat="37.17131" lon="-8.71862">
        <ele>36.67</ele>
        <time>2020-04-22T09:43:25Z</time>
      </trkpt>
      <trkpt lat="37.17121" lon="-8.71855">
        <ele>36.19</ele>
        <time>2020-04-22T09:43:27Z</time>
      </trkpt>
      <trkpt lat="37.17079" lon="-8.71828">
        <ele>35.71</ele>
        <time>2020-04-22T09:43:35Z</time>
      </trkpt>
      <trkpt lat="37.17069" lon="-8.71821">
        <ele>35.71</ele>
        <time>2020-04-22T09:43:37Z</time>
      </trkpt>
      <trkpt lat="37.17065" lon="-8.71816">
        <ele>35.71</ele>
        <time>2020-04-22T09:43:38Z</time>
      </trkpt>
      <trkpt lat="37.17062" lon="-8.7181">
        <ele>35.71</ele>
        <time>2020-04-22T09:43:39Z</time>
      </trkpt>
      <trkpt lat="37.17059" lon="-8.71804">
        <ele>35.23</ele>
        <time>2020-04-22T09:43:40Z</time>
      </trkpt>
      <trkpt lat="37.17058" lon="-8.71797">
        <ele>35.23</ele>
        <time>2020-04-22T09:43:41Z</time>
      </trkpt>
      <trkpt lat="37.17057" lon="-8.7179">
        <ele>35.23</ele>
        <time>2020-04-22T09:43:42Z</time>
      </trkpt>
      <trkpt lat="37.17056" lon="-8.71782">
        <ele>35.23</ele>
        <time>2020-04-22T09:43:43Z</time>
      </trkpt>
      <trkpt lat="37.17055" lon="-8.71775">
        <ele>34.74</ele>
        <time>2020-04-22T09:43:44Z</time>
      </trkpt>
      <trkpt lat="37.17054" lon="-8.71768">
        <ele>34.74</ele>
        <time>2020-04-22T09:43:45Z</time>
      </trkpt>
      <trkpt lat="37.17051" lon="-8.71761">
        <ele>34.74</ele>
        <time>2020-04-22T09:43:46Z</time>
      </trkpt>
      <trkpt lat="37.17048" lon="-8.71754">
        <ele>34.74</ele>
        <time>2020-04-22T09:43:47Z</time>
      </trkpt>
      <trkpt lat="37.17045" lon="-8.71748">
        <ele>34.74</ele>
        <time>2020-04-22T09:43:48Z</time>
      </trkpt>
      <trkpt lat="37.17041" lon="-8.71742">
        <ele>34.74</ele>
        <time>2020-04-22T09:43:49Z</time>
      </trkpt>
      <trkpt lat="37.1703" lon="-8.71724">
        <ele>34.26</ele>
        <time>2020-04-22T09:43:52Z</time>
      </trkpt>
      <trkpt lat="37.17028" lon="-8.71719">
        <ele>34.26</ele>
        <time>2020-04-22T09:43:53Z</time>
      </trkpt>
      <trkpt lat="37.17026" lon="-8.71712">
        <ele>34.26</ele>
        <time>2020-04-22T09:43:54Z</time>
      </trkpt>
      <trkpt lat="37.17025" lon="-8.71706">
        <ele>34.26</ele>
        <time>2020-04-22T09:43:55Z</time>
      </trkpt>
      <trkpt lat="37.17025" lon="-8.71699">
        <ele>34.26</ele>
        <time>2020-04-22T09:43:56Z</time>
      </trkpt>
      <trkpt lat="37.17026" lon="-8.71692">
        <ele>34.26</ele>
        <time>2020-04-22T09:43:57Z</time>
      </trkpt>
      <trkpt lat="37.17027" lon="-8.71684">
        <ele>33.3</ele>
        <time>2020-04-22T09:43:58Z</time>
      </trkpt>
      <trkpt lat="37.17028" lon="-8.71676">
        <ele>32.82</ele>
        <time>2020-04-22T09:43:59Z</time>
      </trkpt>
      <trkpt lat="37.17027" lon="-8.71668">
        <ele>31.86</ele>
        <time>2020-04-22T09:44:00Z</time>
      </trkpt>
      <trkpt lat="37.17025" lon="-8.71659">
        <ele>31.38</ele>
        <time>2020-04-22T09:44:01Z</time>
      </trkpt>
      <trkpt lat="37.1702" lon="-8.71652">
        <ele>31.38</ele>
        <time>2020-04-22T09:44:02Z</time>
      </trkpt>
      <trkpt lat="37.17014" lon="-8.71647">
        <ele>31.38</ele>
        <time>2020-04-22T09:44:03Z</time>
      </trkpt>
      <trkpt lat="37.17007" lon="-8.71642">
        <ele>31.38</ele>
        <time>2020-04-22T09:44:04Z</time>
      </trkpt>
      <trkpt lat="37.17001" lon="-8.71638">
        <ele>31.38</ele>
        <time>2020-04-22T09:44:05Z</time>
      </trkpt>
      <trkpt lat="37.16994" lon="-8.71635">
        <ele>31.38</ele>
        <time>2020-04-22T09:44:06Z</time>
      </trkpt>
      <trkpt lat="37.16988" lon="-8.7163">
        <ele>31.38</ele>
        <time>2020-04-22T09:44:07Z</time>
      </trkpt>
      <trkpt lat="37.16983" lon="-8.71626">
        <ele>31.38</ele>
        <time>2020-04-22T09:44:08Z</time>
      </trkpt>
      <trkpt lat="37.16978" lon="-8.71621">
        <ele>31.38</ele>
        <time>2020-04-22T09:44:09Z</time>
      </trkpt>
      <trkpt lat="37.16939" lon="-8.71577">
        <ele>31.38</ele>
        <time>2020-04-22T09:44:18Z</time>
      </trkpt>
      <trkpt lat="37.16912" lon="-8.71535">
        <ele>30.42</ele>
        <time>2020-04-22T09:44:25Z</time>
      </trkpt>
      <trkpt lat="37.16909" lon="-8.71528">
        <ele>30.42</ele>
        <time>2020-04-22T09:44:26Z</time>
      </trkpt>
      <trkpt lat="37.16906" lon="-8.71522">
        <ele>30.42</ele>
        <time>2020-04-22T09:44:27Z</time>
      </trkpt>
      <trkpt lat="37.16902" lon="-8.71516">
        <ele>30.42</ele>
        <time>2020-04-22T09:44:28Z</time>
      </trkpt>
      <trkpt lat="37.16897" lon="-8.71512">
        <ele>30.42</ele>
        <time>2020-04-22T09:44:29Z</time>
      </trkpt>
      <trkpt lat="37.16892" lon="-8.71508">
        <ele>30.42</ele>
        <time>2020-04-22T09:44:30Z</time>
      </trkpt>
      <trkpt lat="37.16855" lon="-8.7148">
        <ele>30.42</ele>
        <time>2020-04-22T09:44:38Z</time>
      </trkpt>
      <trkpt lat="37.16807" lon="-8.71437">
        <ele>30.42</ele>
        <time>2020-04-22T09:44:48Z</time>
      </trkpt>
      <trkpt lat="37.16797" lon="-8.71428">
        <ele>30.42</ele>
        <time>2020-04-22T09:44:50Z</time>
      </trkpt>
      <trkpt lat="37.16792" lon="-8.71425">
        <ele>30.42</ele>
        <time>2020-04-22T09:44:51Z</time>
      </trkpt>
      <trkpt lat="37.16782" lon="-8.71419">
        <ele>29.94</ele>
        <time>2020-04-22T09:44:53Z</time>
      </trkpt>
      <trkpt lat="37.16777" lon="-8.71415">
        <ele>29.94</ele>
        <time>2020-04-22T09:44:54Z</time>
      </trkpt>
      <trkpt lat="37.16772" lon="-8.71412">
        <ele>29.94</ele>
        <time>2020-04-22T09:44:55Z</time>
      </trkpt>
      <trkpt lat="37.16766" lon="-8.7141">
        <ele>29.94</ele>
        <time>2020-04-22T09:44:56Z</time>
      </trkpt>
      <trkpt lat="37.1676" lon="-8.71408">
        <ele>29.94</ele>
        <time>2020-04-22T09:44:57Z</time>
      </trkpt>
      <trkpt lat="37.16755" lon="-8.71405">
        <ele>29.46</ele>
        <time>2020-04-22T09:44:58Z</time>
      </trkpt>
      <trkpt lat="37.16749" lon="-8.71402">
        <ele>29.94</ele>
        <time>2020-04-22T09:44:59Z</time>
      </trkpt>
      <trkpt lat="37.16744" lon="-8.71398">
        <ele>29.94</ele>
        <time>2020-04-22T09:45:00Z</time>
      </trkpt>
      <trkpt lat="37.16738" lon="-8.71395">
        <ele>29.46</ele>
        <time>2020-04-22T09:45:01Z</time>
      </trkpt>
      <trkpt lat="37.16732" lon="-8.71393">
        <ele>29.94</ele>
        <time>2020-04-22T09:45:02Z</time>
      </trkpt>
      <trkpt lat="37.16682" lon="-8.71369">
        <ele>29.46</ele>
        <time>2020-04-22T09:45:11Z</time>
      </trkpt>
      <trkpt lat="37.16676" lon="-8.71366">
        <ele>29.46</ele>
        <time>2020-04-22T09:45:12Z</time>
      </trkpt>
      <trkpt lat="37.16671" lon="-8.71365">
        <ele>29.46</ele>
        <time>2020-04-22T09:45:13Z</time>
      </trkpt>
      <trkpt lat="37.16659" lon="-8.71362">
        <ele>29.46</ele>
        <time>2020-04-22T09:45:15Z</time>
      </trkpt>
      <trkpt lat="37.16654" lon="-8.71359">
        <ele>29.46</ele>
        <time>2020-04-22T09:45:16Z</time>
      </trkpt>
      <trkpt lat="37.16644" lon="-8.71352">
        <ele>29.46</ele>
        <time>2020-04-22T09:45:18Z</time>
      </trkpt>
      <trkpt lat="37.16638" lon="-8.71349">
        <ele>29.46</ele>
        <time>2020-04-22T09:45:19Z</time>
      </trkpt>
      <trkpt lat="37.16633" lon="-8.71348">
        <ele>29.46</ele>
        <time>2020-04-22T09:45:20Z</time>
      </trkpt>
      <trkpt lat="37.16627" lon="-8.71347">
        <ele>29.46</ele>
        <time>2020-04-22T09:45:21Z</time>
      </trkpt>
      <trkpt lat="37.16621" lon="-8.71347">
        <ele>29.46</ele>
        <time>2020-04-22T09:45:22Z</time>
      </trkpt>
      <trkpt lat="37.16615" lon="-8.71348">
        <ele>29.46</ele>
        <time>2020-04-22T09:45:23Z</time>
      </trkpt>
      <trkpt lat="37.16557" lon="-8.71348">
        <ele>29.46</ele>
        <time>2020-04-22T09:45:33Z</time>
      </trkpt>
      <trkpt lat="37.16496" lon="-8.71346">
        <ele>28.02</ele>
        <time>2020-04-22T09:45:43Z</time>
      </trkpt>
      <trkpt lat="37.1645" lon="-8.71356">
        <ele>27.05</ele>
        <time>2020-04-22T09:45:51Z</time>
      </trkpt>
      <trkpt lat="37.16428" lon="-8.71367">
        <ele>26.57</ele>
        <time>2020-04-22T09:45:55Z</time>
      </trkpt>
      <trkpt lat="37.16423" lon="-8.71368">
        <ele>26.57</ele>
        <time>2020-04-22T09:45:56Z</time>
      </trkpt>
      <trkpt lat="37.16411" lon="-8.7137">
        <ele>26.57</ele>
        <time>2020-04-22T09:45:58Z</time>
      </trkpt>
      <trkpt lat="37.16405" lon="-8.71372">
        <ele>26.57</ele>
        <time>2020-04-22T09:45:59Z</time>
      </trkpt>
      <trkpt lat="37.16399" lon="-8.71372">
        <ele>26.57</ele>
        <time>2020-04-22T09:46:00Z</time>
      </trkpt>
      <trkpt lat="37.16387" lon="-8.71374">
        <ele>26.57</ele>
        <time>2020-04-22T09:46:02Z</time>
      </trkpt>
      <trkpt lat="37.16382" lon="-8.71376">
        <ele>26.57</ele>
        <time>2020-04-22T09:46:03Z</time>
      </trkpt>
      <trkpt lat="37.16348" lon="-8.71391">
        <ele>26.57</ele>
        <time>2020-04-22T09:46:09Z</time>
      </trkpt>
      <trkpt lat="37.16337" lon="-8.71397">
        <ele>26.09</ele>
        <time>2020-04-22T09:46:11Z</time>
      </trkpt>
      <trkpt lat="37.16279" lon="-8.71413">
        <ele>25.61</ele>
        <time>2020-04-22T09:46:21Z</time>
      </trkpt>
      <trkpt lat="37.16245" lon="-8.71416">
        <ele>25.61</ele>
        <time>2020-04-22T09:46:27Z</time>
      </trkpt>
      <trkpt lat="37.16211" lon="-8.71429">
        <ele>25.61</ele>
        <time>2020-04-22T09:46:33Z</time>
      </trkpt>
      <trkpt lat="37.16205" lon="-8.7143">
        <ele>25.13</ele>
        <time>2020-04-22T09:46:34Z</time>
      </trkpt>
      <trkpt lat="37.16199" lon="-8.71429">
        <ele>24.65</ele>
        <time>2020-04-22T09:46:35Z</time>
      </trkpt>
      <trkpt lat="37.16193" lon="-8.71428">
        <ele>25.13</ele>
        <time>2020-04-22T09:46:36Z</time>
      </trkpt>
      <trkpt lat="37.16188" lon="-8.71427">
        <ele>24.65</ele>
        <time>2020-04-22T09:46:37Z</time>
      </trkpt>
      <trkpt lat="37.16173" lon="-8.71421">
        <ele>25.13</ele>
        <time>2020-04-22T09:46:40Z</time>
      </trkpt>
      <trkpt lat="37.16154" lon="-8.71413">
        <ele>25.13</ele>
        <time>2020-04-22T09:46:44Z</time>
      </trkpt>
      <trkpt lat="37.16149" lon="-8.71412">
        <ele>25.13</ele>
        <time>2020-04-22T09:46:45Z</time>
      </trkpt>
      <trkpt lat="37.16144" lon="-8.71411">
        <ele>25.13</ele>
        <time>2020-04-22T09:46:46Z</time>
      </trkpt>
      <trkpt lat="37.16139" lon="-8.71409">
        <ele>25.13</ele>
        <time>2020-04-22T09:46:47Z</time>
      </trkpt>
      <trkpt lat="37.16134" lon="-8.71408">
        <ele>25.13</ele>
        <time>2020-04-22T09:46:48Z</time>
      </trkpt>
      <trkpt lat="37.16128" lon="-8.71406">
        <ele>25.13</ele>
        <time>2020-04-22T09:46:49Z</time>
      </trkpt>
      <trkpt lat="37.16123" lon="-8.71405">
        <ele>25.13</ele>
        <time>2020-04-22T09:46:50Z</time>
      </trkpt>
      <trkpt lat="37.16118" lon="-8.71405">
        <ele>25.13</ele>
        <time>2020-04-22T09:46:51Z</time>
      </trkpt>
      <trkpt lat="37.16108" lon="-8.71404">
        <ele>25.13</ele>
        <time>2020-04-22T09:46:53Z</time>
      </trkpt>
      <trkpt lat="37.16104" lon="-8.71403">
        <ele>25.13</ele>
        <time>2020-04-22T09:46:54Z</time>
      </trkpt>
      <trkpt lat="37.16078" lon="-8.71394">
        <ele>24.17</ele>
        <time>2020-04-22T09:46:59Z</time>
      </trkpt>
      <trkpt lat="37.16073" lon="-8.71394">
        <ele>24.17</ele>
        <time>2020-04-22T09:47:00Z</time>
      </trkpt>
      <trkpt lat="37.16069" lon="-8.71395">
        <ele>24.17</ele>
        <time>2020-04-22T09:47:01Z</time>
      </trkpt>
      <trkpt lat="37.16065" lon="-8.71397">
        <ele>24.17</ele>
        <time>2020-04-22T09:47:02Z</time>
      </trkpt>
      <trkpt lat="37.16062" lon="-8.71399">
        <ele>24.17</ele>
        <time>2020-04-22T09:47:03Z</time>
      </trkpt>
      <trkpt lat="37.16059" lon="-8.714">
        <ele>24.17</ele>
        <time>2020-04-22T09:47:04Z</time>
      </trkpt>
      <trkpt lat="37.16057" lon="-8.71398">
        <ele>24.17</ele>
        <time>2020-04-22T09:47:05Z</time>
      </trkpt>
      <trkpt lat="37.16056" lon="-8.71396">
        <ele>24.17</ele>
        <time>2020-04-22T09:47:06Z</time>
      </trkpt>
      <trkpt lat="37.16056" lon="-8.71394">
        <ele>24.17</ele>
        <time>2020-04-22T09:47:07Z</time>
      </trkpt>
      <trkpt lat="37.16054" lon="-8.71386">
        <ele>22.25</ele>
        <time>2020-04-22T09:47:11Z</time>
      </trkpt>
      <trkpt lat="37.16055" lon="-8.71375">
        <ele>21.29</ele>
        <time>2020-04-22T09:47:17Z</time>
      </trkpt>
      <trkpt lat="37.16061" lon="-8.71361">
        <ele>22.25</ele>
        <time>2020-04-22T09:47:22Z</time>
      </trkpt>
      <trkpt lat="37.16084" lon="-8.7134">
        <ele>24.17</ele>
        <time>2020-04-22T09:47:31Z</time>
      </trkpt>
      <trkpt lat="37.16106" lon="-8.71323">
        <ele>25.13</ele>
        <time>2020-04-22T09:47:38Z</time>
      </trkpt>
      <trkpt lat="37.16145" lon="-8.71291">
        <ele>25.13</ele>
        <time>2020-04-22T09:47:49Z</time>
      </trkpt>
      <trkpt lat="37.16153" lon="-8.71284">
        <ele>20.81</ele>
        <time>2020-04-22T09:47:51Z</time>
      </trkpt>
      <trkpt lat="37.16156" lon="-8.71281">
        <ele>26.09</ele>
        <time>2020-04-22T09:47:52Z</time>
      </trkpt>
      <trkpt lat="37.16171" lon="-8.71269">
        <ele>25.61</ele>
        <time>2020-04-22T09:47:56Z</time>
      </trkpt>
      <trkpt lat="37.16174" lon="-8.71265">
        <ele>25.61</ele>
        <time>2020-04-22T09:47:57Z</time>
      </trkpt>
      <trkpt lat="37.16199" lon="-8.71216">
        <ele>25.61</ele>
        <time>2020-04-22T09:48:08Z</time>
      </trkpt>
      <trkpt lat="37.16206" lon="-8.71198">
        <ele>25.61</ele>
        <time>2020-04-22T09:48:12Z</time>
      </trkpt>
      <trkpt lat="37.16213" lon="-8.71184">
        <ele>26.57</ele>
        <time>2020-04-22T09:48:15Z</time>
      </trkpt>
      <trkpt lat="37.16236" lon="-8.71136">
        <ele>28.5</ele>
        <time>2020-04-22T09:48:26Z</time>
      </trkpt>
      <trkpt lat="37.16249" lon="-8.71094">
        <ele>29.94</ele>
        <time>2020-04-22T09:48:36Z</time>
      </trkpt>
      <trkpt lat="37.16268" lon="-8.7105">
        <ele>31.86</ele>
        <time>2020-04-22T09:48:47Z</time>
      </trkpt>
      <trkpt lat="37.16294" lon="-8.71012">
        <ele>33.78</ele>
        <time>2020-04-22T09:48:58Z</time>
      </trkpt>
      <trkpt lat="37.16321" lon="-8.70983">
        <ele>35.71</ele>
        <time>2020-04-22T09:49:09Z</time>
      </trkpt>
      <trkpt lat="37.16347" lon="-8.70955">
        <ele>37.63</ele>
        <time>2020-04-22T09:49:20Z</time>
      </trkpt>
      <trkpt lat="37.16362" lon="-8.70925">
        <ele>39.55</ele>
        <time>2020-04-22T09:49:29Z</time>
      </trkpt>
      <trkpt lat="37.16384" lon="-8.70892">
        <ele>40.51</ele>
        <time>2020-04-22T09:49:40Z</time>
      </trkpt>
      <trkpt lat="37.16413" lon="-8.7086">
        <ele>41.95</ele>
        <time>2020-04-22T09:49:52Z</time>
      </trkpt>
      <trkpt lat="37.16435" lon="-8.70824">
        <ele>43.88</ele>
        <time>2020-04-22T09:50:03Z</time>
      </trkpt>
      <trkpt lat="37.1646" lon="-8.70787">
        <ele>46.28</ele>
        <time>2020-04-22T09:50:15Z</time>
      </trkpt>
      <trkpt lat="37.16478" lon="-8.70766">
        <ele>47.72</ele>
        <time>2020-04-22T09:50:23Z</time>
      </trkpt>
      <trkpt lat="37.16491" lon="-8.7074">
        <ele>49.65</ele>
        <time>2020-04-22T09:50:31Z</time>
      </trkpt>
      <trkpt lat="37.16507" lon="-8.70708">
        <ele>53.01</ele>
        <time>2020-04-22T09:50:41Z</time>
      </trkpt>
      <trkpt lat="37.16529" lon="-8.70687">
        <ele>53.97</ele>
        <time>2020-04-22T09:50:50Z</time>
      </trkpt>
      <trkpt lat="37.16549" lon="-8.70659">
        <ele>54.45</ele>
        <time>2020-04-22T09:51:00Z</time>
      </trkpt>
      <trkpt lat="37.16543" lon="-8.70647">
        <ele>55.41</ele>
        <time>2020-04-22T09:51:04Z</time>
      </trkpt>
      <trkpt lat="37.1654" lon="-8.70645">
        <ele>55.89</ele>
        <time>2020-04-22T09:51:05Z</time>
      </trkpt>
      <trkpt lat="37.16537" lon="-8.70644">
        <ele>55.89</ele>
        <time>2020-04-22T09:51:06Z</time>
      </trkpt>
      <trkpt lat="37.16514" lon="-8.70635">
        <ele>57.82</ele>
        <time>2020-04-22T09:51:14Z</time>
      </trkpt>
      <trkpt lat="37.16489" lon="-8.70631">
        <ele>61.18</ele>
        <time>2020-04-22T09:51:22Z</time>
      </trkpt>
      <trkpt lat="37.16467" lon="-8.70632">
        <ele>64.55</ele>
        <time>2020-04-22T09:51:29Z</time>
      </trkpt>
      <trkpt lat="37.16445" lon="-8.70634">
        <ele>67.91</ele>
        <time>2020-04-22T09:51:36Z</time>
      </trkpt>
      <trkpt lat="37.16416" lon="-8.70634">
        <ele>70.79</ele>
        <time>2020-04-22T09:51:45Z</time>
      </trkpt>
      <trkpt lat="37.16389" lon="-8.70621">
        <ele>73.68</ele>
        <time>2020-04-22T09:51:54Z</time>
      </trkpt>
      <trkpt lat="37.16368" lon="-8.70603">
        <ele>76.56</ele>
        <time>2020-04-22T09:52:02Z</time>
      </trkpt>
      <trkpt lat="37.16332" lon="-8.7057">
        <ele>79.93</ele>
        <time>2020-04-22T09:52:15Z</time>
      </trkpt>
      <trkpt lat="37.163" lon="-8.70539">
        <ele>80.41</ele>
        <time>2020-04-22T09:52:25Z</time>
      </trkpt>
      <trkpt lat="37.16261" lon="-8.70503">
        <ele>77.52</ele>
        <time>2020-04-22T09:52:34Z</time>
      </trkpt>
      <trkpt lat="37.16244" lon="-8.70487">
        <ele>76.08</ele>
        <time>2020-04-22T09:52:37Z</time>
      </trkpt>
      <trkpt lat="37.16209" lon="-8.70455">
        <ele>73.2</ele>
        <time>2020-04-22T09:52:42Z</time>
      </trkpt>
      <trkpt lat="37.16202" lon="-8.70446">
        <ele>73.2</ele>
        <time>2020-04-22T09:52:43Z</time>
      </trkpt>
      <trkpt lat="37.16198" lon="-8.70438">
        <ele>72.72</ele>
        <time>2020-04-22T09:52:44Z</time>
      </trkpt>
      <trkpt lat="37.16194" lon="-8.70428">
        <ele>72.72</ele>
        <time>2020-04-22T09:52:45Z</time>
      </trkpt>
      <trkpt lat="37.16191" lon="-8.7042">
        <ele>72.72</ele>
        <time>2020-04-22T09:52:46Z</time>
      </trkpt>
      <trkpt lat="37.16189" lon="-8.70412">
        <ele>72.72</ele>
        <time>2020-04-22T09:52:47Z</time>
      </trkpt>
      <trkpt lat="37.16184" lon="-8.7039">
        <ele>74.16</ele>
        <time>2020-04-22T09:52:50Z</time>
      </trkpt>
      <trkpt lat="37.16171" lon="-8.70339">
        <ele>76.08</ele>
        <time>2020-04-22T09:52:59Z</time>
      </trkpt>
      <trkpt lat="37.16145" lon="-8.70286">
        <ele>76.08</ele>
        <time>2020-04-22T09:53:09Z</time>
      </trkpt>
      <trkpt lat="37.16112" lon="-8.70243">
        <ele>77.04</ele>
        <time>2020-04-22T09:53:18Z</time>
      </trkpt>
      <trkpt lat="37.16069" lon="-8.70195">
        <ele>75.6</ele>
        <time>2020-04-22T09:53:28Z</time>
      </trkpt>
      <trkpt lat="37.16035" lon="-8.70156">
        <ele>74.64</ele>
        <time>2020-04-22T09:53:35Z</time>
      </trkpt>
      <trkpt lat="37.16007" lon="-8.70121">
        <ele>75.6</ele>
        <time>2020-04-22T09:53:42Z</time>
      </trkpt>
      <trkpt lat="37.15958" lon="-8.70055">
        <ele>78</ele>
        <time>2020-04-22T09:53:56Z</time>
      </trkpt>
      <trkpt lat="37.15928" lon="-8.70019">
        <ele>74.64</ele>
        <time>2020-04-22T09:54:02Z</time>
      </trkpt>
      <trkpt lat="37.1589" lon="-8.69992">
        <ele>71.76</ele>
        <time>2020-04-22T09:54:07Z</time>
      </trkpt>
      <trkpt lat="37.15842" lon="-8.6998">
        <ele>70.79</ele>
        <time>2020-04-22T09:54:13Z</time>
      </trkpt>
      <trkpt lat="37.15835" lon="-8.6998">
        <ele>70.79</ele>
        <time>2020-04-22T09:54:14Z</time>
      </trkpt>
      <trkpt lat="37.15828" lon="-8.69982">
        <ele>72.24</ele>
        <time>2020-04-22T09:54:15Z</time>
      </trkpt>
      <trkpt lat="37.15784" lon="-8.69995">
        <ele>73.68</ele>
        <time>2020-04-22T09:54:23Z</time>
      </trkpt>
      <trkpt lat="37.15731" lon="-8.70012">
        <ele>75.12</ele>
        <time>2020-04-22T09:54:33Z</time>
      </trkpt>
      <trkpt lat="37.15693" lon="-8.70026">
        <ele>75.12</ele>
        <time>2020-04-22T09:54:42Z</time>
      </trkpt>
      <trkpt lat="37.15677" lon="-8.70029">
        <ele>75.12</ele>
        <time>2020-04-22T09:54:46Z</time>
      </trkpt>
      <trkpt lat="37.15673" lon="-8.7003">
        <ele>75.12</ele>
        <time>2020-04-22T09:54:47Z</time>
      </trkpt>
      <trkpt lat="37.1566" lon="-8.70034">
        <ele>72.72</ele>
        <time>2020-04-22T09:54:50Z</time>
      </trkpt>
      <trkpt lat="37.15655" lon="-8.70035">
        <ele>72.72</ele>
        <time>2020-04-22T09:54:51Z</time>
      </trkpt>
      <trkpt lat="37.15651" lon="-8.70035">
        <ele>72.24</ele>
        <time>2020-04-22T09:54:52Z</time>
      </trkpt>
      <trkpt lat="37.15647" lon="-8.70034">
        <ele>72.24</ele>
        <time>2020-04-22T09:54:53Z</time>
      </trkpt>
      <trkpt lat="37.15644" lon="-8.70034">
        <ele>72.24</ele>
        <time>2020-04-22T09:54:54Z</time>
      </trkpt>
      <trkpt lat="37.1563" lon="-8.7003">
        <ele>69.83</ele>
        <time>2020-04-22T09:54:59Z</time>
      </trkpt>
      <trkpt lat="37.15611" lon="-8.70023">
        <ele>67.43</ele>
        <time>2020-04-22T09:55:05Z</time>
      </trkpt>
      <trkpt lat="37.15608" lon="-8.70023">
        <ele>66.47</ele>
        <time>2020-04-22T09:55:06Z</time>
      </trkpt>
      <trkpt lat="37.15604" lon="-8.70021">
        <ele>66.47</ele>
        <time>2020-04-22T09:55:07Z</time>
      </trkpt>
      <trkpt lat="37.15598" lon="-8.70017">
        <ele>65.03</ele>
        <time>2020-04-22T09:55:09Z</time>
      </trkpt>
      <trkpt lat="37.15595" lon="-8.70015">
        <ele>64.55</ele>
        <time>2020-04-22T09:55:10Z</time>
      </trkpt>
      <trkpt lat="37.15592" lon="-8.70012">
        <ele>63.58</ele>
        <time>2020-04-22T09:55:11Z</time>
      </trkpt>
      <trkpt lat="37.15589" lon="-8.70009">
        <ele>63.1</ele>
        <time>2020-04-22T09:55:12Z</time>
      </trkpt>
      <trkpt lat="37.15586" lon="-8.70006">
        <ele>62.62</ele>
        <time>2020-04-22T09:55:13Z</time>
      </trkpt>
      <trkpt lat="37.15584" lon="-8.70001">
        <ele>62.62</ele>
        <time>2020-04-22T09:55:14Z</time>
      </trkpt>
      <trkpt lat="37.15581" lon="-8.69996">
        <ele>61.66</ele>
        <time>2020-04-22T09:55:15Z</time>
      </trkpt>
      <trkpt lat="37.15578" lon="-8.69991">
        <ele>61.18</ele>
        <time>2020-04-22T09:55:16Z</time>
      </trkpt>
      <trkpt lat="37.15574" lon="-8.69985">
        <ele>61.18</ele>
        <time>2020-04-22T09:55:17Z</time>
      </trkpt>
      <trkpt lat="37.15571" lon="-8.69979">
        <ele>60.22</ele>
        <time>2020-04-22T09:55:18Z</time>
      </trkpt>
      <trkpt lat="37.15569" lon="-8.69971">
        <ele>59.74</ele>
        <time>2020-04-22T09:55:19Z</time>
      </trkpt>
      <trkpt lat="37.15567" lon="-8.69964">
        <ele>59.26</ele>
        <time>2020-04-22T09:55:20Z</time>
      </trkpt>
      <trkpt lat="37.15564" lon="-8.69957">
        <ele>59.26</ele>
        <time>2020-04-22T09:55:21Z</time>
      </trkpt>
      <trkpt lat="37.15562" lon="-8.69951">
        <ele>59.26</ele>
        <time>2020-04-22T09:55:22Z</time>
      </trkpt>
      <trkpt lat="37.15559" lon="-8.69945">
        <ele>59.26</ele>
        <time>2020-04-22T09:55:23Z</time>
      </trkpt>
      <trkpt lat="37.15556" lon="-8.6994">
        <ele>59.26</ele>
        <time>2020-04-22T09:55:24Z</time>
      </trkpt>
      <trkpt lat="37.15544" lon="-8.69924">
        <ele>60.7</ele>
        <time>2020-04-22T09:55:29Z</time>
      </trkpt>
      <trkpt lat="37.15541" lon="-8.69922">
        <ele>60.7</ele>
        <time>2020-04-22T09:55:30Z</time>
      </trkpt>
      <trkpt lat="37.15512" lon="-8.69904">
        <ele>62.14</ele>
        <time>2020-04-22T09:55:39Z</time>
      </trkpt>
      <trkpt lat="37.15489" lon="-8.69893">
        <ele>62.14</ele>
        <time>2020-04-22T09:55:46Z</time>
      </trkpt>
      <trkpt lat="37.15468" lon="-8.69883">
        <ele>63.58</ele>
        <time>2020-04-22T09:55:52Z</time>
      </trkpt>
      <trkpt lat="37.15443" lon="-8.69868">
        <ele>65.99</ele>
        <time>2020-04-22T09:56:00Z</time>
      </trkpt>
      <trkpt lat="37.1543" lon="-8.69848">
        <ele>66.47</ele>
        <time>2020-04-22T09:56:06Z</time>
      </trkpt>
      <trkpt lat="37.15427" lon="-8.69823">
        <ele>68.39</ele>
        <time>2020-04-22T09:56:12Z</time>
      </trkpt>
      <trkpt lat="37.15432" lon="-8.69793">
        <ele>71.27</ele>
        <time>2020-04-22T09:56:20Z</time>
      </trkpt>
      <trkpt lat="37.15442" lon="-8.69767">
        <ele>71.76</ele>
        <time>2020-04-22T09:56:29Z</time>
      </trkpt>
      <trkpt lat="37.15454" lon="-8.69747">
        <ele>71.76</ele>
        <time>2020-04-22T09:56:35Z</time>
      </trkpt>
      <trkpt lat="37.15468" lon="-8.69716">
        <ele>69.35</ele>
        <time>2020-04-22T09:56:43Z</time>
      </trkpt>
      <trkpt lat="37.15484" lon="-8.69687">
        <ele>67.43</ele>
        <time>2020-04-22T09:56:51Z</time>
      </trkpt>
      <trkpt lat="37.15495" lon="-8.69665">
        <ele>65.51</ele>
        <time>2020-04-22T09:56:56Z</time>
      </trkpt>
      <trkpt lat="37.15498" lon="-8.69662">
        <ele>65.51</ele>
        <time>2020-04-22T09:56:57Z</time>
      </trkpt>
      <trkpt lat="37.155" lon="-8.69659">
        <ele>65.51</ele>
        <time>2020-04-22T09:56:58Z</time>
      </trkpt>
      <trkpt lat="37.15503" lon="-8.69655">
        <ele>64.55</ele>
        <time>2020-04-22T09:56:59Z</time>
      </trkpt>
      <trkpt lat="37.15505" lon="-8.69652">
        <ele>64.55</ele>
        <time>2020-04-22T09:57:00Z</time>
      </trkpt>
      <trkpt lat="37.15506" lon="-8.69648">
        <ele>63.58</ele>
        <time>2020-04-22T09:57:01Z</time>
      </trkpt>
      <trkpt lat="37.15508" lon="-8.69643">
        <ele>63.1</ele>
        <time>2020-04-22T09:57:02Z</time>
      </trkpt>
      <trkpt lat="37.1551" lon="-8.6964">
        <ele>63.1</ele>
        <time>2020-04-22T09:57:03Z</time>
      </trkpt>
      <trkpt lat="37.15512" lon="-8.69636">
        <ele>63.1</ele>
        <time>2020-04-22T09:57:04Z</time>
      </trkpt>
      <trkpt lat="37.15514" lon="-8.69633">
        <ele>62.62</ele>
        <time>2020-04-22T09:57:05Z</time>
      </trkpt>
      <trkpt lat="37.15516" lon="-8.6963">
        <ele>62.14</ele>
        <time>2020-04-22T09:57:06Z</time>
      </trkpt>
      <trkpt lat="37.15537" lon="-8.69606">
        <ele>58.3</ele>
        <time>2020-04-22T09:57:14Z</time>
      </trkpt>
      <trkpt lat="37.1554" lon="-8.69604">
        <ele>58.3</ele>
        <time>2020-04-22T09:57:15Z</time>
      </trkpt>
      <trkpt lat="37.1556" lon="-8.69599">
        <ele>55.41</ele>
        <time>2020-04-22T09:57:21Z</time>
      </trkpt>
      <trkpt lat="37.15582" lon="-8.69601">
        <ele>53.97</ele>
        <time>2020-04-22T09:57:27Z</time>
      </trkpt>
      <trkpt lat="37.15608" lon="-8.69597">
        <ele>53.49</ele>
        <time>2020-04-22T09:57:34Z</time>
      </trkpt>
      <trkpt lat="37.1563" lon="-8.69584">
        <ele>55.41</ele>
        <time>2020-04-22T09:57:41Z</time>
      </trkpt>
      <trkpt lat="37.15632" lon="-8.69581">
        <ele>55.41</ele>
        <time>2020-04-22T09:57:42Z</time>
      </trkpt>
      <trkpt lat="37.15654" lon="-8.69558">
        <ele>55.89</ele>
        <time>2020-04-22T09:57:50Z</time>
      </trkpt>
      <trkpt lat="37.15668" lon="-8.69533">
        <ele>54.45</ele>
        <time>2020-04-22T09:57:57Z</time>
      </trkpt>
      <trkpt lat="37.15675" lon="-8.69519">
        <ele>53.49</ele>
        <time>2020-04-22T09:58:00Z</time>
      </trkpt>
      <trkpt lat="37.15676" lon="-8.69514">
        <ele>52.53</ele>
        <time>2020-04-22T09:58:01Z</time>
      </trkpt>
      <trkpt lat="37.15677" lon="-8.69508">
        <ele>52.53</ele>
        <time>2020-04-22T09:58:02Z</time>
      </trkpt>
      <trkpt lat="37.15678" lon="-8.69502">
        <ele>51.57</ele>
        <time>2020-04-22T09:58:03Z</time>
      </trkpt>
      <trkpt lat="37.15678" lon="-8.69496">
        <ele>51.09</ele>
        <time>2020-04-22T09:58:04Z</time>
      </trkpt>
      <trkpt lat="37.15684" lon="-8.69444">
        <ele>47.24</ele>
        <time>2020-04-22T09:58:12Z</time>
      </trkpt>
      <trkpt lat="37.15685" lon="-8.69438">
        <ele>47.72</ele>
        <time>2020-04-22T09:58:13Z</time>
      </trkpt>
      <trkpt lat="37.15685" lon="-8.69432">
        <ele>47.24</ele>
        <time>2020-04-22T09:58:14Z</time>
      </trkpt>
      <trkpt lat="37.15681" lon="-8.69411">
        <ele>47.24</ele>
        <time>2020-04-22T09:58:19Z</time>
      </trkpt>
      <trkpt lat="37.15678" lon="-8.69409">
        <ele>47.24</ele>
        <time>2020-04-22T09:58:20Z</time>
      </trkpt>
      <trkpt lat="37.15674" lon="-8.69407">
        <ele>47.24</ele>
        <time>2020-04-22T09:58:21Z</time>
      </trkpt>
      <trkpt lat="37.1567" lon="-8.69407">
        <ele>47.24</ele>
        <time>2020-04-22T09:58:22Z</time>
      </trkpt>
      <trkpt lat="37.15667" lon="-8.69406">
        <ele>47.24</ele>
        <time>2020-04-22T09:58:23Z</time>
      </trkpt>
      <trkpt lat="37.15622" lon="-8.69398">
        <ele>47.24</ele>
        <time>2020-04-22T09:58:32Z</time>
      </trkpt>
      <trkpt lat="37.1558" lon="-8.69381">
        <ele>45.8</ele>
        <time>2020-04-22T09:58:40Z</time>
      </trkpt>
      <trkpt lat="37.15535" lon="-8.69374">
        <ele>44.84</ele>
        <time>2020-04-22T09:58:48Z</time>
      </trkpt>
      <trkpt lat="37.15504" lon="-8.69376">
        <ele>44.84</ele>
        <time>2020-04-22T09:58:54Z</time>
      </trkpt>
      <trkpt lat="37.15499" lon="-8.69374">
        <ele>44.84</ele>
        <time>2020-04-22T09:58:55Z</time>
      </trkpt>
      <trkpt lat="37.15494" lon="-8.69372">
        <ele>45.32</ele>
        <time>2020-04-22T09:58:56Z</time>
      </trkpt>
      <trkpt lat="37.15484" lon="-8.69367">
        <ele>46.76</ele>
        <time>2020-04-22T09:58:58Z</time>
      </trkpt>
      <trkpt lat="37.15451" lon="-8.69348">
        <ele>46.76</ele>
        <time>2020-04-22T09:59:05Z</time>
      </trkpt>
      <trkpt lat="37.15447" lon="-8.69345">
        <ele>46.76</ele>
        <time>2020-04-22T09:59:06Z</time>
      </trkpt>
      <trkpt lat="37.15442" lon="-8.69344">
        <ele>45.32</ele>
        <time>2020-04-22T09:59:07Z</time>
      </trkpt>
      <trkpt lat="37.15436" lon="-8.69343">
        <ele>44.84</ele>
        <time>2020-04-22T09:59:08Z</time>
      </trkpt>
      <trkpt lat="37.1543" lon="-8.69341">
        <ele>44.36</ele>
        <time>2020-04-22T09:59:09Z</time>
      </trkpt>
      <trkpt lat="37.15423" lon="-8.69339">
        <ele>44.36</ele>
        <time>2020-04-22T09:59:10Z</time>
      </trkpt>
      <trkpt lat="37.15417" lon="-8.69336">
        <ele>43.4</ele>
        <time>2020-04-22T09:59:11Z</time>
      </trkpt>
      <trkpt lat="37.1541" lon="-8.69333">
        <ele>42.92</ele>
        <time>2020-04-22T09:59:12Z</time>
      </trkpt>
      <trkpt lat="37.15404" lon="-8.6933">
        <ele>42.92</ele>
        <time>2020-04-22T09:59:13Z</time>
      </trkpt>
      <trkpt lat="37.15398" lon="-8.69325">
        <ele>42.44</ele>
        <time>2020-04-22T09:59:14Z</time>
      </trkpt>
      <trkpt lat="37.15392" lon="-8.69321">
        <ele>42.44</ele>
        <time>2020-04-22T09:59:15Z</time>
      </trkpt>
      <trkpt lat="37.15385" lon="-8.69315">
        <ele>41.95</ele>
        <time>2020-04-22T09:59:16Z</time>
      </trkpt>
      <trkpt lat="37.15342" lon="-8.69274">
        <ele>40.99</ele>
        <time>2020-04-22T09:59:24Z</time>
      </trkpt>
      <trkpt lat="37.15285" lon="-8.69228">
        <ele>40.03</ele>
        <time>2020-04-22T09:59:35Z</time>
      </trkpt>
      <trkpt lat="37.15243" lon="-8.6919">
        <ele>39.07</ele>
        <time>2020-04-22T09:59:43Z</time>
      </trkpt>
      <trkpt lat="37.15214" lon="-8.69174">
        <ele>38.59</ele>
        <time>2020-04-22T09:59:48Z</time>
      </trkpt>
      <trkpt lat="37.15198" lon="-8.69168">
        <ele>38.59</ele>
        <time>2020-04-22T09:59:51Z</time>
      </trkpt>
      <trkpt lat="37.15194" lon="-8.69165">
        <ele>38.59</ele>
        <time>2020-04-22T09:59:52Z</time>
      </trkpt>
      <trkpt lat="37.15177" lon="-8.69152">
        <ele>38.59</ele>
        <time>2020-04-22T09:59:57Z</time>
      </trkpt>
      <trkpt lat="37.15167" lon="-8.69143">
        <ele>38.59</ele>
        <time>2020-04-22T10:00:00Z</time>
      </trkpt>
      <trkpt lat="37.15152" lon="-8.69119">
        <ele>38.59</ele>
        <time>2020-04-22T10:00:05Z</time>
      </trkpt>
      <trkpt lat="37.15147" lon="-8.69114">
        <ele>38.59</ele>
        <time>2020-04-22T10:00:06Z</time>
      </trkpt>
      <trkpt lat="37.15117" lon="-8.69083">
        <ele>38.11</ele>
        <time>2020-04-22T10:00:13Z</time>
      </trkpt>
      <trkpt lat="37.15105" lon="-8.69072">
        <ele>38.11</ele>
        <time>2020-04-22T10:00:16Z</time>
      </trkpt>
      <trkpt lat="37.15102" lon="-8.69069">
        <ele>38.11</ele>
        <time>2020-04-22T10:00:17Z</time>
      </trkpt>
      <trkpt lat="37.15098" lon="-8.69066">
        <ele>38.11</ele>
        <time>2020-04-22T10:00:18Z</time>
      </trkpt>
      <trkpt lat="37.15084" lon="-8.69055">
        <ele>39.55</ele>
        <time>2020-04-22T10:00:22Z</time>
      </trkpt>
      <trkpt lat="37.15068" lon="-8.6904">
        <ele>39.55</ele>
        <time>2020-04-22T10:00:29Z</time>
      </trkpt>
      <trkpt lat="37.15054" lon="-8.69028">
        <ele>39.55</ele>
        <time>2020-04-22T10:00:36Z</time>
      </trkpt>
      <trkpt lat="37.15034" lon="-8.68996">
        <ele>39.55</ele>
        <time>2020-04-22T10:00:44Z</time>
      </trkpt>
      <trkpt lat="37.15008" lon="-8.68964">
        <ele>42.92</ele>
        <time>2020-04-22T10:00:53Z</time>
      </trkpt>
      <trkpt lat="37.14993" lon="-8.68951">
        <ele>46.28</ele>
        <time>2020-04-22T10:00:58Z</time>
      </trkpt>
      <trkpt lat="37.14991" lon="-8.68947">
        <ele>46.28</ele>
        <time>2020-04-22T10:00:59Z</time>
      </trkpt>
      <trkpt lat="37.14975" lon="-8.68929">
        <ele>49.65</ele>
        <time>2020-04-22T10:01:05Z</time>
      </trkpt>
      <trkpt lat="37.14964" lon="-8.68918">
        <ele>51.09</ele>
        <time>2020-04-22T10:01:09Z</time>
      </trkpt>
      <trkpt lat="37.14959" lon="-8.68921">
        <ele>53.01</ele>
        <time>2020-04-22T10:01:11Z</time>
      </trkpt>
      <trkpt lat="37.14958" lon="-8.68925">
        <ele>53.01</ele>
        <time>2020-04-22T10:01:12Z</time>
      </trkpt>
      <trkpt lat="37.14957" lon="-8.68929">
        <ele>53.01</ele>
        <time>2020-04-22T10:01:13Z</time>
      </trkpt>
      <trkpt lat="37.14951" lon="-8.68969">
        <ele>55.89</ele>
        <time>2020-04-22T10:01:22Z</time>
      </trkpt>
      <trkpt lat="37.14943" lon="-8.69012">
        <ele>58.78</ele>
        <time>2020-04-22T10:01:32Z</time>
      </trkpt>
      <trkpt lat="37.14943" lon="-8.6904">
        <ele>57.82</ele>
        <time>2020-04-22T10:01:38Z</time>
      </trkpt>
      <trkpt lat="37.14942" lon="-8.69045">
        <ele>57.82</ele>
        <time>2020-04-22T10:01:39Z</time>
      </trkpt>
      <trkpt lat="37.1494" lon="-8.69052">
        <ele>57.34</ele>
        <time>2020-04-22T10:01:40Z</time>
      </trkpt>
      <trkpt lat="37.14937" lon="-8.69058">
        <ele>57.34</ele>
        <time>2020-04-22T10:01:41Z</time>
      </trkpt>
      <trkpt lat="37.14933" lon="-8.69062">
        <ele>57.34</ele>
        <time>2020-04-22T10:01:42Z</time>
      </trkpt>
      <trkpt lat="37.14929" lon="-8.69065">
        <ele>57.34</ele>
        <time>2020-04-22T10:01:43Z</time>
      </trkpt>
      <trkpt lat="37.14924" lon="-8.69065">
        <ele>57.34</ele>
        <time>2020-04-22T10:01:44Z</time>
      </trkpt>
      <trkpt lat="37.14921" lon="-8.69065">
        <ele>57.34</ele>
        <time>2020-04-22T10:01:45Z</time>
      </trkpt>
      <trkpt lat="37.14916" lon="-8.69063">
        <ele>57.34</ele>
        <time>2020-04-22T10:01:46Z</time>
      </trkpt>
      <trkpt lat="37.14912" lon="-8.6906">
        <ele>57.34</ele>
        <time>2020-04-22T10:01:47Z</time>
      </trkpt>
      <trkpt lat="37.1489" lon="-8.69044">
        <ele>54.45</ele>
        <time>2020-04-22T10:01:51Z</time>
      </trkpt>
      <trkpt lat="37.14884" lon="-8.69038">
        <ele>53.97</ele>
        <time>2020-04-22T10:01:52Z</time>
      </trkpt>
      <trkpt lat="37.14874" lon="-8.69025">
        <ele>53.01</ele>
        <time>2020-04-22T10:01:54Z</time>
      </trkpt>
      <trkpt lat="37.14864" lon="-8.69013">
        <ele>53.01</ele>
        <time>2020-04-22T10:01:56Z</time>
      </trkpt>
      <trkpt lat="37.14858" lon="-8.69009">
        <ele>53.01</ele>
        <time>2020-04-22T10:01:57Z</time>
      </trkpt>
      <trkpt lat="37.14842" lon="-8.68996">
        <ele>52.05</ele>
        <time>2020-04-22T10:02:00Z</time>
      </trkpt>
      <trkpt lat="37.14837" lon="-8.6899">
        <ele>52.05</ele>
        <time>2020-04-22T10:02:01Z</time>
      </trkpt>
      <trkpt lat="37.14811" lon="-8.68956">
        <ele>52.05</ele>
        <time>2020-04-22T10:02:07Z</time>
      </trkpt>
      <trkpt lat="37.14806" lon="-8.68952">
        <ele>52.05</ele>
        <time>2020-04-22T10:02:08Z</time>
      </trkpt>
      <trkpt lat="37.14778" lon="-8.68931">
        <ele>53.49</ele>
        <time>2020-04-22T10:02:15Z</time>
      </trkpt>
      <trkpt lat="37.14774" lon="-8.68929">
        <ele>53.49</ele>
        <time>2020-04-22T10:02:16Z</time>
      </trkpt>
      <trkpt lat="37.14756" lon="-8.68923">
        <ele>53.49</ele>
        <time>2020-04-22T10:02:20Z</time>
      </trkpt>
      <trkpt lat="37.14731" lon="-8.68909">
        <ele>52.05</ele>
        <time>2020-04-22T10:02:25Z</time>
      </trkpt>
      <trkpt lat="37.14727" lon="-8.68908">
        <ele>52.05</ele>
        <time>2020-04-22T10:02:26Z</time>
      </trkpt>
      <trkpt lat="37.14722" lon="-8.68909">
        <ele>52.05</ele>
        <time>2020-04-22T10:02:27Z</time>
      </trkpt>
      <trkpt lat="37.14717" lon="-8.6891">
        <ele>52.05</ele>
        <time>2020-04-22T10:02:28Z</time>
      </trkpt>
      <trkpt lat="37.14713" lon="-8.68913">
        <ele>52.05</ele>
        <time>2020-04-22T10:02:29Z</time>
      </trkpt>
      <trkpt lat="37.14709" lon="-8.68916">
        <ele>52.05</ele>
        <time>2020-04-22T10:02:30Z</time>
      </trkpt>
      <trkpt lat="37.14705" lon="-8.68921">
        <ele>52.05</ele>
        <time>2020-04-22T10:02:31Z</time>
      </trkpt>
      <trkpt lat="37.14702" lon="-8.68925">
        <ele>52.05</ele>
        <time>2020-04-22T10:02:32Z</time>
      </trkpt>
      <trkpt lat="37.14675" lon="-8.68958">
        <ele>53.49</ele>
        <time>2020-04-22T10:02:40Z</time>
      </trkpt>
      <trkpt lat="37.14632" lon="-8.69007">
        <ele>53.97</ele>
        <time>2020-04-22T10:02:52Z</time>
      </trkpt>
      <trkpt lat="37.14613" lon="-8.69028">
        <ele>51.09</ele>
        <time>2020-04-22T10:02:56Z</time>
      </trkpt>
      <trkpt lat="37.14584" lon="-8.69063">
        <ele>47.24</ele>
        <time>2020-04-22T10:03:01Z</time>
      </trkpt>
      <trkpt lat="37.14541" lon="-8.69112">
        <ele>43.88</ele>
        <time>2020-04-22T10:03:07Z</time>
      </trkpt>
      <trkpt lat="37.14529" lon="-8.69123">
        <ele>43.88</ele>
        <time>2020-04-22T10:03:09Z</time>
      </trkpt>
      <trkpt lat="37.14522" lon="-8.69128">
        <ele>43.88</ele>
        <time>2020-04-22T10:03:10Z</time>
      </trkpt>
      <trkpt lat="37.14514" lon="-8.69132">
        <ele>43.88</ele>
        <time>2020-04-22T10:03:11Z</time>
      </trkpt>
      <trkpt lat="37.14508" lon="-8.69134">
        <ele>43.88</ele>
        <time>2020-04-22T10:03:12Z</time>
      </trkpt>
      <trkpt lat="37.14501" lon="-8.69137">
        <ele>44.84</ele>
        <time>2020-04-22T10:03:13Z</time>
      </trkpt>
      <trkpt lat="37.14468" lon="-8.69143">
        <ele>45.8</ele>
        <time>2020-04-22T10:03:19Z</time>
      </trkpt>
      <trkpt lat="37.1442" lon="-8.69158">
        <ele>48.2</ele>
        <time>2020-04-22T10:03:30Z</time>
      </trkpt>
      <trkpt lat="37.14378" lon="-8.69179">
        <ele>51.57</ele>
        <time>2020-04-22T10:03:40Z</time>
      </trkpt>
      <trkpt lat="37.14332" lon="-8.69202">
        <ele>53.49</ele>
        <time>2020-04-22T10:03:51Z</time>
      </trkpt>
      <trkpt lat="37.14284" lon="-8.69235">
        <ele>53.97</ele>
        <time>2020-04-22T10:04:03Z</time>
      </trkpt>
      <trkpt lat="37.14244" lon="-8.69258">
        <ele>52.53</ele>
        <time>2020-04-22T10:04:12Z</time>
      </trkpt>
      <trkpt lat="37.14239" lon="-8.69259">
        <ele>52.53</ele>
        <time>2020-04-22T10:04:13Z</time>
      </trkpt>
      <trkpt lat="37.14233" lon="-8.6926">
        <ele>52.53</ele>
        <time>2020-04-22T10:04:14Z</time>
      </trkpt>
      <trkpt lat="37.14228" lon="-8.6926">
        <ele>52.05</ele>
        <time>2020-04-22T10:04:15Z</time>
      </trkpt>
      <trkpt lat="37.14222" lon="-8.69259">
        <ele>52.05</ele>
        <time>2020-04-22T10:04:16Z</time>
      </trkpt>
      <trkpt lat="37.14216" lon="-8.69258">
        <ele>51.57</ele>
        <time>2020-04-22T10:04:17Z</time>
      </trkpt>
      <trkpt lat="37.14197" lon="-8.69256">
        <ele>51.09</ele>
        <time>2020-04-22T10:04:20Z</time>
      </trkpt>
      <trkpt lat="37.1419" lon="-8.69257">
        <ele>50.61</ele>
        <time>2020-04-22T10:04:21Z</time>
      </trkpt>
      <trkpt lat="37.14183" lon="-8.69259">
        <ele>50.61</ele>
        <time>2020-04-22T10:04:22Z</time>
      </trkpt>
      <trkpt lat="37.14177" lon="-8.69261">
        <ele>50.13</ele>
        <time>2020-04-22T10:04:23Z</time>
      </trkpt>
      <trkpt lat="37.1417" lon="-8.69265">
        <ele>50.13</ele>
        <time>2020-04-22T10:04:24Z</time>
      </trkpt>
      <trkpt lat="37.14164" lon="-8.69269">
        <ele>49.65</ele>
        <time>2020-04-22T10:04:25Z</time>
      </trkpt>
      <trkpt lat="37.14158" lon="-8.69274">
        <ele>49.65</ele>
        <time>2020-04-22T10:04:26Z</time>
      </trkpt>
      <trkpt lat="37.14151" lon="-8.69279">
        <ele>49.16</ele>
        <time>2020-04-22T10:04:27Z</time>
      </trkpt>
      <trkpt lat="37.14143" lon="-8.69282">
        <ele>48.68</ele>
        <time>2020-04-22T10:04:28Z</time>
      </trkpt>
      <trkpt lat="37.14137" lon="-8.69284">
        <ele>48.2</ele>
        <time>2020-04-22T10:04:29Z</time>
      </trkpt>
      <trkpt lat="37.14129" lon="-8.69286">
        <ele>48.2</ele>
        <time>2020-04-22T10:04:30Z</time>
      </trkpt>
      <trkpt lat="37.1412" lon="-8.69286">
        <ele>47.72</ele>
        <time>2020-04-22T10:04:31Z</time>
      </trkpt>
      <trkpt lat="37.1411" lon="-8.69285">
        <ele>46.76</ele>
        <time>2020-04-22T10:04:32Z</time>
      </trkpt>
      <trkpt lat="37.14103" lon="-8.69284">
        <ele>45.8</ele>
        <time>2020-04-22T10:04:33Z</time>
      </trkpt>
      <trkpt lat="37.14073" lon="-8.69278">
        <ele>42.44</ele>
        <time>2020-04-22T10:04:36Z</time>
      </trkpt>
      <trkpt lat="37.1404" lon="-8.69269">
        <ele>39.55</ele>
        <time>2020-04-22T10:04:39Z</time>
      </trkpt>
      <trkpt lat="37.13969" lon="-8.69251">
        <ele>37.15</ele>
        <time>2020-04-22T10:04:46Z</time>
      </trkpt>
      <trkpt lat="37.13905" lon="-8.6924">
        <ele>34.74</ele>
        <time>2020-04-22T10:04:53Z</time>
      </trkpt>
      <trkpt lat="37.13896" lon="-8.69237">
        <ele>34.74</ele>
        <time>2020-04-22T10:04:54Z</time>
      </trkpt>
      <trkpt lat="37.13842" lon="-8.6923">
        <ele>32.82</ele>
        <time>2020-04-22T10:05:00Z</time>
      </trkpt>
      <trkpt lat="37.13799" lon="-8.69224">
        <ele>32.82</ele>
        <time>2020-04-22T10:05:06Z</time>
      </trkpt>
      <trkpt lat="37.13795" lon="-8.69222">
        <ele>32.82</ele>
        <time>2020-04-22T10:05:07Z</time>
      </trkpt>
      <trkpt lat="37.13792" lon="-8.69221">
        <ele>32.82</ele>
        <time>2020-04-22T10:05:08Z</time>
      </trkpt>
      <trkpt lat="37.13789" lon="-8.69218">
        <ele>34.26</ele>
        <time>2020-04-22T10:05:09Z</time>
      </trkpt>
      <trkpt lat="37.13787" lon="-8.69215">
        <ele>34.26</ele>
        <time>2020-04-22T10:05:10Z</time>
      </trkpt>
      <trkpt lat="37.13785" lon="-8.69211">
        <ele>34.26</ele>
        <time>2020-04-22T10:05:11Z</time>
      </trkpt>
      <trkpt lat="37.13783" lon="-8.69207">
        <ele>34.26</ele>
        <time>2020-04-22T10:05:12Z</time>
      </trkpt>
      <trkpt lat="37.13781" lon="-8.69201">
        <ele>34.26</ele>
        <time>2020-04-22T10:05:13Z</time>
      </trkpt>
      <trkpt lat="37.1378" lon="-8.69194">
        <ele>34.26</ele>
        <time>2020-04-22T10:05:14Z</time>
      </trkpt>
      <trkpt lat="37.1378" lon="-8.6919">
        <ele>34.26</ele>
        <time>2020-04-22T10:05:15Z</time>
      </trkpt>
      <trkpt lat="37.13779" lon="-8.69184">
        <ele>34.26</ele>
        <time>2020-04-22T10:05:16Z</time>
      </trkpt>
      <trkpt lat="37.13778" lon="-8.69125">
        <ele>34.26</ele>
        <time>2020-04-22T10:05:27Z</time>
      </trkpt>
      <trkpt lat="37.13769" lon="-8.69111">
        <ele>34.26</ele>
        <time>2020-04-22T10:05:31Z</time>
      </trkpt>
      <trkpt lat="37.1375" lon="-8.691">
        <ele>34.26</ele>
        <time>2020-04-22T10:05:36Z</time>
      </trkpt>
      <trkpt lat="37.13747" lon="-8.69097">
        <ele>34.26</ele>
        <time>2020-04-22T10:05:37Z</time>
      </trkpt>
      <trkpt lat="37.13742" lon="-8.69092">
        <ele>32.82</ele>
        <time>2020-04-22T10:05:39Z</time>
      </trkpt>
      <trkpt lat="37.13738" lon="-8.69089">
        <ele>32.34</ele>
        <time>2020-04-22T10:05:43Z</time>
      </trkpt>
      <trkpt lat="37.13736" lon="-8.69087">
        <ele>32.34</ele>
        <time>2020-04-22T10:05:51Z</time>
      </trkpt>
      <trkpt lat="37.13736" lon="-8.69088">
        <ele>32.34</ele>
        <time>2020-04-22T10:05:57Z</time>
      </trkpt>
      <trkpt lat="37.13731" lon="-8.69086">
        <ele>32.34</ele>
        <time>2020-04-22T10:06:05Z</time>
      </trkpt>
      <trkpt lat="37.13728" lon="-8.69085">
        <ele>33.78</ele>
        <time>2020-04-22T10:06:16Z</time>
      </trkpt>
      <trkpt lat="37.13727" lon="-8.69085">
        <ele>32.34</ele>
        <time>2020-04-22T10:06:18Z</time>
      </trkpt>
      <trkpt lat="37.13725" lon="-8.69083">
        <ele>27.53</ele>
        <time>2020-04-22T10:06:23Z</time>
      </trkpt>
    </trkseg>
  </trk>
</gpx>